     2              OBSERVATION DATA    GPS                 RINEX VERSION / TYPE
teqc 2000Jul20 Karen Wendt 20040114 20:24:06UTC             PGM / RUN BY / DATE
                                                            COMMENT
L2: 1 -> 1; 150 -> 5; 250 -> 9                              COMMENT
L2: 1 -> 1; 150 -> 5; 250 -> 9                              COMMENT
L2: 1 -> 1; 150 -> 5; 250 -> 9                              COMMENT
L2: 1 -> 1; 150 -> 5; 250 -> 9                              COMMENT
L2: 1 -> 1; 150 -> 5; 250 -> 9                              COMMENT
L2: 1 -> 1; 150 -> 5; 250 -> 9                              COMMENT
L2: 1 -> 1; 150 -> 5; 250 -> 9                              COMMENT
L2: 1 -> 1; 150 -> 5; 250 -> 9                              COMMENT
L2: 1 -> 1; 150 -> 5; 250 -> 9                              COMMENT
L2: 1 -> 1; 150 -> 5; 250 -> 9                              COMMENT
L2: 1 -> 1; 150 -> 5; 250 -> 9                              COMMENT
L2: 1 -> 1; 150 -> 5; 250 -> 9                              COMMENT
L2: 1 -> 1; 150 -> 5; 250 -> 9                              COMMENT
L2: 1 -> 1; 150 -> 5; 250 -> 9                              COMMENT
Original Marker Name: 2069 2069_smtpd_SLO_101_PM_5229_05LL_1COMMENT
Campaign Name: USGS San Simeon 2003-2004                    COMMENT
4-Character Station Name: 2069                              COMMENT
6-Character Antenna Code: DMRCHT                            COMMENT
Vertical Measurement Point: BCR                             COMMENT
Vertical Offset to Rinex Ref. Point: 0.0348                 COMMENT
Radial Measurement Point: ECF                               COMMENT
Radial Offset to Rinex Ref. Point: 0.1897                   COMMENT
Antenna Height from Field Measurement: 1.4990 m             COMMENT
Additional Antenna Identification Info.:                    COMMENT
Turborogue and Ashtech Choke Ring                           COMMENT
Original XYZ: -2652415.8838 -4466121.0596 3689193.2068      COMMENT
New XYZ position is based on association with SCEC monument COMMENT
E1F1B1O7+0011. Position of that monument is believed to be  COMMENT
valid to within 1 m horizontally; vertical accuracy         COMMENT
should be no worse than 3-times this value.                 COMMENT
                                                            COMMENT
Revised Rinex header created by UCSD GPS archive for        COMMENT
GSAC on 20-Apr-2005 (2005:110) 16:30:23 GMT                 COMMENT
For assistance contact dagnew@ucsd.edu                      COMMENT
or anderson@python.ucsd.edu                                 COMMENT
                                                            COMMENT
SLO 101 PM5229 1993 05LL                                    MARKER NAME
JMS US GEOLOGICAL SURVEY                                    OBSERVER / AGENCY
LP019992809 ASHTECH Z-XII3 CD00                             REC # / TYPE / VERS
CR619992805 DORNE-MARGOL. TYPE T                            ANT # / TYPE
 -2652433.0000 -4466104.0000  3689192.0000                  APPROX POSITION XYZ
        1.4521        0.0000        0.0000                  ANTENNA: DELTA H/E/N
     1     1     0                                          WAVELENGTH FACT L1/2
     5    C1    L1    L2    P1    P2                        # / TYPES OF OBSERV
    30                                                      INTERVAL
  2004     1     9     0     0   30.000000                  TIME OF FIRST OBS
  2004     1     9    23    59   30.000000                  TIME OF LAST OBS
                                                            END OF HEADER
 04  1  9  0  0 30.0000000  0  7G24G30G 5G10G21G 6G17
  22613474.016    -5536560.46249  -4293722.21647  22613473.418    22613479.191
  20215876.404   -17317261.86449 -13477433.92148  20215876.310    20215880.576
  21227093.725   -14470826.74349 -10825312.93447  21227092.779    21227097.880
  21003027.862   -17112586.56549 -13312631.96547                  21003026.687
  21003032.418    -1162623.47149   -665750.33543
  21837523.054    -9907428.67049  -7696105.69547  21837522.518    21837527.813
  20699911.561   -16210480.08949 -12594388.82948  20699910.650    20699916.426
 04  1  9  0  1  0.0000000  0  7G24G30G 5G10G21G 6G17
  22628688.083    -5456610.08849  -4231423.24747  22628687.456    22628693.304
  20215508.195   -17319197.22549 -13478941.99348  20215508.075    20215512.269
  21240808.233   -14398756.60549 -10769154.40747  21240807.275    21240812.428
  21001073.408   -17122857.25649 -13320635.08847                  21001072.170
  21001077.944    -1247130.56349   -731648.68943
  21826306.306    -9966372.95649  -7742036.28847  21826305.733    21826310.982
  20704650.434   -16185577.50949 -12574984.21848  20704649.509    20704655.238
 04  1  9  0  1 30.0000000  0  7G24G30G 5G10G21G 6G17
  22643920.335    -5376564.24649  -4169049.87447  22643919.680    22643925.624
  20215252.513   -17320541.17349 -13479989.22248  20215252.392    20215256.536
  21254602.486   -14326267.42549 -10712669.34847  21254601.515    21254606.724
  20999240.343   -17132490.03449 -13328141.14247                  20999239.099
  20999244.847    -1331452.35749   -571611.43843
  21815111.088   -10025203.47649  -7787878.23247  21815110.553    21815115.817
  20709451.252   -16160349.19849 -12555325.79248  20709450.316    20709456.030
 04  1  9  0  2  0.0000000  0  7G24G30G 5G10G21G 6G17
  22659170.186    -5296425.71249  -4106604.27847  22659169.523    22659175.546
  20215109.314   -17321294.11649 -13480575.92548  20215109.161    20215113.278
  21268475.827   -14253362.55449 -10655860.37547  21268474.851    21268480.140
  20997528.609   -17141485.45049 -13335150.54947                  20997527.344
  20997533.086    -1415588.50849   -637171.96743
  21803937.560   -10083920.17649  -7833631.48447  21803937.039    21803942.365
  20714313.649   -16134797.22249 -12535415.16148  20714312.749    20714318.416
 04  1  9  0  2 30.0000000  0  7G24G30G 5G10G21G 6G17
  22674438.010    -5216192.69749  -4044085.06547  22674437.414    22674443.432
  20215079.247   -17321452.37049 -13480699.24348  20215079.082    20215083.202
  21282428.606   -14180040.44549 -10598726.28047  21282427.592    21282432.903
  20995938.858   -17149839.64749 -13341660.30847                  20995937.605
  20995943.322    -1499535.02249   -702584.91544                  23752455.610
  21792786.590   -10142518.86849  -7879292.79047  21792786.019    21792791.264
  20719238.067   -16108919.86649 -12515250.98548  20719237.091    20719242.699
 04  1  9  0  3  0.0000000  0  7G24G30G 5G10G21G 6G17
  22689721.962    -5135875.19949  -3981500.01747  22689721.363    22689727.394
  20215160.831   -17321023.89049 -13480365.36048  20215160.626    20215164.760
  21296458.694   -14106311.60849 -10541275.25147  21296457.709    21296463.054
  20994469.634   -17157560.42849 -13347676.49647  20994468.372    20994474.064
  23736511.182    -1583300.06849   -767856.27244  23736509.037    23736514.711
  21781656.569   -10201006.75949  -7924867.75047  21781656.053    21781661.342
  20724222.490   -16082726.62649 -12494840.66448  20724221.540    20724227.083
 04  1  9  0  3 30.0000000  0  7G24G30G 5G10G21G 6G17
  22705023.112    -5055467.31649  -3918844.54047  22705022.490    22705028.543
  20215355.568   -17320000.45649 -13479567.87848  20215355.371    20215359.489
  21310567.356   -14032169.80649 -10483502.43747  21310566.372    21310571.714
  20993122.543   -17164639.54749 -13353192.68547  20993121.294    20993126.906
  23720607.252    -1666875.07449   -832979.54044  23720605.527    23720609.796
  21770549.359   -10259375.15449  -7970349.60047  21770548.853    21770554.131
  20729268.240   -16056211.18049 -12474179.27348  20729267.297    20729272.766
 04  1  9  0  4  0.0000000  0  7G24G30G 5G10G21G 6G17
  22720339.844    -4974977.42549  -3856125.15847  22720339.207    22720345.290
  20215662.202   -17318388.90449 -13478312.11948  20215662.058    20215666.160
  21324752.881   -13957624.17249 -10425414.94847  21324751.922    21324757.232
  20991896.364   -17171083.54049 -13358213.97447  20991895.053    20991900.579
  23704738.488    -1750265.76649   -897959.21645  23704737.091    23704742.165
  21759463.743   -10317630.11349  -8015743.05147  21759463.267    21759468.417
  20734373.718   -16029382.10149 -12453273.49248  20734372.732    20734378.144
 04  1  9  0  4 30.0000000  0  7G24G30G 5G10G21G 6G17
  22735673.031    -4894400.60149  -3793338.03547  22735672.402    22735678.526
  20216082.091   -17316182.45849 -13476592.80948  20216081.938    20216086.021
  21339016.024   -13882670.58049 -10367009.57547  21339015.097    21339020.322
  20990792.248   -17176885.77349 -13362735.18647  20990790.928    20990796.438
  23688906.042    -1833465.19549   -962789.86245  23688904.972    23688909.703
  21748401.221   -10375764.20049  -8061042.31747  21748400.725    21748405.785
  20739539.902   -16002233.90849 -12432119.05248  20739538.916    20739544.286
 04  1  9  0  5  0.0000000  0  7G24G30G 5G10G21G 6G17
  22751021.414    -4813744.04649  -3730488.78847  22751020.856    22751026.945
  20216614.239   -17313385.91149 -13474413.68048  20216614.089    20216618.172
  21353355.533   -13807316.27549 -10308291.96047  21353354.550    21353359.699
  20989809.225   -17182051.30349 -13366760.27147  20989807.948    20989813.484
  23673109.395    -1916478.17049  -1027475.20945  23673108.317    23673113.085
  21737360.921   -10433781.61949  -8106250.67247  21737360.388    21737365.360
  20744765.407   -15974773.49049 -12410721.32348  20744764.438    20744769.789
 04  1  9  0  5 30.0000000  0  7G24G30G 5G10G21G 6G17
  22766384.630    -4733010.53149  -3667579.56547  22766383.970    22766389.989
  20217258.459   -17310000.59249 -13471775.76848  20217258.303    20217262.382
  21367770.708   -13731563.94849 -10249264.19247  21367769.701    21367774.849
  20988947.154   -17186581.11549 -13370289.99047  20988945.935    20988951.533
  23657347.979    -1999305.59849  -1092015.98045  23657346.830    23657351.440
  21726342.773   -10491682.63649  -8151368.32547  21726342.186    21726347.125
  20750049.807   -15947003.57749 -12389082.42548  20750048.880    20750054.245
 04  1  9  0  6  0.0000000  0  7G24G30G 5G10G21G 6G17
  22781763.100    -4652196.32249  -3604607.47447  22781762.404    22781768.370
  20218015.725   -17306020.96749 -13468674.76348  20218015.599    20218019.676
  21382262.138   -13655410.77349 -10189924.08047  21382261.149    21382266.304
  20988207.201   -17190469.76749 -13373320.10347  20988206.027    20988211.611
  23641623.153    -2081940.97349  -1156407.09445  23641621.966    23641626.361
  21715347.892   -10549461.00749  -8196390.42247  21715347.328    21715352.228
  20755393.917   -15918920.29149 -12367199.34748  20755392.951    20755398.336
 04  1  9  0  6 30.0000000  0  7G24G30G 5G10G21G 6G17
  22797155.495    -4571308.55249  -3541578.05047  22797154.788    22797160.784
  20218885.096   -17301452.43749 -13465114.86548  20218884.987    20218889.070
  21396828.333   -13578864.40849 -10130277.57947  21396827.365    21396832.524
  20987588.305   -17193722.55249 -13375854.72747  20987587.086    20987592.649
  23625933.792    -2164389.59849  -1220652.68945  23625932.388    23625936.734
  21704375.497   -10607121.29149  -8241320.48847  21704374.944    21704379.785
  20760796.274   -15890530.43349 -12345077.36948  20760795.350    20760800.754
 04  1  9  0  7  0.0000000  0  7G24G30G 5G10G21G 6G17
  22812563.116    -4490340.83449  -3478486.34046  22812562.461    22812568.375
  20219868.110   -17296286.72149 -13461089.63248  20219868.017    20219872.070
  21411470.488   -13501919.09249 -10070320.21847  21411469.538    21411474.697
  20987091.906   -17196331.23549 -13377887.45847  20987090.669    20987096.225
  23610281.650    -2246642.59049  -1284745.84745  23610280.173    23610284.333
  21693427.399   -10664654.34949  -8286151.42847  21693426.813    21693431.460
  20766258.189   -15861827.68949 -12322711.59948  20766257.279    20766262.690
 04  1  9  0  7 30.0000000  0  7G24G30G 5G10G21G 6G17
  22827984.491    -4409301.25649  -3415338.62946  22827983.856    22827989.640
  20220963.555   -17290530.20249 -13456604.02848  20220963.448    20220967.502
  21426186.854   -13424583.41749 -10010058.66847  21426185.990    21426191.161
  20986716.836   -17198302.10549 -13379423.18147  20986715.599    20986721.165
  23594665.483    -2328706.19949  -1348691.43445  23594664.014    23594667.877
  21682502.465   -10722065.79249  -8330887.59247  21682501.846    21682506.367
  20771778.151   -15832819.75949 -12300108.00848  20771777.288    20771782.677
 04  1  9  0  8  0.0000000  0  7G24G30G 5G10G21G 6G17
  22843419.206    -4328191.51149  -3352136.23446  22843418.600    22843424.261
  20222171.416   -17284182.90749 -13451658.08748  20222171.302    20222175.310
  21440977.289   -13346859.08249  -9949494.27947  21440976.431    21440981.603
  20986463.098   -17199635.13049 -13380461.89247  20986461.885    20986467.478
  23579085.604    -2410579.61849  -1412488.82945  23579084.130    23579087.762
  21671600.768   -10779354.76849  -8375528.33247  21671600.094    21671604.570
  20777355.941   -15803508.08249 -12277267.74748  20777355.116    20777360.503
 04  1  9  0  8 30.0000000  0  7G24G30G 5G10G21G 6G17
  22858867.337    -4247011.36949  -3288878.97746  22858866.716    22858872.227
  20223492.028   -17277243.18549 -13446250.50948  20223491.928    20223495.906
  21455841.619   -13268746.77749  -9888627.56947  21455840.731    21455845.905
  20986331.053   -17200328.50649 -13381002.16947  20986329.866    20986335.489
  23563542.232    -2492260.41649  -1476136.11045  23563540.820    23563544.316
  21660722.774   -10836518.48149  -8420071.45847  21660722.164    21660726.665
  20782991.652   -15773892.50249 -12254190.66748  20782990.765    20782996.134
 04  1  9  0  9  0.0000000  0  7G24G30G 5G10G21G 6G17
  22874328.886    -4165760.66249  -3225566.74646  22874328.192    22874333.708
  20224925.766   -17269709.02749 -13440379.73548  20224925.645    20224929.604
  21470779.692   -13190246.95949  -9827458.91147  21470778.799    21470783.994
  20986321.150   -17200380.31249 -13381042.52347  20986319.963    20986325.646
  23548036.009    -2573746.54749  -1539631.71945  23548034.555    23548037.703
  21649869.309   -10893553.88049  -8464514.61247  21649868.708    21649873.164
  20788685.133   -15743972.77749 -12230876.59348  20788684.253    20788689.612
 04  1  9  0  9 30.0000000  0  7G24G30G 5G10G21G 6G17
  22889802.962    -4084443.61449  -3162202.82946  22889802.250    22889807.872
  20226472.107   -17261583.02749 -13434047.79348  20226471.975    20226475.943
  21485790.589   -13111364.28049  -9765991.91047  21485789.747    21485794.931
  20986432.796   -17199793.34049 -13380585.13147  20986431.656    20986437.340
  23532566.441    -2655039.99349  -1602977.20545  23532564.845    23532567.751
  21639039.837   -10950462.73249  -8508859.14947  21639039.275    21639043.810
  20794435.856   -15713752.50549 -12207328.33148  20794434.992    20794440.326
 04  1  9  0 10  0.0000000  0  7G24G30G 5G10G21G 6G17
  22905289.694    -4003059.93949  -3098786.98146  22905289.018    22905294.747
  20228131.339   -17252863.57149 -13427253.40948  20228131.216    20228135.186
  21500874.282   -13032099.64449  -9704227.27647  21500873.395    21500878.586
  20986666.381   -17198565.84349 -13379628.62147  20986665.234    20986670.910
  23517133.668    -2736138.63549  -1666170.89745  23517131.920    23517134.875
  21628235.035   -11007242.08749  -8553102.78347  21628234.455    21628239.055
  20800243.835   -15683231.79549 -12183545.95248  20800242.921    20800248.204
 04  1  9  0 10 30.0000000  0  7G24G30G 5G10G21G 6G17
  22920788.687    -3921611.54949  -3035320.72046  22920788.059    22920793.907
  20229903.444   -17243550.99549 -13419996.86048  20229903.319    20229907.297
  21516030.233   -12952455.18749  -9642166.67347  21516029.293    21516034.477
  20987021.825   -17196698.21949 -13378173.31247  20987020.648    20987026.312
  23501738.166    -2817041.53849  -1729212.04645  23501736.458    23501739.215
  21617454.880   -11063891.55049  -8597245.20547  21617454.348    21617459.022
  20806108.602   -15652412.33549 -12159530.79148  20806107.701    20806113.024
 04  1  9  0 11  0.0000000  0  7G24G30G 5G10G21G 6G17
  22936299.896    -3840099.78649  -2971805.07646  22936299.250    22936305.132
  20231788.426   -17233645.17749 -13412278.04248  20231788.334    20231792.334
  21531257.997   -12872432.79749  -9579811.58247  21531257.081    21531262.287
  20987499.091   -17194190.19849 -13376218.99747  20987497.908    20987503.536
  23486379.688    -2897748.36549  -1792100.43845  23486378.308    23486380.821
  21606699.763   -11120409.74349  -8641285.34047  21606699.274    21606703.951
  20812029.941   -15621295.50149 -12135283.90648  20812029.032    20812034.343
 04  1  9  0 11 30.0000000  0  7G24G30G 5G10G21G 6G17
  22951822.865    -3758525.76949  -2908240.92546  22951822.224    22951828.218
  20233786.418   -17223145.57349 -13404096.53648  20233786.321    20233790.372
  21546557.328   -12792034.17249  -9517163.32847  21546556.449    21546561.694
  20988098.254   -17191041.41949 -13373765.39447  20988097.063    20988102.712
  23471058.693    -2978257.99649  -1854835.15445  23471057.645    23471060.031
  21595969.994   -11176795.06849  -8685221.93747  21595969.501    21595974.091
  20818007.660   -15589881.93849 -12110805.80448  20818006.784    20818012.109
 04  1  9  0 12  0.0000000  0  7G24G30G 5G10G21G 6G17
  22967356.637    -3676894.39049  -2844632.05546  22967356.050    22967362.178
  20235896.719   -17212055.61249 -13395455.00748  20235896.640    20235900.765
  21561927.211   -12711264.71749  -9454226.10547  21561926.329    21561931.659
  20988818.695   -17187255.10649 -13370815.00647  20988817.534    20988823.183
  23455774.783    -3058573.25149  -1917418.39445  23455773.986    23455776.495
  21585265.158   -11233049.61749  -8729056.63247  21585264.612    21585269.106
  20824040.985   -15558176.45649 -12086100.22948  20824040.117    20824045.484
 04  1  9  0 12 30.0000000  0  7G24G30G 5G10G21G 6G17
  22982901.787    -3595203.70049  -2780977.00446  22982901.179    22982907.456
  20238119.986   -17200372.19549 -13386351.05848  20238119.901    20238124.081
  21577367.724   -12630123.55749  -9390999.25747  21577366.910    21577372.326
  20989661.060   -17182828.34449 -13367365.57847  20989659.911    20989665.561
  23440528.913    -3138690.24249  -1979847.15245  23440528.159    23440530.873
  21574585.923   -11289169.08049  -8772786.07747  21574585.375    21574589.861
  20830130.230   -15526177.19349 -12061165.74548  20830129.361    20830134.758
 04  1  9  0 13  0.0000000  0  7G24G30G 5G10G21G 6G17
  22998457.950    -3513455.28249  -2717276.95846  22998457.300    22998463.771
  20240456.170   -17188095.55849 -13376784.84748  20240456.054    20240460.273
  21592878.588   -12548613.16949  -9327484.69147  21592877.742    21592883.283
  20990625.300   -17177761.29049 -13363417.21647  20990624.173    20990629.705
  23425321.160    -3218608.27049  -2042120.87645  23425320.258    23425323.285
  21563932.659   -11345152.43449  -8816409.45747  21563932.071    21563936.540
  20836275.094   -15493885.55649 -12036003.42148  20836274.238    20836279.620
 04  1  9  0 13 30.0000000  0  7G24G30G 5G10G21G 6G17
  23014024.192    -3431653.07249  -2653535.00146  23014023.663    23014030.234
  20242904.743   -17175228.09449 -13366758.25648  20242904.619    20242908.870
  21608458.814   -12466737.80749  -9263685.73747  21608458.046    21608463.689
  20991710.993   -17172056.32849 -13358971.78347  20991709.842    20991715.295
  23410150.804    -3298329.54349  -2104241.28145  23410149.840    23410153.048
  21553304.943   -11401001.03149  -8859927.83647  21553304.398    21553308.949
  20842474.777   -15461305.67449 -12010616.50148  20842473.936    20842479.325
 04  1  9  0 14  0.0000000  0  7G24G30G 5G10G21G 6G17
  23029600.452    -3349799.18849  -2589752.77946  23029599.929    23029606.480
  20245465.546   -17161771.07449 -13356272.27848  20245465.416    20245469.668
  21624108.041   -12384500.49349  -9199604.73847  21624107.242    21624112.937
  20992917.768   -17165714.85849 -13354030.37547  20992916.636    20992921.977
  23395017.891    -3377853.99449  -2166208.34045  23395016.937    23395020.208
  21542703.106   -11456714.44749  -8903340.88747  21542702.547    21542707.113
  20848729.053   -15428439.70649 -11985006.65648  20848728.186    20848733.549
 04  1  9  0 14 30.0000000  0  7G24G30G 5G10G21G 6G17
  23045186.702    -3267893.25549  -2525929.99546  23045186.130    23045192.622
  20248138.890   -17147722.76149 -13345325.54548  20248138.755    20248143.003
  21639826.088   -12301902.03149  -9135242.32347  21639825.221    21639830.911
  20994245.944   -17158735.30149 -13348591.74847  20994244.797    20994250.100
  23379922.848    -3457179.52049  -2228020.36445  23379921.867    23379925.162
  21532127.504   -11512289.85649  -8946646.38847  21532126.969    21532131.512
  20855037.813   -15395287.20449 -11959173.53148  20855036.858    20855042.302
 04  1  9  0 15  0.0000000  0  7G24G30G 5G10G21G 6G17
  23060782.794    -3185934.92349  -2462066.38646  23060782.243    23060788.738
  20250925.032   -17133081.49749 -13333916.77648  20250924.886    20250929.160
  21655612.778   -12218942.58449  -9070598.61547  21655611.922    21655617.575
  20995695.833   -17151116.04749 -13342654.66147  20995694.673    20995700.002
  23364866.117    -3536303.47149  -2289675.33445  23364865.100    23364868.573
  21521578.730   -11567724.26549  -8989842.01647  21521578.162    21521582.699
  20861401.033   -15361847.68249 -11933116.76148  20861400.143    20861405.623
 04  1  9  0 15 30.0000000  0  7G24G30G 5G10G21G 6G17
  23076388.095    -3103928.21449  -2398165.07946  23076387.530    23076394.079
  20253823.484   -17117850.03049 -13322048.10348  20253823.310    20253827.612
  21671467.415   -12135626.64649  -9005677.11747  21671466.545    21671472.154
  20997266.877   -17142859.91449 -13336221.30447  20997265.736    20997271.132
  23349847.279    -3615227.85749  -2351174.78545  23349846.228    23349849.842
  21511056.478   -11623018.88049  -9032928.70947  21511055.926    21511060.490
  20867818.232   -15328124.84949 -11906839.22348  20867817.361    20867822.875
 04  1  9  0 16  0.0000000  0  7G24G30G 5G10G21G 6G17
  23092002.306    -3021875.03649  -2334227.55146  23092001.730    23092008.293
  20256834.024   -17102029.28449 -13309720.25448  20256833.876    20256838.206
  21687389.278   -12051957.50249  -8940480.39747  21687388.353    21687393.904
  20998959.032   -17133967.58449 -13329292.21047  20998957.884    20998963.277
  23334866.197    -3693952.83549  -2412518.86145  23334865.359    23334869.193
  21500560.931   -11678173.08649  -9075905.99947  21500560.382    21500564.976
  20874288.881   -15294121.01949 -11880342.73048  20874288.021    20874293.638
 04  1  9  0 16 30.0000000  0  7G24G30G 5G10G21G 6G17
  23107625.630    -2939773.76249  -2270252.55646  23107625.064    23107631.585
  20259957.229   -17085616.63749 -13296931.18548  20259957.084    20259961.420
  21703378.478   -11967934.34649  -8875007.82247  21703377.544    21703383.049
  21000772.730   -17124436.64049 -13321865.50347  21000771.548    21000776.941
  23319923.907    -3772475.24049  -2473705.09545  23319922.984    23319927.054
  21490092.875   -11733183.03949  -9118770.88347  21490092.339    21490096.987
  20880813.300   -15259834.66149 -11853626.09448  20880812.484    20880818.125
 04  1  9  0 17  0.0000000  0  7G24G30G 5G10G21G 6G17
  23123257.646    -2857627.34249  -2206242.38146  23123257.062    23123263.492
  20263192.687   -17068614.19049 -13283682.53248  20263192.534    20263196.878
  21719434.267   -11883561.17549  -8809262.50847  21719433.309    21719438.812
  21002707.554   -17114269.31249 -13313942.90147  21002706.339    21002711.683
  23305019.670    -3850795.97749  -2534734.16445  23305018.932    23305023.171
  21479652.131   -11788049.19549  -9161523.71147  21479651.627    21479656.347
  20887390.985   -15225268.86649 -11826691.70548  20887390.151    20887395.764
 04  1  9  0 17 30.0000000  0  7G24G30G 5G10G21G 6G17
  23138897.929    -2775436.65849  -2142197.70846  23138897.424    23138903.788
  20266540.475   -17051021.56149 -13269973.99848  20266540.336    20266544.654
  21735556.309   -11798839.73549  -8743245.82047  21735555.328    21735560.852
  21004763.548   -17103465.10649 -13305524.03047  21004762.356    21004767.641
  23290154.168    -3928913.78249  -2595605.12345  23290153.553    23290157.834
  21469239.208   -11842769.55549  -9204162.94147  21469238.695    21469243.474
  20894021.689   -15190424.31349 -11799540.10948  20894020.830    20894026.475
 04  1  9  0 18  0.0000000  0  7G24G30G 5G10G21G 6G17
  23154545.772    -2693206.83249  -2078122.53346  23154545.272    23154551.561
  20269999.810   -17032842.75949 -13255808.69348  20269999.651    20270003.955
  21751743.463   -11713775.68749  -8676962.16347  21751742.482    21751748.064
  21006939.860   -17092028.11449 -13296612.07847  21006938.679    21006944.005
  23275326.686    -4006831.96049  -2656320.51745  23275326.067    23275330.454
  21458853.507   -11897346.70149  -9246690.56747  21458852.965    21458857.774
  20900704.555   -15155306.13749 -11772175.28948  20900703.664    20900709.260
 04  1  9  0 18 30.0000000  0  7G24G30G 5G10G21G 6G17
  23170202.188    -2610931.76549  -2014012.10646  23170201.713    23170207.996
  20273572.060   -17014070.43449 -13241180.91648  20273571.898    20273576.205
  21767996.838   -11628363.70049  -8610407.38747  21767995.890    21768001.461
  21009237.996   -17079951.09149 -13287201.40647  21009236.828    21009242.210
  23260538.804    -4084542.02349  -2716873.73545  23260538.215    23260542.735
  21448496.769   -11951771.56149  -9289099.53047  21448496.245    21448501.085
  20907440.614   -15119907.99849 -11744592.32948  20907439.711    20907445.290
 04  1  9  0 19  0.0000000  0  7G24G30G 5G10G21G 6G17
  23185865.815    -2528619.34849  -1949872.58046  23185865.220    23185871.550
  20277255.815   -16994711.98949 -13226096.42048  20277255.688    20277259.997
  21784314.748   -11542612.84049  -8543588.56747  21784313.763    21784319.310
  21011656.445   -17067241.44549 -13277297.78947  21011655.314    21011660.798
  23245789.472    -4162050.65749  -2777269.98545  23245788.666    23245793.308
  21438167.915   -12006049.87449  -9331394.30447  21438167.376    21438172.224
  20914228.367   -15084238.19249 -11716797.67548  20914227.472    20914233.011
 04  1  9  0 19 30.0000000  0  7G24G30G 5G10G21G 6G17
  23201536.444    -2446269.68449  -1885704.01746  23201535.851    23201542.304
  20281051.340   -16974766.62549 -13210554.59248  20281051.180    20281055.475
  21800696.787   -11456524.21649  -8476506.54747  21800695.823    21800701.428
  21014195.402   -17053898.75949 -13266900.89447  21014194.286    21014199.830
  23231078.602    -4239355.92649  -2837507.81945  23231077.819    23231082.580
  21427867.364   -12060179.30649  -9373573.06947  21427866.856    21427871.703
  20921067.805   -15048296.85849 -11688791.44948  20921066.867    20921072.473
 04  1  9  0 20  0.0000000  0  7G24G30G 5G10G21G 6G17
  23217214.059    -2363883.07049  -1821506.66546  23217213.408    23217220.072
  20284958.545   -16954233.93349 -13194555.09748  20284958.396    20284962.693
  21817142.817   -11370099.45249  -8409162.60447  21817141.817    21817147.460
  21016854.950   -17039922.65349 -13256010.42147  21016853.845    21016859.425
  23216406.761    -4316456.81649  -2897586.35345  23216405.877    23216410.759
  21417595.550   -12114157.78849  -9415634.20447  21417595.028    21417599.862
  20927958.724   -15012084.51349 -11660574.04048  20927957.826    20927963.463
 04  1  9  0 20 30.0000000  0  7G24G30G 5G10G21G 6G17
  23232898.305    -2281460.78749  -1757281.51646  23232897.770    23232904.584
  20288977.484   -16933113.98649 -13178098.00348  20288977.353    20288981.708
  21833652.452   -11283340.45649  -8341558.21747  21833651.468    21833657.156
  21019635.132   -17025313.23749 -13244626.45547  21019633.980    21019639.512
  23201773.904    -4393352.23749  -2957504.82745  23201773.077    23201777.921
  21407352.784   -12167983.71549  -9457576.46947  21407352.209    21407357.073
  20934901.004   -14975602.56049 -11632146.54648  20934900.100    20934905.719
 04  1  9  0 21  0.0000000  0  7G24G30G 5G10G21G 6G17
  23248589.293    -2199003.61449  -1693029.17446  23248588.767    23248595.678
  20293108.103   -16911407.04449 -13161183.50548  20293108.004    20293112.381
  21850225.314   -11196249.00849  -8273694.76647  21850224.354    21850230.086
  21022535.771   -17010070.77949 -13232749.20447  21022534.552    21022540.022
  23187180.526    -4470041.55049  -3017262.65845  23187179.589    23187184.306
  21397139.270   -12221655.30749  -9499398.46947  21397138.749    21397143.704
  20941894.474   -14938851.66449 -11603509.48748  20941893.599    20941899.187
 04  1  9  0 21 30.0000000  0  7G24G30G 5G10G21G 6G17
  23264286.229    -2116515.08449  -1628752.40946  23264285.720    23264292.759
  20297350.004   -16889115.53449 -13143813.50448  20297349.897    20297354.286
  21866860.494   -11108829.79049  -8205575.91047  21866859.658    21866865.460
  21025556.275   -16994197.51849 -13220380.43047  21025555.061    21025560.620
  23172626.197    -4546526.02749  -3076860.89545  23172624.995    23172629.643
  21386955.010   -12275173.41149  -9541100.87347  21386954.520    21386959.516
  20948938.508   -14901835.31949 -11574665.58548  20948937.602    20948943.188
 04  1  9  0 22  0.0000000  0  7G24G30G 5G10G21G 6G17
  23279989.204    -2033995.26749  -1564451.25346  23279988.659    23279995.822
  20301703.190   -16866239.15949 -13125987.76248  20301703.093    20301707.511
  21883557.962   -11021084.40249  -8137202.90947  21883557.029    21883562.886
  21028696.716   -16977693.61649 -13207520.24547  21028695.577    21028701.194
  23158110.690    -4622804.51949  -3136298.62445  23158109.514    23158114.199
  21376800.444   -12328535.68649  -9582681.85447  21376799.969    21376804.996
  20956032.919   -14864553.94049 -11545615.16448  20956032.041    20956037.603
 04  1  9  0 22 30.0000000  0  7G24G30G 5G10G21G 6G17
  23295697.744    -1951446.80449  -1500127.78346  23295697.144    23295704.383
  20306167.341   -16842779.82949 -13107707.76748  20306167.213    20306171.658
  21900316.729   -10933016.16849  -8068578.32447  21900315.897    21900321.812
  21031956.868   -16960561.01749 -13194170.16547  21031955.730    21031961.399
  23143634.142    -4698877.94449  -3195576.58145  23143633.106    23143637.893
  21366675.565   -12381742.33349  -9624141.56247  21366675.069    21366680.081
  20963177.275   -14827010.37649 -11516360.43948  20963176.375    20963181.894
 04  1  9  0 23  0.0000000  0  7G24G30G 5G10G21G 6G17
  23311412.350    -1868865.70649  -1435778.89346  23311411.745    23311419.074
  20310743.282   -16818732.94149 -13088969.93648  20310743.155    20310747.636
  21917137.714   -10844622.04149  -7999699.80247  21917136.792    21917142.730
  21035337.683   -16942794.98149 -13180326.49047  21035336.520    21035342.168
  23129197.813    -4774740.11149  -3254689.91245  23129196.920    23129201.750
  21356581.504   -12434786.79849  -9665474.89447  21356581.007    21356585.966
  20970372.164   -14789200.83349 -11486898.46048  20970371.294    20970376.780
 04  1  9  0 23 30.0000000  0  7G24G30G 5G10G21G 6G17
  23327131.955    -1786259.67249  -1371410.56346  23327131.273    23327138.553
  20315429.711   -16794105.31049 -13069779.58448  20315429.611    20315434.075
  21934019.011   -10755911.17149  -7930574.47547  21934018.005    21934023.934
  21038837.635   -16924402.81749 -13165994.93247  21038836.447    21038842.063
  23114800.650    -4850397.24949  -3313643.47646  23114799.797    23114804.659
  21346517.357   -12487674.15149  -9706685.80347  21346516.864    21346521.767
  20977616.287   -14751132.87749 -11457235.12648  20977615.399    20977620.859
 04  1  9  0 24  0.0000000  0  7G24G30G 5G10G21G 6G17
  23342856.075    -1703628.93849  -1307022.99246  23342855.368    23342862.746
  20320226.707   -16768896.75949 -13050136.56048  20320226.580    20320231.105
  21950960.122   -10666884.74749  -7861203.25047  21950959.217    21950965.188
  21042456.745   -16905384.22349 -13151175.24447  21042455.541    21042461.183
  23100442.899    -4925847.53049  -3372435.86046  23100441.997    23100446.907
  21336483.515   -12540402.01149  -9747772.42847  21336483.040    21336487.964
  20984909.514   -14712806.88749 -11427370.71948  20984908.610    20984914.044
 04  1  9  0 24 30.0000000  0  7G24G30G 5G10G21G 6G17
  23358585.224    -1620970.96449  -1242614.21046  23358584.558    23358592.074
  20325134.795   -16743104.06049 -13030038.35648  20325134.722    20325139.310
  21967961.661   -10577541.21749  -7791584.92947  21967960.717    21967966.744
  21046195.671   -16885736.06449 -13135864.99047  21046194.453    21046200.113
  23086125.555    -5001087.13149  -3431064.06446  23086124.359    23086129.205
  21326480.922   -12592965.30449  -9788730.82947  21326480.505    21326485.497
  20992252.242   -14674220.42849 -11397303.35348  20992251.337    20992256.787
 04  1  9  0 25  0.0000000  0  7G24G30G 5G10G21G 6G17
  23374318.448    -1538291.93249  -1178188.99746  23374317.757    23374325.491
  20330152.982   -16716733.02149 -13009489.50048  20330152.928    20330157.521
  21985022.209   -10487887.68149  -7721725.05747  21985021.206    21985027.293
  21050053.178   -16865464.35849 -13120068.85247  21050051.982    21050057.722
  23071847.020    -5076120.49849  -3489531.57746  23071845.874    23071850.767
  21316508.982   -12645367.98249  -9829564.06947  21316508.558    21316513.586
  20999643.350   -14635380.05349 -11367038.12848  20999642.420    20999647.871
 04  1  9  0 25 30.0000000  0  7G24G30G 5G10G21G 6G17
  23390056.368    -1455589.20949  -1113745.32546  23390055.512    23390063.308
  20335281.874   -16689780.41549 -12988487.46748  20335281.807    20335286.391
  22002141.807   -10397923.16249  -7651622.84847  22002140.855    22002147.037
  21054030.044   -16844565.67949 -13103784.15947  21054028.849    21054034.583
  23057608.574    -5150943.36149  -3547835.07246  23057607.471    23057612.420
  21306568.676   -12697604.80349  -9870268.07047  21306568.190    21306573.255
  21007083.208   -14596283.23049 -11336573.06448  21007082.270    21007087.743
 04  1  9  0 26  0.0000000  0  7G24G30G 5G10G21G 6G17
  23405798.105    -1372864.98549  -1049284.91746  23405797.344    23405805.164
  20340521.210   -16662247.93849 -12967033.59348  20340521.090    20340525.617
  22019320.086   -10307650.50249  -7581280.54647  22019319.152    22019325.415
  21058125.863   -16823042.15349 -13087012.56747  21058124.703    21058130.383
  23043410.009    -5225556.21349  -3605974.89646  23043409.021    23043413.993
  21296659.941   -12749675.26949  -9910842.43847  21296659.499    21296664.593
  21014571.454   -14556932.15149 -11305909.88548  21014570.546    21014576.017
 04  1  9  0 26 30.0000000  0  7G24G30G 5G10G21G 6G17
  23421543.274    -1290123.41049   -984810.97746  23421542.583    23421550.393
  20345870.069   -16634139.68149 -12945131.06448  20345869.917    20345874.420
  22036555.987   -10217075.70949  -7510702.81847  22036554.951    22036561.241
  21062339.770   -16800897.94749 -13069757.33447  21062338.626    21062344.233
  23029250.958    -5299961.77449  -3663953.22146  23029250.032    23029255.120
  21286782.554   -12801581.40449  -9951288.76847  21286782.038    21286787.137
  21022107.090   -14517331.62249 -11275052.33848  21022106.219    21022111.735
 04  1  9  0 27  0.0000000  0  7G24G30G 5G10G21G 6G17
  23437293.177    -1207357.79249   -920318.30046  23437292.460    23437300.134
  20351329.830   -16605448.33049 -12922774.16948  20351329.688    20351334.154
  22053850.304   -10126193.26249  -7439885.34747  22053849.338    22053855.621
  21066673.220   -16778125.95749 -13052012.90847  21066672.016    21066677.599
  23015132.934    -5374151.81949  -3721763.60446  23015132.105    23015137.176
  21276938.215   -12853313.64049  -9991599.58647  21276937.713    21276942.802
  21029691.630   -14477474.80849 -11243995.07048  21029690.748    21029696.254
 04  1  9  0 27 30.0000000  0  7G24G30G 5G10G21G 6G17
  23453045.069    -1124581.63749   -855817.40446  23453044.365    23453051.846
  20356898.069   -16576186.82149 -12899972.99648  20356897.963    20356902.430
  22071200.608   -10035017.76349  -7368839.52647  22071199.586    22071205.774
  21071123.615   -16754739.14949 -13033789.41347  21071122.396    21071127.975
  23001053.779    -5448138.24549  -3779415.32446  23001052.932    23001058.048
  21267124.885   -12904883.09049 -10031783.55947  21267124.396    21267129.428
  21037322.205   -14437375.50149 -11212748.85848  21037321.316    21037326.897
 04  1  9  0 28  0.0000000  0  7G24G30G 5G10G21G 6G17
  23468801.092    -1041783.88949   -791299.69646  23468800.367    23468807.624
  20362576.919   -16546344.23749 -12876719.04548  20362576.841    20362581.282
  22088608.454    -9943539.36949  -7297557.68547  22088607.465    22088613.550
  21075693.052   -16730726.52449 -13015078.27447  21075691.852    21075697.476
  22987015.920    -5521908.21549  -3836898.37046  22987014.990    22987020.077
  21257345.062   -12956276.34649 -10071830.24147  21257344.606    21257349.582
  21045001.044   -14397023.06249 -11181305.40448  21045000.120    21045005.721
 04  1  9  0 28 30.0000000  0  7G24G30G 5G10G21G 6G17
  23484559.026     -958975.91449   -726774.00646  23484558.338    23484565.452
  20368364.233   -16515931.52349 -12853020.83748  20368364.185    20368368.609
  22106071.639    -9851770.68049  -7226049.63747  22106070.636    22106076.551
  21080379.448   -16706099.47349 -12995888.35847  21080378.238    21080383.871
  22973017.283    -5595471.77549  -3894220.58046  22973016.302    22973021.404
  21247597.182   -13007502.22349 -10111746.49347  21247596.715    21247601.649
  21052725.864   -14356428.88949 -11149673.58448  21052724.932    21052730.531
 04  1  9  0 29  0.0000000  0  7G24G30G 5G10G21G 6G17
  23500319.935     -876152.51349   -662236.29546  23500319.317    23500326.193
  20374261.112   -16484942.83749 -12828873.81948  20374261.122    20374265.551
  22123590.725    -9759707.67249  -7154312.24547  22123589.757    22123595.566
  21085183.891   -16680851.99049 -12976214.99347  21085182.692    21085188.292
  22959059.075    -5668822.44049  -3951376.91346  22959058.174    22959063.339
  21237882.661   -13058552.51649 -10151525.93047  21237882.170    21237887.123
  21060497.728   -14315587.67649 -11117849.26448  21060496.801    21060502.357
 04  1  9  0 29 30.0000000  0  7G24G30G 5G10G21G 6G17
  23516083.402     -793315.66549   -597688.09846  23516082.794    23516089.559
  20380267.269   -16453380.50549 -12804279.80348  20380267.285    20380271.683
  22141165.187    -9667354.23149  -7082348.54247  22141164.161    22141169.869
  21090105.879   -16654986.81249 -12956060.29647  21090104.714    21090110.265
  22945141.419    -5741960.30149  -4008367.40746  22945140.470    22945145.620
  21228201.496   -13109427.29349 -10191168.59447  21228201.012    21228206.026
  21068316.018   -14274502.14249 -11085834.55848  21068315.109    21068320.672
 04  1  9  0 30  0.0000000  0  7G24G30G 5G10G21G 6G17
  23531848.748     -710468.43949   -533131.82746  23531848.190    23531854.948
  20386382.043   -16421247.49149 -12779241.09848  20386382.041    20386386.397
  22158794.067    -9574714.23349  -7010161.54647  22158793.057    22158798.669
  21095144.982   -16628506.70249 -12935426.42947  21095143.756    21095149.235
  22931263.680    -5814887.36149  -4065193.66246  22931262.887    22931268.043
  21218553.504   -13160127.12149 -10230674.93747  21218553.082    21218558.182
  21076180.081   -14233175.74449 -11053632.17148  21076179.235    21076184.803
 04  1  9  0 30 30.0000000  0  7G24G30G 5G10G21G 6G17
  23547616.093     -627610.64749   -468567.32946  23547615.565    23547622.371
  20392605.608   -16388542.98849 -12753757.08548  20392605.563    20392609.912
  22176477.112    -9481788.99849  -6937752.28747  22176476.175    22176481.762
  21100301.021   -16601411.45149 -12914313.24147  21100299.816    21100305.237
  22917426.700    -5887601.25749  -4121853.79946  22917425.826    22917430.942
  21208939.529   -13210648.98349 -10270042.60947  21208939.137    21208944.231
  21084090.178   -14191608.13249 -11021241.82548  21084089.269    21084094.878
 04  1  9  0 31  0.0000000  0  7G24G30G 5G10G21G 6G17
  23563384.805     -544745.33249   -403996.96446  23563384.338    23563391.144
  20398937.318   -16355270.12749 -12727830.19148  20398937.229    20398941.578
  22194213.571    -9388583.04049  -6865124.28647  22194212.696    22194218.307
  21105573.547   -16573703.98749 -12892723.00147  21105572.376    21105577.802
  22903630.008    -5960103.83249  -4178349.26946  22903629.027    22903634.059
  21199359.391   -13260993.68249 -10309272.22647  21199358.929    21199363.952
  21092045.377   -14149802.80449 -10988666.24947  21092044.492    21092050.224
 04  1  9  0 31 30.0000000  0  7G24G30G 5G10G21G 6G17
  23579155.437     -461869.84449   -339418.67446  23579154.991    23579161.811
  20405377.773   -16321425.83949 -12701458.02948  20405377.651    20405381.959
  22212003.927    -9295094.55349  -6792276.13747  22212002.970    22212008.591
  21110963.122   -16545381.33249 -12870653.39547  21110961.945    21110967.438
  22889874.353    -6032390.61749  -4234676.58346  22889873.291    22889878.240
  21189813.965   -13311155.72549 -10348359.51547  21189813.507    21189818.479
  21100046.331   -14107757.04049 -10955903.31547  21100045.502    21100051.286
 04  1  9  0 32  0.0000000  0  7G24G30G 5G10G21G 6G17
  23594927.486     -378987.47849   -274835.03546  23594926.982    23594933.827
  20411926.294   -16287013.65149 -12674643.35748  20411926.158    20411930.398
  22229846.860    -9201328.74549  -6719211.90547  22229846.018    22229851.661
  21116469.099   -16516447.37249 -12848107.46247  21116467.903    21116473.390
  22876159.003    -6104464.15349  -4290837.76546  22876158.075    22876163.006
  21180302.995   -13361136.13849 -10387305.28947  21180302.582    21180307.544
  21108092.462   -14065474.74249 -10922956.08347  21108091.572    21108097.365
 04  1  9  0 32 30.0000000  0  7G24G30G 5G10G21G 6G17
  23610700.986     -296097.28849   -210245.28846  23610700.472    23610707.329
  20418582.966   -16252032.83649 -12647385.59148  20418582.809    20418587.028
  22247742.549    -9107286.22049  -6645932.04947  22247741.709    22247747.348
  21122091.475   -16486901.49549 -12825084.70447  21122090.271    21122095.800
  22862484.638    -6176322.31249  -4346831.09446  22862483.822    22862488.781
  21170827.298   -13410931.64049 -10426106.96347  21170826.832    21170831.806
  21116183.651   -14022955.23649 -10889824.00547  21116182.741    21116188.587
 04  1  9  0 33  0.0000000  0  7G24G30G 5G10G21G 6G17
  23626474.763     -213205.62549   -145654.39246  23626474.262    23626481.115
  20425346.652   -16216489.55649 -12619689.53048  20425346.497    20425350.674
  22265689.561    -9012974.17649  -6572442.17847  22265688.645    22265694.316
  21127829.160   -16456749.77349 -12801589.84647  21127827.919    21127833.509
  22848850.577    -6247969.02249  -4402659.65846  22848849.811    22848854.855
  21161386.015   -13460545.91249 -10464767.41447  21161385.577    21161390.497
  21124318.763   -13980205.02049 -10856512.14747  21124317.829    21124323.718
 04  1  9  0 33 30.0000000  0  7G24G30G 5G10G21G 6G17
  23642249.655     -130307.98749    -81058.83946  23642249.142    23642256.007
  20432218.234   -16180379.32149 -12591551.68948  20432218.070    20432222.259
  22283688.221    -8918389.70549  -6498740.02447  22283687.365    22283693.174
  21133682.872   -16425987.98449 -12777619.61447  21133681.667    21133687.253
  22835257.874    -6319399.08249  -4458319.40046  22835256.990    22835262.080
  21151980.560   -13509972.16149 -10503281.35747  21151980.129    21151984.968
  21132498.497   -13937220.09049 -10823017.40147  21132497.616    21132503.467
 04  1  9  0 34  0.0000000  0  7G24G30G 5G10G21G 6G17
  23658024.345      -47411.42449    -16464.11446  23658023.871    23658030.560
  20439196.302   -16143709.31849 -12562977.67048  20439196.169    20439200.316
  22301737.045    -8823541.57949  -6424832.43047  22301736.220    22301742.202
  21139651.340   -16394623.56749 -12753179.80347  21139650.115    21139655.702
  22821705.455    -6390618.28949  -4513814.84146  22821704.483    22821709.453
  21142610.113   -13559214.92249 -10541652.32248  21142609.636    21142614.381
  21140721.621   -13894007.45149 -10789345.20847  21140720.754    21140726.554
 04  1  9  0 34 30.0000000  0  7G24G30G 5G10G21G 6G17
  23673799.669       35488.22349     48133.01446  23673799.190    23673805.732
  20446281.767   -16106475.20149 -12533964.08548  20446281.644    20446285.727
  22319836.704    -8728426.63249  -6350716.92047  22319835.850    22319841.996
  21145735.217   -16362652.37249 -12728267.17847  21145733.983    21145739.558
  22808194.099    -6461620.23949  -4569141.00146  22808193.217    22808198.072
  21133275.823   -13608267.49349 -10579875.09048  21133275.308    21133279.976
  21148988.717   -13850563.44449 -10755492.74647  21148987.880    21148993.694
 04  1  9  0 35  0.0000000  0  7G24G30G 5G10G21G 6G17
  23689575.155      118388.81849    112730.85846  23689574.689    23689581.220
  20453474.128   -16068679.58549 -12504512.96448  20453473.964    20453477.977
  22337986.432    -8633048.67849  -6276396.47846  22337985.594    22337991.852
  21151933.957   -16330077.02749 -12702883.79547  21151932.782    21151938.424
  22794723.698    -6532406.35649  -4624298.96346  22794722.992    22794727.774
  21123977.712   -13657129.66949 -10617949.49948  21123977.155    21123981.803
  21157299.482   -13806890.60849 -10721461.96847  21157298.577    21157304.339
 04  1  9  0 35 30.0000000  0  7G24G30G 5G10G21G 6G17
  23705350.321      201287.14349    177326.94946  23705349.797    23705356.220
  20460772.589   -16030326.16149 -12474627.18948  20460772.422    20460776.417
  22356185.282    -8537412.67749  -6201874.94846  22356184.466    22356190.749
  21158246.991   -16296901.36749 -12677032.63047  21158245.831    21158251.501
  22781294.115    -6602978.71249  -4679290.36646  22781293.568    22781298.120
  21114715.562   -13705802.57249 -10655876.41748  21114714.987    21114719.642
  21165653.102   -13762992.65049 -10687255.76947  21165652.144    21165657.902
 04  1  9  0 36  0.0000000  0  7G24G30G 5G10G21G 6G17
  23721125.524      284186.15549    241923.57246  23721124.997    23721131.252
  20468177.781   -15991411.56049 -12444304.13348  20468177.645    20468181.692
  22374433.570    -8441516.90449  -6127151.00746  22374432.812    22374439.080
  21164674.900   -16263122.20449 -12650711.20347  21164673.771    21164679.500
  22767906.355    -6673332.77249  -4734111.66446  22767905.707    22767910.109
  21105490.453   -13754280.25949 -10693651.22548  21105489.924    21105494.624
  21174050.004   -13718866.57949 -10652871.82247  21174049.071    21174054.831
 04  1  9  0 36 30.0000000  0  7G24G30G 5G10G21G 6G17
  23736899.430      367078.46049    306514.98246  23736898.926    23736904.894
  20475688.279   -15951943.73249 -12413549.98648  20475688.136    20475692.178
  22392729.702    -8345370.13049  -6052231.47046  22392728.946    22392735.198
  21171216.153   -16228747.61449 -12623925.80347  21171215.023    21171220.778
  22754558.929    -6743474.87449  -4788767.79246  22754558.028    22754562.380
  21096301.637   -13802567.65249 -10731277.74448  21096301.125    21096305.873
  21182488.846   -13674520.25749 -10618316.24447  21182487.919    21182493.670
 04  1  9  0 37  0.0000000  0  7G24G30G 5G10G21G 6G17
  23752672.576      449966.58949    371103.11846  23752672.027    23752677.910
  20483304.477   -15911920.31649 -12382362.92648  20483304.344    20483308.434
  22411073.720    -8248971.71849  -5977115.85946  22411072.987    22411079.099
  21177871.075   -16193775.62249 -12596674.90547  21177869.966    21177875.734
  22741252.426    -6813401.13949  -4843255.73946  22741251.439    22741255.830
  21087150.001   -13850660.05749 -10768752.33248  21087149.460    21087154.241
  21190969.987   -13629951.48349 -10583587.33747  21190969.117    21190974.835
 04  1  9  0 37 30.0000000  0  7G24G30G 5G10G21G 6G17
  23768444.362      532848.09349    435686.10146  23768443.879    23768449.619
  20491025.778   -15871344.29149 -12350745.25148  20491025.678    20491029.823
  22429465.033    -8152325.22349  -5901806.92246  22429464.245    22429470.220
  21184639.116   -16158209.29349 -12568960.88347  21184638.040    21184643.795
  22727986.922    -6883112.39649  -4897576.16946  22727985.873    22727990.245
  21078035.394   -13898557.35549 -10806074.88148  21078034.860    21078039.716
  21199492.989   -13585163.14249 -10548687.33347  21199492.027    21199497.784
 04  1  9  0 38  0.0000000  0  7G24G30G 5G10G21G 6G17
  23784215.705      615727.40349    500267.38445  23784215.171    23784221.051
  20498853.042   -15830211.62549 -12318693.83448  20498852.949    20498857.109
  22447903.920    -8055428.31249  -5826302.85746  22447903.140    22447909.020
  21191521.046   -16122044.78049 -12540780.74147  21191519.886    21191525.702
  22714763.086    -6952603.47649  -4951725.01446  22714762.177    22714766.448
  21068959.125   -13946252.93449 -10843240.24948  21068958.664    21068963.596
  21208058.425   -13540151.23549 -10513613.11647  21208057.517    21208063.294
 04  1  9  0 38 30.0000000  0  7G24G30G 5G10G21G 6G17
  23799985.498      698599.24849    564842.81445  23799985.023    23799991.217
  20506785.200   -15788527.86749 -12286212.99648  20506785.108    20506789.292
  22466389.207    -7958287.52749  -5750608.75746  22466388.503    22466394.272
  21198515.638   -16085287.51849 -12512138.71947  21198514.504    21198520.389
  22701580.432    -7021878.50949  -5005705.53746  22701579.593    22701583.828
  21059920.772   -13993749.51349 -10880250.55548  21059920.301    21059925.290
  21216665.327   -13494921.45849 -10478369.13947  21216664.419    21216670.223
 04  1  9  0 39  0.0000000  0  7G24G30G 5G10G21G 6G17
  23815753.772      781462.86249    629411.85545  23815753.287    23815759.597
  20514822.091   -15746293.91849 -12253303.42448  20514821.964    20514826.144
  22484920.424    -7860905.02349  -5674726.30246  22484919.784    22484925.529
  21205622.811   -16047938.73149 -12483035.76447  21205621.694    21205627.677
  22688439.168    -7090936.20649  -5059516.68346  22688438.371    22688442.531
  21050920.614   -14041045.27349 -10917104.37148  21050920.161    21050925.172
  21225313.635   -13449474.48849 -10442955.90847  21225312.742    21225318.487
 04  1  9  0 39 30.0000000  0  7G24G30G 5G10G21G 6G17
  23831519.807      864314.31349    693971.44045  23831519.393    23831525.634
  20522962.853   -15703514.13449 -12219968.54548  20522962.679    20522966.888
  22503496.670    -7763286.39249  -5598659.86446  22503495.984    22503501.690
  21212841.633   -16010002.99449 -12453475.45047  21212840.586    21212846.593
  22675338.748    -7159779.84249  -5113161.03846  22675337.810    22675341.895
  21041958.494   -14088141.69849 -10953802.86248  21041958.046    21041963.022
  21234002.405   -13403814.75949 -10407376.89647  21234001.507    21234007.151
 04  1  9  0 40  0.0000000  0  7G24G30G 5G10G21G 6G17
  23847284.320      947158.68149    758525.48145  23847283.969    23847290.324
  20531208.296   -15660184.01449 -12186204.82148  20531208.140    20531212.345
  22522118.443    -7665428.23749  -5522406.78746  22522117.722    22522123.498
  21220173.186   -15971475.83249 -12423454.27947  21220172.081    21220178.059
  22662280.354    -7228402.82249  -5166633.44646  22662279.230    22662283.266
  21033035.736   -14135031.26749 -10990340.17548  21033035.223    21033040.247
  21242732.646   -13357937.57349 -10371628.44047  21242731.703    21242737.213
 04  1  9  0 40 30.0000000  0  7G24G30G 5G10G21G 6G17
  23863046.816     1029991.46549    823070.50245  23863046.527    23863052.878
  20539557.552   -15616308.44649 -12152016.08448  20539557.380    20539561.598
  22540784.638    -7567336.67649  -5445971.84346  22540783.920    22540789.787
  21227616.211   -15932362.52349 -12392976.38047  21227615.148    21227621.130
  22649263.205    -7296808.75049  -5219936.75546  22649262.042    22649265.969
  21024151.868   -14181716.07349 -11026717.93348  21024151.373    21024156.456
  21251503.246   -13311847.89349 -10335714.40547  21251502.281    21251507.808
 04  1  9  0 41  0.0000000  0  7G24G30G 5G10G21G 6G17
  23878806.920     1112811.13449    887605.30245  23878806.596    23878813.031
  20548010.147   -15571889.63749 -12117404.03048  20548010.019    20548014.246
  22559494.476    -7469014.97649  -5369357.54846  22559493.907    22559499.844
  21235170.313   -15892665.31649 -12362043.48647  21235169.278    21235175.288
  22636287.101    -7364998.11349  -5273071.28546  22636286.046    22636289.903
  21015307.163   -14228195.34749 -11062935.53048  21015306.636    21015311.783
  21260313.826   -13265547.56049 -10299636.22547  21260312.922    21260318.496
 04  1  9  0 41 30.0000000  0  7G24G30G 5G10G21G 6G17
  23894564.414     1195616.96349    952129.30645  23894564.097    23894570.667
  20556565.797   -15526929.17049 -12082369.90448  20556565.706    20556569.987
  22578248.022    -7370465.59949  -5292565.84646  22578247.364    22578253.301
  21242835.181   -15852385.94449 -12330656.95847  21242834.142    21242840.204
  22623352.407    -7432970.43749  -5326036.69246  22623351.390    22623355.186
  21006501.765   -14274467.79749 -11098991.96348  21006501.212    21006506.422
  21269164.311   -13219038.07349 -10263395.06247  21269163.355    21269168.922
 04  1  9  0 42  0.0000000  0  7G24G30G 5G10G21G 6G17
  23910319.626     1278410.51749   1016643.76745  23910319.230    23910325.828
  20565224.770   -15481425.77549 -12046912.72448  20565224.721    20565229.009
  22597044.914    -7271688.50649  -5215596.70646  22597044.181    22597050.097
  21250611.110   -15811523.30749 -12298815.94447  21250610.069    21250616.123
  22610459.599    -7500722.75149  -5378830.67446  22610458.545    22610462.273
  20997736.510   -14320528.94749 -11134883.75748  20997735.980    20997741.273
  21278054.783   -13172318.06249 -10226989.85747  21278053.850    21278059.447
 04  1  9  0 42 30.0000000  0  7G24G30G 5G10G21G 6G17
  23926071.432     1361186.65249   1081144.63745  23926071.125    23926077.502
  20573985.980   -15435385.19049 -12011036.95748  20573985.916    20573990.243
  22615884.005    -7172690.48349  -5138455.42646  22615883.039    22615888.968
  21258496.965   -15770083.24849 -12266524.99047  21258495.899    21258501.885
  22597607.982    -7568259.27149  -5431456.49446  22597606.832    22597610.417
  20989010.976   -14366381.76949 -11170613.21348  20989010.460    20989015.729
  21286984.285   -13125392.94849 -10190424.83347  21286983.348    21286989.025
 04  1  9  0 43  0.0000000  0  7G24G30G 5G10G21G 6G17
  23941820.944     1443948.89149   1145634.69245  23941820.532    23941826.648
  20582850.005   -15388804.48949 -11974740.31748  20582849.949    20582854.221
  22634765.206    -7073469.66749  -5061140.53046  22634764.248    22634770.284
  21266493.249   -15728063.08249 -12233781.99947  21266492.144    21266497.987
  22584798.033    -7635575.49049  -5483910.66046  22584797.020    22584800.506
  20980326.372   -14412020.32349 -11206175.71448  20980325.793    20980330.957
  21295953.346   -13078259.68549 -10153697.62347  21295952.389    21295958.166
 04  1  9  0 43 30.0000000  0  7G24G30G 5G10G21G 6G17
  23957566.758     1526692.87249   1210110.49645  23957566.272    23957572.560
  20591815.801   -15341688.85449 -11938026.83848  20591815.733    20591819.999
  22653687.661    -6974032.01549  -4983656.67046  22653686.699    22653692.781
  21274598.874   -15685468.09949 -12200591.09847  21274597.702    21274603.531
  22572029.470    -7702674.56249  -5536195.61946  22572028.440    22572031.881
  20971682.101   -14457446.41149 -11241572.64848  20971681.487    20971686.605
  21304961.137   -13030923.10849 -10116811.97547  21304960.253    21304966.072
 04  1  9  0 44  0.0000000  0  8G24G30G 5G10G21G 6G29G17
  23973309.127     1609419.68749   1274572.95745  23973308.673    23973314.911
  20600883.601   -15294037.61549 -11900896.01848  20600883.485    20600887.713
  22672651.308    -6874377.98049  -4906004.21146  22672650.261    22672656.449
  21282813.963   -15642297.79849 -12166951.90047  21282812.785    21282818.544
  22559302.578    -7769554.09849  -5588309.51346  22559301.641    22559305.102
  20963078.853   -14502656.54249 -11276801.31148  20963078.263    20963083.320
                  -1520711.95949  -1156449.20043
  21314007.858   -12983382.19549 -10079767.11247  21314006.960    21314012.819
 04  1  9  0 44 30.0000000  0  8G24G30G 5G10G21G 6G29G17
  23989048.252     1692128.78649   1339021.58945  23989047.688    23989053.771
  20610052.908   -15245852.53249 -11863349.20648  20610052.777    20610057.012
  22691655.437    -6774510.30949  -4828185.27246  22691654.415    22691660.805
  21291138.130   -15598554.11849 -12132865.90747  21291136.953    21291142.763
  22546617.724    -7836213.96149  -5640252.23346  22546616.692    22546620.181
  20954516.956   -14547649.41049 -11311860.67648  20954516.390    20954521.407
                  -1590835.19349  -1211101.81243
  21323093.119   -12935638.49449 -10042564.22747  21323092.300    21323098.125
 04  1  9  0 45  0.0000000  0  7G24G30G 5G10G21G 6G17
  24004783.486     1774817.27049   1403454.18045  24004782.905    24004788.673
  20619323.176   -15197136.93649 -11825389.00448  20619323.030    20619327.291
  22710699.340    -6674433.31649  -4750203.23746  22710698.321    22710704.923
  21299570.699   -15554240.67049 -12098335.94747  21299569.505    21299575.342
  22533974.280    -7902655.76349  -5692025.02346  22533973.165    22533976.691
  20945996.397   -14592425.13249 -11346750.84648  20945995.859    20946000.804
  21332216.481   -12887694.96149 -10005205.62247  21332215.635    21332221.458
 04  1  9  0 45 30.0000000  0  7G24G30G 5G10G21G 6G17
  24020515.021     1857485.90049   1467871.30045  24020514.463    24020519.639
  20628694.349   -15147890.94249 -11787015.51148  20628694.242    20628698.507
  22729782.930    -6574147.92749  -4672058.80946  22729781.920    22729788.704
  21308111.573   -15509357.50649 -12063362.06047  21308110.432    21308116.274
  22521372.437    -7968877.78349  -5743626.56346  22521371.419    22521375.109
  20937517.744   -14636980.82149 -11381469.56348  20937517.228    20937522.106
  21341377.846   -12839551.29549  -9967691.08347  21341377.052    21341382.873
 04  1  9  0 46  0.0000000  0  7G24G30G 5G10G21G 6G17
  24036242.609     1940133.98149   1532272.38745  24036241.936    24036247.058
  20638166.276   -15098115.87449 -11748229.75248  20638166.145    20638170.438
  22748905.573    -6473656.61349  -4593753.92646  22748904.601    22748911.641
  21316760.647   -15463906.37049 -12027945.59247  21316759.524    21316765.319
  22508812.353    -8034879.83849  -5795056.70046  22508811.554    22508815.378
  20929081.392   -14681314.56749 -11416015.33548  20929080.849    20929085.648
  21350577.246   -12791208.69649  -9930021.51847  21350576.383    21350582.149
 04  1  9  0 46 30.0000000  0  8G24G30G 5G10G21G 6G29G17
  24051965.636     2022758.59649   1596655.19945  24051964.950    24051970.005
  20647738.100   -15047815.87549 -11709034.95348  20647737.958    20647742.262
  22768066.387    -6372964.19349  -4515292.31746  22768065.617    22768072.870
  21325517.009   -15417891.55249 -11992089.88847  21325515.843    21325521.614
  22496293.993    -8100663.98749  -5846317.05046  22496293.151    22496297.025
  20920687.060   -14725427.07849 -11450388.70948  20920686.500    20920691.283
                  -1457686.88549  -1108455.16043
  21359813.792   -12742670.61849  -9892199.64647  21359812.889    21359818.685
 04  1  9  0 47  0.0000000  0  8G24G30G 5G10G21G 6G29G17
  24067684.823     2105363.41249   1661022.58345  24067684.238    24067689.037
  20657410.405   -14996987.85749 -11669428.71448  20657410.242    20657414.510
  22787266.096    -6272068.63649  -4436672.44546  22787265.324    22787272.680
  21334381.172   -15371310.17749 -11955792.71147  21334380.036    21334385.739
  22483818.097    -8166225.12249  -5897403.61546  22483817.088    22483821.083
  20912336.004   -14769312.05249 -11484584.78248  20912335.471    20912340.220
                  -1527236.33449  -1162650.10543
  21369088.222   -12693933.57949  -9854222.73647  21369087.289    21369093.105
 04  1  9  0 47 30.0000000  0  7G24G30G 5G10G21G 6G17
  24083398.907     2187941.42549   1725369.11045  24083398.251    24083403.113
  20667181.607   -14945639.70849 -11629417.17148  20667181.468    20667185.747
  22806503.001    -6170978.77249  -4357901.15946  22806502.008    22806509.489
  21343351.574   -15324170.33849 -11919060.36147  21343350.366    21343356.094
  22471383.378    -8231569.25049  -5948321.06446  22471382.356    22471386.522
  20904027.348   -14812974.28449 -11518607.29048  20904026.823    20904031.523
  21378398.968   -12645004.99249  -9816096.56147  21378398.033    21378403.889
 04  1  9  0 48  0.0000000  0  7G24G30G 5G10G21G 6G17
  24099108.484     2270495.60349   1789697.04045  24099107.834    24099112.377
  20677052.190   -14893769.45249 -11588998.79448  20677052.045    20677056.334
  22825777.015    -6069693.29549  -4278977.43646  22825776.024    22825783.582
  21352428.631   -15276469.98149 -11881891.25047  21352427.432    21352433.148
  22458990.683    -8296692.32049  -5999066.28946  22458989.685    22458994.003
  20895762.085   -14856408.45049 -11552452.08448  20895761.545    20895766.274
  21387746.517   -12595882.79349  -9777819.52347  21387745.622    21387751.575
 04  1  9  0 48 30.0000000  0  7G24G30G 5G10G21G 6G17
  24114813.462     2353025.93349   1854006.36445  24114812.643    24114817.499
  20687021.793   -14841378.27349 -11548174.51048  20687021.703    20687026.040
  22845087.894    -5968214.09649  -4199902.78246  22845086.855    22845094.483
  21361612.012   -15228210.46049 -11844286.42547  21361610.825    21361616.550
  22446639.944    -8361594.18849  -6049639.13946  22446639.076    22446643.555
  20887540.578   -14899612.47649 -11586117.55548  20887540.067    20887544.843
  21397130.925   -12546567.12449  -9739391.72947  21397130.045    21397136.091
 04  1  9  0 49  0.0000000  0  7G24G30G 5G10G21G 6G17
  24130512.876     2435527.06349   1918292.97245  24130512.125    24130517.008
  20697089.344   -14788472.58249 -11506949.29948  20697089.293    20697093.688
  22864433.986    -5866548.72849  -4120683.02846  22864433.103    22864440.870
  21370900.492   -15179398.64349 -11806251.23347  21370899.334    21370905.150
  22434330.713    -8426278.91249  -6100042.77446  22434329.867    22434334.488
  20879362.310   -14942589.35949 -11619606.01748  20879361.789    20879366.601
  21406551.097   -12497064.07149  -9700817.91947  21406550.204    21406556.244
 04  1  9  0 49 30.0000000  0  7G24G30G 5G10G21G 6G17
  24146207.601     2518003.17449   1982560.06445  24146206.849    24146211.961
  20707255.439   -14735049.14849 -11465320.65248  20707255.415    20707259.855
  22883816.182    -5764694.34849  -4041316.01346  22883815.265    22883823.266
  21380294.732   -15130031.29649 -11767783.17047  21380293.561    21380299.396
  22422063.699    -8490741.54949  -6150273.37946  22422062.949    22422067.612
  20871228.585   -14985332.55549 -11652912.38248  20871228.049    20871232.831
  21416007.651   -12447369.79049  -9662095.09847  21416006.747    21416012.748
 04  1  9  0 50  0.0000000  0  7G24G30G 5G10G21G 6G17
  24161896.475     2600448.88249   2046803.47645  24161895.817    24161901.286
  20717518.945   -14681114.24949 -11423293.46748  20717518.890    20717523.330
  22903233.039    -5662658.51649  -3961807.61146  22903232.023    22903240.185
  21389793.564   -15080114.84849 -11728887.22347  21389792.365    21389798.171
  22409838.422    -8554986.30449  -6200334.19646  22409837.522    22409842.249
  20863138.669   -15027845.08149 -11686039.00948  20863138.160    20863142.940
  21425499.475   -12397489.98349  -9623227.70747  21425498.596    21425504.592
 04  1  9  0 50 30.0000000  0  7G24G30G 5G10G21G 6G17
  24177580.533     2682870.04249   2111027.73745  24177579.980    24177585.526
  20727880.637   -14626663.35549 -11380864.20648  20727880.557    20727885.005
  22922684.988    -5560437.25149  -3882154.70346  22922684.056    22922692.383
  21399397.667   -15029644.96149 -11689560.02747  21399396.506    21399402.190
  22397655.872    -8619006.23349  -6250219.82246  22397654.936    22397659.658
  20855094.184   -15070118.93449 -11718979.65148  20855093.679    20855098.476
  21435027.608   -12347419.61249  -9584211.83047  21435026.720    21435032.727
 04  1  9  0 51  0.0000000  0  7G24G30G 5G10G21G 6G17
  24193258.643     2765259.78549   2175227.53845  24193258.057    24193263.582
  20738339.092   -14571704.24849 -11338038.94448  20738338.947    20738343.379
  22942170.776    -5458038.41449  -3802363.43646  22942169.926    22942178.334
  21409105.525   -14978629.57949 -11649807.77647  21409104.385    21409110.083
  22385514.772    -8682807.79549  -6299935.28746  22385513.881    22385518.699
  20847094.298   -15112158.36549 -11751737.63848  20847093.787    20847098.589
  21444590.611   -12297165.74649  -9545052.97347  21444589.729    21444595.768
 04  1  9  0 51 30.0000000  0  7G24G30G 5G10G21G 6G17
  24208930.677     2847618.10949   2239402.83345  24208930.087    24208936.294
  20748893.928   -14516238.10949 -11294818.58948  20748893.820    20748898.253
  22961690.112    -5355464.72049  -3722435.92846  22961689.093    22961697.564
  21418917.032   -14927069.89949 -11609631.39247  21418915.873    21418921.517
  22373415.388    -8746389.93849  -6349479.79646  22373414.577    22373419.466
  20839139.382   -15153961.23549 -11784311.28348  20839138.875    20839143.722
  21454188.476   -12246728.88849  -9505751.52147  21454187.585    21454193.613
 04  1  9  0 52  0.0000000  0  7G24G30G 5G10G21G 6G17
  24224596.391     2929942.93349   2303552.06645  24224595.802    24224602.655
  20759544.682   -14460268.00949 -11251205.53748  20759544.556    20759548.995
  22981241.965    -5252719.60349  -3642374.82846  22981240.898    22981249.424
  21428831.449   -14874969.01549 -11569033.28847  21428830.329    21428835.960
  22361357.698    -8809753.68349  -6398854.12546  22361356.895    22361361.782
  20831229.558   -15195527.15949 -11816700.30148  20831229.090    20831233.940
  21463820.731   -12196111.39049  -9466309.30547  21463819.807    21463825.814
 04  1  9  0 52 30.0000000  0  7G24G30G 5G10G21G 6G17
  24240256.620     3012238.61149   2367678.55245  24240255.950    24240263.226
  20770291.947   -14403790.76449 -11207197.30248  20770291.836    20770296.284
  23000826.802    -5149800.72149  -3562178.33146  23000825.660    23000834.275
  21438849.431   -14822324.32549 -11528011.44147  21438848.274    21438853.955
  22349342.806    -8872893.95749  -6448054.29347  22349341.832    22349346.668
  20823366.193   -15236849.46249 -11848899.48748  20823365.734    20823370.538
  21473487.986   -12145309.42249  -9426723.35347  21473487.074    21473493.121
 04  1  9  0 53  0.0000000  0  7G24G30G 5G10G21G 6G17
  24255910.348     3094498.95349   2431777.48445  24255909.663    24255916.686
  20781134.218   -14346813.96749 -11162799.80148  20781134.160    20781138.601
  23020443.236    -5046716.25149  -3481852.80446  23020442.040    23020450.658
  21448969.239   -14769143.55149 -11486571.87047  21448968.158    21448973.878
  22337369.123    -8935816.30249  -6497084.66547  22337368.132    22337372.888
  20815548.463   -15277932.08749 -11880911.90848  20815547.966    20815552.748
  21483189.072   -12094329.77449  -9386998.95147  21483188.158    21483194.243
 04  1  9  0 53 30.0000000  0  7G24G30G 5G10G21G 6G17
  24271558.187     3176729.03049   2495852.87145  24271557.452    24271564.101
  20792072.317   -14289333.99549 -11118010.21948  20792072.238    20792076.666
  23040091.444    -4943463.69949  -3401396.30946  23040090.367    23040099.005
  21459191.886   -14715423.32649 -11444711.94547  21459190.851    21459196.478
  22325437.972    -8998514.69649  -6545940.52947  22325436.982    22325441.778
  20807777.650   -15318768.01949 -11912732.10148  20807777.166    20807781.891
  21492924.668   -12043168.41649  -9347132.95847  21492923.818    21492929.954
 04  1  9  0 54  0.0000000  0  7G24G30G 5G10G21G 6G17
  24287198.698     3258922.51549   2559899.74645  24287198.172    24287204.481
  20803104.648   -14231358.44949 -11072834.47648  20803104.590    20803109.008
  23059770.353    -4840050.94949  -3320814.96846  23059769.303    23059777.811
  21469515.808   -14661171.21549 -11402437.56047  21469514.734    21469520.283
  22313548.217    -9060995.01349  -6594626.47347  22313547.323    22313552.143
  20800053.065   -15359361.18549 -11944363.13248  20800052.563    20800057.224
  21502693.716   -11991831.92549  -9307130.49947  21502692.845    21502698.996
 04  1  9  0 54 30.0000000  0  7G24G30G 5G10G21G 6G17
  24302833.796     3341084.25749   2623921.87245  24302833.247    24302839.685
  20814232.078   -14172883.57349 -11027269.64647  20814231.977    20814236.390
  23079480.392    -4736474.43149  -3240106.02346  23079479.438    23079487.821
  21479941.594   -14606383.77149 -11359746.03547  21479940.477    21479946.001
  22301701.157    -9123251.45049  -6643137.95147  22301700.314    22301705.158
  20792376.009   -15399704.31749 -11975799.32448  20792375.538    20792380.152
  21512496.883   -11940315.83949  -9266988.08847  21512496.029    21512502.169
 04  1  9  0 55  0.0000000  0  7G24G30G 5G10G21G 6G17
  24318461.235     3423205.70049   2687912.61144  24318460.630    24318466.893
  20825452.687   -14113919.05649 -10981323.28247  20825452.569    20825456.984
  23099219.689    -4632744.85749  -3159277.82346  23099218.683    23099226.925
  21490467.225   -14551070.69449 -11316644.93347  21490466.130    21490471.712
  22289895.482    -9185291.34249  -6691480.69947  22289894.507    22289899.372
  20784745.402   -15439803.61849 -12007045.52748  20784744.921    20784749.482
  21522332.527   -11888628.97049  -9226712.60547  21522331.650    21522337.805
 04  1  9  0 55 30.0000000  0  7G24G30G 5G10G21G 6G17
  24334082.090     3505294.59249   2751877.98144  24334081.506    24334088.456
  20836767.650   -14054458.85949 -10934990.67447  20836767.506    20836771.920
  23118989.192    -4528856.65149  -3078325.99946  23118988.167    23118996.195
  21501094.091   -14495225.98349 -11273129.57447  21501093.043    21501098.662
  22278132.403    -9247106.89149  -6739648.63647  22278131.451    22278136.250
  20777163.034   -15479649.37049 -12038094.15648  20777162.570    20777167.094
  21532201.971   -11836764.59349  -9186298.79747  21532201.117    21532207.195
 04  1  9  0 56  0.0000000  0  7G24G30G 5G10G21G 6G17
  24349696.159     3587346.24449   2815814.37244  24349695.475    24349701.966
  20848175.821   -13994508.84649 -10888276.38448  20848175.648    20848180.094
  23138787.631    -4424816.29949  -2997255.61646  23138786.641    23138794.440
  21511821.001   -14438855.90749 -11229204.83047  21511819.927    21511825.518
  22266411.179    -9308701.61249  -6787644.49247  22266410.285    22266415.129
  20769628.510   -15519243.96849 -12068947.07048  20769628.016    20769632.524
  21542104.308   -11784727.66249  -9145750.53247  21542103.392    21542109.408
 04  1  9  0 56 30.0000000  0  7G24G30G 5G10G21G 6G17
  24365302.898     3669359.18149   2879720.60044  24365302.451    24365307.964
  20859676.575   -13934071.88449 -10841182.65348  20859676.446    20859680.920
  23158614.413    -4320627.32349  -2916069.43446  23158613.365    23158620.955
  21522647.286   -14381963.49349 -11184873.06447  21522646.212    21522651.810
  22254731.742    -9370076.26249  -6835468.86447  22254730.991    22254735.860
  20762141.868   -15558586.45849 -12099603.54648  20762141.359    20762145.875
  21552039.004   -11732520.02649  -9105069.24947  21552038.184    21552044.117
 04  1  9  0 57  0.0000000  0  7G24G30G 5G10G21G 6G17
  24380902.268     3751333.26349   2943596.54744  24380901.545    24380907.093
  20871269.683   -13873149.74349 -10793710.86248  20871269.591    20871274.045
  23178469.039    -4216291.72849  -2834768.99846  23178467.991    23178475.378
  21533572.607   -14324550.36449 -11140135.56147  21533571.588    21533577.187
  22243094.487    -9431230.41549  -6883121.42447  22243093.687    22243098.603
  20754703.556   -15597674.88349 -12130062.05448  20754703.038    20754707.574
  21562006.194   -11680142.44449  -9064255.54147  21562005.324    21562011.141
 04  1  9  0 57 30.0000000  0  7G24G30G 5G10G21G 6G17
  24396493.025     3833265.80749   3007440.11744  24396492.730    24396499.066
  20882954.375   -13811746.46649 -10745864.15848  20882954.281    20882958.697
  23198350.648    -4111814.10649  -2753357.89846  23198349.557    23198356.811
  21544596.326   -14266620.96949 -11094995.76847  21544595.247    21544600.799
  22231498.828    -9492166.13349  -6930603.76847  22231497.924    22231502.891
  20747313.482   -15636509.74449 -12160322.96848  20747312.974    20747317.558
  21572005.045   -11627598.30649  -9023312.05047  21572004.152    21572009.952
 04  1  9  0 58  0.0000000  0  7G24G30G 5G10G21G 6G17
  24412077.892     3915166.16148   3071258.52144  24412078.179    24412084.303
  20894732.032   -13749854.59549 -10697636.73448  20894731.978    20894736.327
  23218260.247    -4007187.65649  -2671830.82746  23218259.363    23218266.575
  21555719.643   -14208167.98349 -11049447.97247  21555718.527    21555724.019
  22219946.458    -9552873.81949  -6977908.43547  22219945.572    22219950.567
  20739973.823   -15675079.85449 -12190377.58748  20739973.325    20739977.939
  21582037.162   -11574879.04549  -8982232.10447  21582036.287    21582042.118
 04  1  9  0 58 30.0000000  0  7G24G30G 5G10G21G 6G17
  24427654.129     3997021.95548   3135042.26944  24427654.645
  20906600.160   -13687487.42049 -10649038.94648  20906600.082    20906604.390
  23238195.767    -3902426.12349  -2590198.50446  23238194.912    23238202.043
  21566939.954   -14149204.84249 -11003502.66947  21566938.849    21566944.319
  22208435.254    -9613364.53849  -7025044.04947  22208434.461    22208439.520
  20732682.714   -15713394.76849 -12220233.35448  20732682.193    20732686.866
  21592100.263   -11521996.99449  -8941025.30647  21592099.381    21592105.163
 04  1  9  0 59  0.0000000  0  7G24G30G 5G10G21G 6G17
  24443222.720     4078839.31148   3198796.10844  24443223.662    24443230.054
  20918559.553   -13624640.41249 -10600067.26148  20918559.463    20918563.732
  23258157.783    -3797525.57549  -2508457.84546  23258156.853    23258163.968
  21578258.104   -14089727.26849 -10957156.49747  21578257.023    21578262.479
  22196966.816    -9673631.42849  -7072005.22047  22196966.000    22196971.095
  20725441.644   -15751446.32049 -12249883.89548  20725441.116    20725445.909
  21602195.326   -11468946.81149  -8899687.49247  21602194.472    21602200.215
 04  1  9  0 59 30.0000000  0  8G24G30G 5G10G21G 6G29G17
  24458783.783     4160615.19348   3262517.52644  24458783.659
  20930609.317   -13561318.31349 -10550725.38048  20930609.271    20930613.522
  23278144.878    -3692491.06449  -2426612.82346  23278144.276    23278151.411
  21589673.338   -14029739.97649 -10910413.14047  21589672.241    21589677.651
  22185540.560    -9733677.02449  -7118793.97147  22185539.651    22185544.745
  20718250.536   -15789235.43849 -12279329.95048  20718250.014    20718254.860
                  -1236524.61049   -946647.01943
  21612321.739   -11415731.92949  -8858221.34747  21612320.922    21612326.668
 04  1  9  1  0  0.0000000  0  8G24G30G 5G10G21G 6G29G17
  24474336.526     4242345.56448   3326203.61144  24474336.418    24474345.093
  20942748.543   -13497526.49249 -10501017.47848  20942748.457    20942752.726
  23298156.845    -3587328.26449  -2344667.82646  23298156.102    23298163.284
  21601184.458   -13969248.70349 -10863277.07747  21601183.402    21601188.735
  22174155.587    -9793504.63449  -7165412.85747  22174154.772    22174159.842
  20711109.072   -15826763.66349 -12308572.70748  20711108.568    20711113.473
                  -1301895.22249   -997600.25543
  21622478.739   -11362356.96849  -8816630.46847  21622477.870    21622483.616
 04  1  9  1  0 30.0000000  0  8G24G30G 5G10G21G 6G29G17
  24489882.200     4324033.88348   3389856.84244  24489881.110
  20954977.401   -13433263.23949 -10450942.22248  20954977.301    20954981.647
  23318193.285    -3482036.23249  -2262622.11846  23318192.501    23318199.747
  21612791.860   -13908251.69149 -10815746.92247  21612790.776    21612796.110
  22162812.935    -9853110.13749  -7211858.66047  22162812.215    22162817.194
  20704018.314   -15864025.57549 -12337607.94348  20704017.827    20704022.800
                  -1367063.73949  -1048399.00443
  21632666.744   -11308819.09549  -8774912.63447  21632665.827    21632671.533
 04  1  9  1  1  0.0000000  0  9G24G30G18G 5G10G21G 6G29G17
  24505417.926     4405676.74948   3453474.59544  24505416.695
  20967294.996   -13368533.85949 -10400503.76148  20967294.884    20967299.302
                  -1206026.34649   -911455.58043
  23338253.316    -3376620.49049  -2180480.00746  23338252.494    23338259.792
  21624494.401   -13846754.53349 -10767827.05347  21624493.275    21624498.588
  22151512.163    -9912496.85049  -7258133.98547  22151511.338    22151516.227
  20696978.003   -15901022.58249 -12366436.77048  20696977.541    20696982.511
                  -1432030.20149   -920044.63343
  21642884.970   -11255122.26949  -8733070.94747  21642884.053    21642889.672
 04  1  9  1  1 30.0000000  0  9G24G30G18G 5G10G21G 6G29G17
  24520946.214     4487278.15648   3517060.13344  24520944.953
  20979701.781   -13303335.67349 -10349699.99148  20979701.675    20979706.162
                  -1316072.74549   -997200.25443
  23358337.124    -3271078.66649  -2098239.63346  23358336.500    23358343.814
  21636292.583   -13784754.44249 -10719515.28847  21636291.457    21636296.851
  22140254.048    -9971659.62349  -7304234.81247  22140253.082    22140257.918
  20689989.354   -15937748.13449 -12395054.06748  20689988.849    20689993.847
                  -1496786.69649   -970503.82843
  21653133.983   -11201263.00649  -8691102.68847  21653133.108    21653138.685
 04  1  9  1  2  0.0000000  0  9G24G30G18G 5G10G21G 6G29G17
                   4568831.65148   3580608.40144  24536474.982
  20992196.209   -13237677.14649 -10298537.51548  20992196.085    20992200.656
                  -1426048.78549  -1082882.57443
  23378443.507    -3165419.51249  -2015907.85145  23378442.781    23378450.212
  21648184.839   -13722260.30449 -10670818.55347  21648183.685    21648189.141
  22129037.008   -10030604.91849  -7350166.18247  22129036.117    22129040.887
  20683051.418   -15974207.00449 -12423463.56448  20683050.912    20683055.921
                  -1561336.46949  -1020802.37343                  24061648.150
  21663412.588   -11147248.61149  -8649013.53647  21663411.712    21663417.257
 04  1  9  1  2 30.0000000  0  9G24G30G18G 5G10G21G 6G29G17
                   4650340.53648   3644121.79144
  21004778.446   -13171556.54049 -10247014.97748  21004778.375    21004783.031
                  -1535947.62149   -882260.05243
  23398572.585    -3059641.69149  -1933483.59645  23398571.705    23398579.137
  21660171.353   -13659270.32949 -10621735.44647  21660170.246    21660175.732
  22117862.257   -10089328.52849  -7395924.80947  22117861.413    22117866.127
  20676165.399   -16010393.31649 -12451660.67848  20676164.859    20676169.856
                  -1625672.17949  -1070934.02144                  24049403.504
  21673721.323   -11093075.94849  -8606801.06047  21673720.436    21673725.935
 04  1  9  1  3  0.0000000  0  9G24G30G18G 5G10G21G 6G29G17
                   4731801.57848   3707597.88244
  21017447.783   -13104978.61649 -10195136.08848  21017447.714    21017452.483
                  -1645769.94449   -967838.91243
  23418722.920    -2953750.24849  -1850970.80845  23418722.145    23418729.675
  21672251.346   -13595789.47749 -10572269.83347  21672250.214    21672255.699
  22106729.389   -10147832.93849  -7441512.63647  22106728.440    22106732.983
  20669331.010   -16046308.06549 -12479646.18248  20669330.500    20669335.529
  24037199.076    -1689793.72149  -1120898.79844  24037198.144    24037205.014
  21684059.495   -11038748.68449  -8564468.11947  21684058.559    21684063.998
 04  1  9  1  3 30.0000000  0  9G24G30G18G 5G10G21G 6G29G17
                   4813215.50248   3771037.33444
  21030203.952   -13037944.46549 -10142901.69648  21030203.883    21030208.719
                  -1755512.19149  -1053361.10243
  23438894.689    -2847747.03449  -1768370.93145  23438893.971    23438901.532
  21684424.470   -13531819.22849 -10522422.87747  21684423.376    21684428.910
  22095638.270   -10206117.23449  -7486928.93947  22095637.349    22095641.798
  20662548.826   -16081948.60049 -12507418.01248  20662548.335    20662553.437
  24025038.994    -1753697.07549  -1170693.56744  24025039.132    24025044.821
  21694426.976   -10984267.07149  -8522014.90147  21694426.071    21694431.507
 04  1  9  1  4  0.0000000  0  9G24G30G18G 5G10G21G 6G29G17
                   4894577.48448   2890748.16243
  21043045.747   -12970460.53249 -10090316.82948  21043045.693    21043050.590
                  -1865176.00049   -853170.26443
  23459086.938    -2741638.16949  -1685688.76145  23459085.962    23459093.378
  21696689.598   -13467365.74249 -10472199.37647  21696688.455    21696694.006
  22084588.281   -10264184.92449  -7532176.46447  22084587.398    22084591.809
  20655818.348   -16117317.30749 -12534978.03448  20655817.875    20655822.983
  24012920.253    -1817382.85949  -1220318.74445  24012919.910    24012925.696
  21704822.903   -10929636.04149  -8479445.25947  21704821.984    21704827.433
 04  1  9  1  4 30.0000000  0  9G24G30G18G 5G10G21G 6G29G17
                   4975898.44248   2954114.14143
  21055974.828   -12902517.91149 -10037374.53948  21055974.752    21055979.688
                  -1974747.89549   -938557.78243
  23479300.647    -2635415.50149  -1602917.88845  23479299.678    23479306.859
  21709048.267   -13402420.48649 -10421592.66947  21709047.129    21709052.713
  22073581.548   -10322025.34249  -7577246.87747  22073580.718    22073585.116
  20649142.090   -16152401.52249 -12562316.37248  20649141.587    20649146.655
  24000845.344    -1880837.18849  -1269763.57644  24000844.553    24000850.655
  21715249.130   -10874845.51649  -8436751.32947  21715248.237    21715253.699
 04  1  9  1  5  0.0000000  0  9G24G30G18G 5G10G21G 6G29G17
                   5057171.15548   3017442.42843
  21068989.511   -12834125.43049  -9984081.70648  21068989.442    21068994.379
                  -2084231.85049  -1023895.88543
  23499533.989    -2529088.08749  -1520065.41445  23499533.291    23499540.206
  21721498.817   -13336992.45449 -10370609.77747  21721497.700    21721503.263
  22062616.837   -10379644.72749  -7622145.07747  22062616.079    22062620.446
  20642519.032   -16187206.16749 -12589436.86648  20642518.522    20642523.534
  23988813.292    -1944063.62349  -1319030.83544  23988812.273    23988818.664
  21725704.307   -10819903.29749  -8393939.19847  21725703.399    21725708.887
 04  1  9  1  5 30.0000000  0  9G24G30G18G 5G10G21G 6G29G17
                   5138397.57048   2907295.46943
  21082089.741   -12765283.22749  -9930438.44448  21082089.713    21082094.681
                  -2193623.56349   -824116.23143
  23519787.371    -2422656.48749  -1437131.75145  23519786.719    23519793.368
  21734041.160   -13271081.82249 -10319250.82847  21734040.037    21734045.617
  22051694.704   -10437041.21749  -7666869.58047  22051693.860    22051698.215
  20635949.805   -16221727.37149 -12616336.49048  20635949.310    20635954.371
  23976824.878    -2007056.74849  -1368116.34144  23976824.002    23976830.595
  21736188.634   -10764807.93549  -8351007.73847  21736187.700    21736193.221
 04  1  9  1  6  0.0000000  0  9G24G30G18G 5G10G21G 6G29G17
                   5219574.93648   2970591.33043
  21095274.664   -12695995.97149  -9876448.38548  21095274.625    21095279.592
                  -2302922.65849   -909281.60943
  23540059.667    -2316125.05649  -1354120.30145  23540059.116    23540065.550
  21746674.518   -13204693.31049 -10267519.51247  21746673.361    21746678.911
  22040814.444   -10494216.71449  -7711421.88347  22040813.662    22040818.057
  20629434.465   -16255965.58949 -12643015.61548  20629433.980    20629439.091
  23964881.887    -2069816.05449  -1417019.62044  23964880.808    23964887.044
  21746701.348   -10709562.89849  -8307959.65247  21746700.413    21746706.048
 04  1  9  1  6 30.0000000  0  9G24G30G18G 5G10G21G 6G29G17
                   5300703.57248   3033849.89943
  21108543.967   -12626265.11949  -9822112.66948  21108543.929    21108548.925
                  -2412125.71349   -994358.85643
  23560350.566    -2209495.57949  -1271032.43245  23560350.049    23560356.297
  21759398.530   -13137828.48549 -10215417.03547  21759397.373    21759402.897
  22029976.482   -10551170.48749  -7755801.40747  22029975.685    22029980.071
  20622973.433   -16289918.37249 -12669472.32148  20622972.933    20622978.121
  23952984.709    -2132337.61349  -1465737.64144  23952983.615    23952990.073
  21757242.457   -10654168.28849  -8264795.01647  21757241.585    21757247.323
 04  1  9  1  7  0.0000000  0  9G24G30G18G 5G10G21G 6G29G17
                   5381782.97748   2923791.42143
  21121897.191   -12556093.10149  -9767433.19448  21121897.185    21121902.181
                  -2521230.624 9   1077943.571 1
  23580659.813    -2102770.70649  -1187870.26045  23580659.140    23580665.217
  21772212.571   -13070489.98449 -10162945.46947  21772211.472    21772217.036
  22019180.588   -10607902.85649  -7800008.42047  22019179.819    22019184.218
  20616566.962   -16323584.28449 -12695705.49448  20616566.488    20616571.731
  23941132.996    -2194618.46749  -1514268.10844  23941132.039    23941138.917
  21767811.865   -10598625.55049  -8221514.96047  21767810.998    21767816.788
 04  1  9  1  7 30.0000000  0 10G24G30G18G 5G10G21G 6G26G29G17
                   5462810.68348   2986986.61843
  21135333.597   -12485484.27149  -9712413.34548  21135333.603    21135338.582
                  -2630237.11949   -880201.32543
  23600986.184    -1995955.32549  -1104637.54445  23600985.318    23600991.382
  21785115.979   -13002682.32149 -10110108.31647  21785114.869    21785120.393
  22008426.555   -10664415.50449  -7844044.20547  22008425.814    22008430.167
  20610215.073   -16356963.74349 -12721715.45348  20610214.575    20610219.825
                  -1070721.58149   -814490.94543
  23929327.357    -2256657.71349  -1562610.28744  23929326.361    23929333.423
  21778409.119   -10542937.44649  -8178121.62547  21778408.162    21778413.919
 04  1  9  1  8  0.0000000  0 10G24G30G18G 5G10G21G 6G26G29G17
                   5543785.40048   3050146.94343
  21148852.568   -12414441.73349  -9657055.54047  21148852.564    21148857.550
                  -2739143.24849   -964947.78243
  23621329.113    -1889052.44049  -1021336.62945  23621328.155    23621334.159
  21798108.015   -12934408.71249 -10056908.09447  21798106.885    21798112.451
  21997714.298   -10720709.10649  -7887909.30047  21997713.510    21997717.806
  20603917.855   -16390055.72049 -12747501.40248  20603917.355    20603922.628
                  -1159379.23049   -883575.17643
  23917567.622    -2318452.86149  -1610762.31844  23917566.803    23917574.409
  21789033.595   -10487105.57649  -8134616.26647  21789032.637    21789038.378
 04  1  9  1  8 30.0000000  0 10G24G30G18G 5G10G21G 6G26G29G17
                   5624707.60558   2941217.65743
  21162453.716   -12342967.20649  -9601361.12947  21162453.688    21162458.688
                  -2847945.47149  -1049613.29543
  23641688.468    -1782063.89749   -937968.98245  23641687.380    23641693.179
  21811188.351   -12865670.81849 -10003346.09247  21811187.269    21811192.873
  21987043.765   -10776783.13449  -7931603.31547  21987042.977    21987047.286
  20597675.766   -16422857.86749 -12773061.50548  20597675.276    20597680.597
                  -1247951.44449   -952592.45743
  23905855.425    -2380000.64649  -1658721.51945  23905854.731    23905862.145
  21799685.202   -10431130.61049  -8090999.40547  21799684.303    21799690.066
 04  1  9  1  9  0.0000000  0  9G24G30G18G 5G10G21G 6G29G17
                   5705580.02348   3004344.79643
  21176137.072   -12271060.04049  -9545329.58247  21176137.115    21176142.141
                  -2956639.03249   -852624.65143
  23662064.148    -1674989.37049   -854534.33545  23662063.004    23662068.572
  21824357.107   -12796468.24649  -9949422.00247  21824356.063    21824361.646
  21976415.534   -10832634.63249  -7975123.92447  21976414.775    21976419.103
  20591489.741   -16455365.47749 -12798392.09948  20591489.239    20591494.574
  23894191.447    -2441294.74249  -1706483.09945  23894190.716    23894198.403
  21810364.566   -10375010.11449  -8047269.14447  21810363.630    21810369.445
 04  1  9  1  9 30.0000000  0 10G24G30G18G 5G10G21G 6G26G29G17
                   5786399.23957   3067452.63443
  21189901.856   -12198725.50049  -9488965.03147  21189901.886    21189906.956
                  -3065224.49949   -937293.57143
  23682455.287    -1567834.42149   -771037.01745  23682453.919    23682459.070
  21837613.355   -12726806.48049  -9895140.09947  21837612.246    21837617.863
  21965829.131   -10888266.63449  -8018473.50347  21965828.363    21965832.656
  20585359.466   -16487580.05949 -12823494.36248  20585358.982    20585364.287
                  -1073324.13649   -816681.75643
  23882575.689    -2502335.22949  -1754047.02545  23882574.917    23882582.848
  21821070.609   -10318748.41549  -8003428.85747  21821069.768    21821075.675
 04  1  9  1 10  0.0000000  0  9G30G18G 5G10G21G 6G26G29G17
  21203746.963   -12125968.64249  -9432271.38947  21203747.021    21203752.154
                  -3173701.66149  -1021878.03843
  23702860.856    -1460603.92349   -687480.83845  23702859.292    23702864.101
  21850955.886   -12656690.55549  -9840504.30047  21850954.789    21850960.470
  21955284.185   -10943681.10649  -8061653.56847  21955283.324    21955287.626
  20579284.905   -16519502.12849 -12848368.69448  20579284.418    20579289.712
                  -1161618.95149   -885482.63643
  23871008.471    -2563121.55949  -1801412.92745  23871007.756    23871015.497
  21831803.000   -10262348.63249  -7959480.96947  21831802.178    21831808.141
 04  1  9  1 10 30.0000000  0  9G30G18G 5G10G21G 6G26G29G17
  21217672.940   -12052786.96449  -9375246.72647  21217672.971    21217678.165
                  -3282063.32049   -823698.51843
  23723280.991    -1353295.65749   -603864.06145  23723279.545    23723283.723
  21864385.330   -12586118.21449  -9785512.86147  21864384.242    21864389.921
  21944781.247   -10998873.64849  -8104660.71747  21944780.445    21944784.791
  20573267.173   -16551125.40949 -12873010.19848  20573266.694    20573272.013
                  -1249812.03049   -954204.60444                  23974974.858
  23859490.954    -2623645.93049  -1848574.69745  23859490.190    23859497.592
  21842562.352   -10205807.22649  -7915422.72547  21842561.520    21842567.549
 04  1  9  1 11  0.0000000  0  9G30G18G 5G10G21G 6G26G29G17
  21231678.916   -11979184.89949  -9317894.48647  21231678.955    21231684.205
                  -3390308.83549   -908036.57943
  23743715.145    -1245913.73249   -520189.88045  23743713.630    23743717.529
  21877900.777   -12515093.67949  -9730169.05447  21877899.666    21877905.349
  21934320.374   -11053845.89949  -8147496.19947  21934319.567    21934323.887
  20567306.315   -16582450.05349 -12897419.00048  20567305.820    20567311.095
  23958192.284    -1337901.63449  -1022845.86344  23958201.093    23958211.138
  23848023.529    -2683907.20449  -1895531.43245  23848022.738    23848029.727
  21853348.203   -10149126.72249  -7871256.09447  21853347.362    21853353.444
 04  1  9  1 11 30.0000000  0  9G30G18G 5G10G21G 6G26G29G17
  21245764.915   -11905162.91949  -9260215.04447  21245764.843    21245770.110
                  -3498434.03349   -992280.91143
  23764163.179    -1138459.09449   -436459.03644  23764161.893    23764164.914
  21891502.086   -12443617.58549  -9674473.39647  21891501.009    21891506.769
  21923901.710   -11108596.10149  -8190158.66547  21923900.979    21923905.219
  20561402.995   -16613472.50549 -12921592.33048  20561402.457    20561407.676
  23941456.171    -1425882.47749  -1091402.21844  23941467.757    23941458.353
  23836606.905    -2743900.57449  -1942279.45245  23836606.272    23836612.976
  21864160.742   -10092306.33749  -7826980.46747  21864159.917    21864166.035
 04  1  9  1 12  0.0000000  0  9G30G18G 5G10G21G 6G26G29G17
  21259929.515   -11830727.78349  -9202213.66247  21259929.367    21259934.610
                  -3606440.65449   -794901.95243
  23784623.642    -1030938.47249   -352676.78044  23784622.069    23784625.063
  21905188.024   -12371697.06449  -9618431.42547  21905186.945    21905192.787
  21913524.665   -11163128.61649  -8232651.48847  21913523.813    21913528.016
  20555556.591   -16644195.29749 -12945532.16148  20555556.095    20555561.332
  23924738.304    -1513755.13649  -1159874.16244  23924743.266    23924736.898
  23825241.110    -2803627.17949  -1988819.60245  23825240.510    23825247.262
  21874998.861   -10035351.03449  -7782599.71247  21874998.064    21875004.241
 04  1  9  1 12 30.0000000  0  9G30G18G 5G10G21G 6G26G29G17
  21274173.291   -11755876.60549  -9143888.09347  21274173.126    21274178.333
                  -3714321.06549   -878957.39343
  23805097.384     -923348.83149   -268840.73844  23805095.535    23805097.987
  21918959.063   -12299329.33049  -9562040.97747  21918957.971    21918963.895
  21903189.925   -11217438.06849  -8274970.50447  21903189.038    21903193.213
  20549768.537   -16674611.55549 -12969233.13248  20549768.082    20549773.316
  23908039.944    -1601510.87249  -1228255.12545  23908042.559    23908041.733
  23813927.346    -2863079.12849  -2035145.78545  23813927.002    23813933.668
  21885863.468    -9978256.81049  -7738110.70147  21885862.683    21885868.877
 04  1  9  1 13  0.0000000  0  9G30G18G 5G10G21G 6G26G29G17
  21288494.819   -11680616.39949  -9085243.79947  21288494.682    21288499.828
                  -3822077.36049   -962916.27143
  23825582.532     -815697.48949   -184956.61744  23825580.902    23825583.308
  21932813.923   -12226521.30149  -9505307.43747  21932812.820    21932818.750
  21892896.639   -11271529.20849  -8317119.41347  21892895.804    21892899.999
  20544038.354   -16704724.10849 -12992697.44548  20544037.888    20544043.063
  23891361.720    -1689150.24849  -1296545.63544  23891363.067    23891366.169
  23802666.173    -2922257.71749  -2081258.89645  23802665.667    23802671.859
  21896753.532    -9921028.96149  -7693517.56547  21896752.734    21896758.925
 04  1  9  1 13 30.0000000  0  9G30G18G 5G10G21G 6G26G29G17
  21302893.884   -11604949.00649  -9026282.21747  21302893.704    21302898.815
                  -3929706.35649   -766291.48143
  23846078.821     -707986.32549   -101025.88444  23846077.763    23846079.849
  21946752.137   -12153275.01449  -9448232.40547  21946751.081    21946757.056
  21882645.083   -11325400.95549  -8359097.37047  21882644.301    21882648.513
  20538366.491   -16734530.62149 -13015923.30048  20538365.965    20538371.052
  23874707.464    -1776669.48349  -1364742.39444  23874708.312    23874712.268
  23791457.404    -2981159.37249  -2127156.21145  23791457.147    23791462.770
  21907668.919    -9863667.74449  -7648820.51447  21907668.107    21907674.297
 04  1  9  1 14  0.0000000  0  9G30G18G 5G10G21G 6G26G29G17
  21317369.638   -11528878.29949  -8967006.35647  21317369.492    21317374.567
                  -4037207.30549   -850064.47943
  23866586.136     -600219.11549    -17051.41644  23866585.138    23866587.058
  21960772.992   -12079594.48049  -9390818.99347  21960771.974    21960777.972
  21872435.147   -11379054.64049  -8400905.39847  21872434.329    21872438.480
  20532752.830   -16764030.90149 -13038910.51348  20532752.281    20532757.357
  23858077.351    -1864066.43649  -1432843.70444  23858077.487    23858080.850
  23780301.616    -3039782.81549  -2172836.73245  23780301.071    23780306.993
  21918609.252    -9806175.54449  -7604021.39547  21918608.463    21918614.655
 04  1  9  1 14 30.0000000  0  9G30G18G 5G10G21G 6G26G29G17
  21331922.433   -11452402.93949  -8907415.18247  21331922.278    21331927.312
                  -4144573.69949   -933732.77543
  23887104.736     -492394.11049     66967.98744  23887103.053    23887105.391
  21974876.868   -12005478.14349  -9333065.99247  21974875.780    21974881.774
  21862267.387   -11432486.66749  -8442540.71647  21862266.558    21862270.663
  20527198.455   -16793219.29149 -13061654.70848  20527197.937    20527202.961
  23841471.408    -1951333.31849  -1500843.65244  23841471.193    23841474.454
  23769199.388    -3098120.63449  -2218294.73845  23769199.366    23769205.791
  21929575.110    -9748549.29449  -7559117.81347  21929574.372    21929580.496
 04  1  9  1 15  0.0000000  0  9G30G18G 5G10G21G 6G26G29G17
  21346551.104   -11375528.13649  -8847512.75547  21346551.060    21346556.102
                  -4251805.96449   -737743.75643
  23907632.863     -384517.02049    151028.12244  23907631.394    23907634.115
  21989062.469   -11930931.55049  -9274977.73147  21989061.450    21989067.521
  21852141.171   -11485699.95049  -8484005.58647  21852140.358    21852144.515
  20521703.280   -16822096.93849 -13084156.76448  20521702.731    20521707.702
  23824888.489    -2038469.09848  -1568741.65744  23824887.579    23824894.910
  23758152.220    -3156172.93749  -2263530.26645  23758151.924    23758158.676
  21940565.906    -9690792.40749  -7514112.43947  21940565.173    21940571.173
 04  1  9  1 15 30.0000000  0  9G30G18G 5G10G21G 6G26G29G17
  21361255.356   -11298256.34549  -8787300.99247  21361255.380    21361260.397
                  -4358900.88049   -821188.63043
  23928170.772     -276590.24349    235126.84244  23928169.065    23928172.326
  22003329.662   -11855957.15349  -9216556.11347  22003328.603    22003334.683
  21842056.558   -11538694.49749  -8525300.02047  21842055.769    21842059.983
  20516267.467   -16850662.04249 -13106415.27948  20516266.944    20516271.909
  23808332.323    -2125470.61349  -1636535.14744  23808331.752    23808340.486
  23747160.042    -3213936.79849  -2308541.01145  23747160.052    23747166.657
  21951581.328    -9632906.00749  -7469006.14747  21951580.637    21951586.558
 04  1  9  1 16  0.0000000  0  9G30G18G 5G10G21G 6G26G29G17
  21376034.302   -11220592.88849  -8726784.03047  21376034.279    21376039.285
                  -4465859.30049   -904526.78043
  23948717.121     -168618.86149    319260.38644  23948715.440    23948719.222
  22017677.170   -11780560.32749  -9157805.32347  22017676.130    22017682.231
  21832013.261   -11591472.55249  -8566425.75047  21832012.482    21832016.698
  20510890.950   -16878915.72849 -13128431.12648  20510890.446    20510895.392
  23791803.270    -2212336.76949  -1704222.95745  23791802.726    23791810.353
  23736223.031    -3271411.92149  -2353326.76545  23736223.125    23736229.550
  21962620.784    -9574893.42849  -7423801.53047  21962620.084    21962625.969
 04  1  9  1 16 30.0000000  0  9G30G18G 5G10G21G 6G26G29G17
  21390887.910   -11142536.91449  -8665961.21347  21390887.876    21390892.873
                  -4572675.59549   -708848.95743
  23969271.857      -60602.02349    403429.29544  23969270.339    23969274.778
  22032105.206   -11704740.37349  -9098724.83647  22032104.191    22032110.263
  21822011.780   -11644031.00049  -8607380.36247  21822010.956    21822015.125
  20505574.664   -16906852.99049 -13150200.41148  20505574.126    20505579.064
  23775300.697    -2299060.59749  -1771799.83944  23775299.845    23775307.223
  23725341.874    -3328592.39849  -2397882.91845  23725341.818    23725348.764
  21973684.668    -9516752.51749  -7378496.91347  21973683.915    21973689.798
 04  1  9  1 17  0.0000000  0  9G30G18G 5G10G21G 6G26G29G17
  21405815.307   -11064093.06949  -8604836.16347  21405815.223    21405820.277
                  -4679349.33349   -791971.53144                  23672194.429
  23989833.999       47455.70448    487630.09644  23989833.046    23989837.772
  22046613.063   -11628501.99849  -9039318.29047  22046611.948    22046617.949
  21812051.671   -11696371.77449  -8648165.34847  21812050.871    21812055.003
  20500318.533   -16934474.01849 -13171723.28048  20500318.005    20500322.913
  23758823.105    -2385640.35348  -1839264.58244  23758822.781
  23714517.192    -3385476.98349  -2442208.51245  23714516.952    23714524.128
  21984772.437    -9458486.03249  -7333094.45447  21984771.689    21984777.501
 04  1  9  1 17 30.0000000  0  9G30G18G 5G10G21G 6G26G29G17
  21420816.668   -10985260.73749  -8543408.39847  21420816.537    21420821.623
  23651919.735    -4785874.58249   -874978.20445  23651919.027    23651923.820
  24010404.831      155555.28548    571863.43344  24010403.924
  22061200.494   -11551844.51949  -8979585.18647  22061199.410    22061205.296
  21802133.585   -11748492.00749  -8688778.48747  21802132.678    21802136.814
  20495123.465   -16961774.14349 -13192996.10248  20495122.912    20495127.871
  23742376.867    -2472069.53449  -1906612.00344  23742376.801    23742381.540
  23703750.030    -3442059.66249  -2486298.84245  23703749.636    23703756.783
  21995884.504    -9400091.82849  -7287592.47947  21995883.766    21995889.513
 04  1  9  1 18  0.0000000  0  9G30G18G 5G10G21G 6G26G29G17
  21435890.490   -10906047.26949  -8481683.63747  21435890.322    21435895.481
  23631676.455    -4892254.13749   -957871.32445  23631675.962    23631680.147
  24030982.874      263689.02548    656123.42244  24030981.318    24030987.336
  22075866.267   -11474775.57649  -8919531.44247  22075865.216    22075870.883
  21792256.410   -11800396.44449  -8729223.47347  21792255.566    21792259.673
  20489988.796   -16988756.55149 -13214021.33648  20489988.266    20489993.270
  23725960.157    -2558349.45449  -1973842.96345  23725959.627    23725962.492
  23693039.579    -3498342.38049  -2530155.47145  23693039.092    23693046.349
  22007019.781    -9341575.47949  -7241995.31147  22007019.108    22007024.762
 04  1  9  1 18 30.0000000  0  9G30G18G 5G10G21G 6G26G29G17
  21451036.626   -10826452.99249  -8419662.14447  21451036.526    21451041.755
  23611461.838    -4998483.41649  -1040647.33045  23611461.396    23611465.468
  24051566.746      371856.71648    740409.87244  24051565.165    24051571.459
  22090610.224   -11397295.48249  -8859157.33847  22090609.150    22090614.784
  21782420.733   -11852082.91349  -8769498.62247  21782419.974    21782424.020
  20484915.387   -17015417.26049 -13234795.90748  20484914.879    20484919.874
  23709571.680    -2644473.87749  -2040952.81044  23709571.156    23709573.809
  23682386.930    -3554320.10749  -2573774.42145  23682386.426    23682394.167
  22018178.676    -9282935.47449  -7196301.80047  22018178.002    22018183.582
 04  1  9  1 19  0.0000000  0  9G30G18G 5G10G21G 6G26G29G17
  21466256.015   -10746474.93949  -8357341.60147  21466255.890    21466261.091
  23591277.560    -5104554.08449  -1123299.73445  23591276.709    23591280.993
  24072158.119      480061.96349    824725.57344  24072156.322    24072162.634
  22105433.097   -11319401.30349  -8798460.55847  22105432.018    22105437.557
  21772627.655   -11903545.76849  -8809599.51347  21772626.884    21772630.890
  20479904.556   -17041749.09049 -13255314.19948  20479904.058    20479909.087
  23693212.104    -2730433.49048  -2107934.37244  23693211.634    23693216.836
  23671794.222    -3609984.15149  -2617148.96545  23671794.127    23671801.676
  22029361.974    -9224167.19949  -7150508.33147  22029361.300    22029366.828
 04  1  9  1 19 30.0000000  0  9G30G18G 5G10G21G 6G26G29G17
  21481545.931   -10666125.88349  -8294731.96947  21481545.825    21481551.001
  23571121.690    -5210473.81549  -1205834.51145  23571120.743    23571125.253
  24092753.120      588291.75048    909060.43644  24092751.805    24092758.369
  22120332.370   -11241105.65849  -8737450.96347  22120331.243    22120336.685
  21762875.261   -11954795.20049  -8849534.11347  21762874.455    21762878.359
  20474954.714   -17067760.40649 -13275582.75048  20474954.244    20474959.298
  23676884.624    -2816235.17349  -2174792.85044  23676884.630    23676888.238
  23661260.678    -3665341.94749  -2660284.81645  23661260.359    23661267.307
  22040567.666    -9165281.26949  -7104623.19047  22040566.953    22040572.493
 04  1  9  1 20  0.0000000  0  9G30G18G 5G10G21G 6G26G29G17
  21496906.912   -10585403.38649  -8231831.34247  21496906.831    21496912.009
  23550995.898    -5316235.52549  -1288246.18445  23550994.986    23550999.700
  24113353.099      696548.67748    993416.43944  24113352.045    24113359.208
  22135308.459   -11162406.21149  -8676126.70147  22135307.385    22135312.701
  21753164.441   -12005826.14849  -8889298.45647  21753163.588    21753167.470
  20470067.184   -17093444.70449 -13295596.47548  20470066.688    20470071.728
  23660590.085    -2901870.31349  -2241521.27945  23660589.763    23660591.869
  23650786.578    -3720385.67249  -2703175.97245  23650786.161    23650792.684
  22051796.489    -9106273.88949  -7058643.40947  22051795.670    22051801.275
 04  1  9  1 20 30.0000000  0  9G30G18G 5G10G21G 6G26G29G17
  21512338.397   -10504310.87549  -8168642.38847  21512338.318    21512343.452
  23530900.517    -5421837.40149  -1370533.31245  23530899.428    23530904.377
  24133957.497      804829.67449   1077791.21044  24133956.600    24133964.172
  22150360.665   -11083306.42249  -8614490.50147  22150359.575    22150364.939
  21743494.864   -12056639.67049  -8928893.38947  21743494.052    21743497.917
  20465241.991   -17118801.08349 -13315354.68648  20465241.498    20465246.540
  23644327.002    -2987335.78349  -2308117.61945  23644326.843    23644329.078
  23640372.113    -3775113.14449  -2745820.70645  23640371.792    23640378.128
  22063047.978    -9047146.48249  -7012570.10047  22063047.190    22063052.878
 04  1  9  1 21  0.0000000  0  8G30G18G 5G10G21G 6G29G17
  21527840.159   -10422848.66749  -8105165.35947  21527840.066    21527845.227
  23510835.906    -5527274.54649  -1452692.08545  23510835.218    23510840.233
  24154566.148      913134.35848   1162184.44044  24154565.334    24154574.178
  22165488.966   -11003806.81249  -8552542.74647  22165487.902    22165493.228
  21733867.305   -12107233.26249  -8968316.93247  21733866.427    21733870.219
  20460479.982   -17143825.55449 -13334854.26748  20460479.505    20460484.580
  23630018.667    -3829519.23849  -2788215.01245  23630018.549    23630024.631
  22074322.589    -8987897.62549  -6966402.15147  22074321.875    22074327.574
 04  1  9  1 21 30.0000000  0  8G30G18G 5G10G21G 6G29G17
  21543411.179   -10341022.70349  -8041404.87847  21543411.097    21543416.237
  23490802.729    -5632548.06349  -1534723.31645  23490802.016    23490807.384
  24175177.693     1021457.08848   1246591.77044  24175177.515    24175187.345
  22180692.398   -10923913.28249  -8490288.03547  22180691.247    22180696.511
  21724280.828   -12157610.17149  -9007571.63447  21724279.954    21724283.747
  20455780.878   -17168519.60949 -13354096.37548  20455780.398    20455785.487
  23619726.772    -3883604.37049  -2830359.19845  23619726.672    23619732.244
  22085619.719    -8928531.19649  -6920142.58647  22085618.914    22085624.617
 04  1  9  1 22  0.0000000  0  9G30G18G 5G10G21G 6G26G29G17
  21559050.456   -10258838.33049  -7977365.12547  21559050.320    21559055.458
  23470800.708    -5737658.48249  -1616627.48245  23470800.024    23470805.523
  24195792.980     1129792.53848   1331008.99244  24195792.393    24195803.058
  22195969.615   -10843631.42249  -8427730.73547  22195968.421    22195973.665
  21714735.008   -12207773.37049  -9046659.81647  21714734.113    21714737.946
  20451144.396   -17192884.58649 -13373082.06748  20451143.928    20451148.976
                   -790530.91449   -596144.41743
  23609496.274    -3937368.63749  -2872253.35945  23609495.926    23609501.115
  22096938.495    -8869051.26549  -6873794.58147  22096937.688    22096943.351
 04  1  9  1 22 30.0000000  0  8G30G18G 5G10G21G 6G29G17
  21574759.018   -10176289.28549  -7913041.21047  21574758.895    21574764.033
  23450831.855    -5842594.31049  -1698395.61045  23450831.277    23450836.736
  24216411.849     1238147.44748   1415441.34044  24216411.157    24216422.417
  22211321.841   -10762954.74049  -8364865.78047  22211320.722    22211325.996
  21705231.492   -12257714.00249  -9085574.56647  21705230.662    21705234.533
  20446572.595   -17216909.63849 -13391802.88148  20446572.143    20446577.174
  23599328.769    -3990800.12749  -2913888.23145  23599328.305    23599333.209
  22108280.490    -8809449.00049  -6827351.25147  22108279.637    22108285.308
 04  1  9  1 23  0.0000000  0  8G30G18G 5G10G21G 6G29G17
  21590535.714   -10093382.33649  -7848438.41047  21590535.563    21590540.703
  23430896.194    -5947356.96249  -1780028.80245  23430895.549    23430901.055
  24237033.495     1346515.72848   1499884.15544  24237032.991    24237044.438
  22226747.957   -10681889.98649  -8301698.43547  22226746.853    22226752.199
  21695769.597   -12307436.22049  -9124319.12347  21695768.712    21695772.724
  20442065.010   -17240597.41149 -13410260.87848  20442064.543    20442069.570
  23589224.311    -4043900.14549  -2955264.81245  23589223.630    23589228.563
  22119644.688    -8749729.59949  -6780816.64547  22119643.839    22119649.556
 04  1  9  1 23 30.0000000  0  8G30G18G 5G10G21G 6G29G17
  21606379.110   -10010124.53149  -7783562.21447  21606378.955    21606384.135
  23410992.862    -6051948.54749  -1861528.68245  23410992.237    23410997.904
  24257657.216     1454890.31548   1584331.86544  24257656.204    24257667.473
  22242246.543   -10600444.54749  -8238234.45447  22242245.394    22242250.821
  21686348.334   -12356944.31949  -9162896.84147  21686347.504    21686351.555
  20437621.089   -17263950.60249 -13428458.16248  20437620.600    20437625.578
  23579182.815    -4096670.26149  -2996384.33445  23579182.012    23579186.546
  22131030.226    -8689898.07749  -6734194.66747  22131029.417    22131035.162
 04  1  9  1 24  0.0000000  0  8G30G18G 5G10G21G 6G29G17
  21622289.322    -9926515.45049  -7718412.29947  21622289.220    21622294.436
  23391123.266    -6156363.86749  -1942891.23245  23391122.484    23391128.283
  24278281.195     1563271.67558   1668784.82744  24278280.955    24278292.141
  22257817.786   -10518617.70149  -8174473.25547  22257816.624    22257821.981
  21676968.413   -12406235.46549  -9201305.50047  21676967.628    21676971.749
  20433241.685   -17286964.72149 -13446391.23148  20433241.191    20433246.154
  23569205.311    -4149104.82049  -3037242.38245  23569204.289    23569208.507
  22142437.629    -8629952.39749  -6687483.73547  22142436.770    22142442.482
 04  1  9  1 24 30.0000000  0  9G30G18G 5G10G21G 6G26G29G17
  21638265.981    -9842557.46149  -7652990.51547  21638265.900    21638271.209
  23371287.397    -6260600.37849  -2024114.45745  23371286.796    23371292.636
  24298906.489     1671657.54358   1753241.31444  24298907.237    24298917.531
  22273460.992   -10436412.06149  -8110416.92047  22273459.805    22273465.306
  21667629.979   -12455309.17249  -9239544.73347  21667629.182    21667633.294
  20428927.249   -17309637.60049 -13464058.40548  20428926.748    20428931.630
                   -813960.74549   -619337.39643
  23559291.933    -4201200.36449  -3077836.25645  23559291.022    23559294.938
  22153866.631    -8569892.79649  -6640684.03547  22153865.758    22153871.460
 04  1  9  1 25  0.0000000  0  8G30G18G 5G10G21G 6G29G17
  21654308.313    -9758254.07349  -7587299.58647  21654308.314    21654313.675
  23351486.100    -6364656.39249  -2105197.03745  23351485.194    23351491.342
  24319531.212     1780044.83848   1837698.92944  24319533.098    24319542.709
  22289175.600   -10353831.17349  -8046068.17347  22289174.456    22289179.971
  21658332.753   -12504166.32149  -9277615.20947  21658331.929    21658336.053
  20424677.874   -17331968.61649 -13481459.18848  20424677.380    20424682.161
  23549443.424    -4252955.21749  -3118164.63445  23549442.320    23549446.196
  22165317.030    -8509720.93449  -6593796.86647  22165316.161    22165321.824
 04  1  9  1 25 30.0000000  0  8G30G18G 5G10G21G 6G29G17
  21670415.583    -9673609.93349  -7521343.13747  21670415.573    21670420.964
  23331719.554    -6468530.82649  -2186138.09345  23331718.258    23331724.779
  24340158.008     1888429.21648   1922154.15644  24340157.755    24340167.424
  22304960.869   -10270879.46349  -7981430.47147  22304959.658    22304965.227
  21649076.359   -12552808.85249  -9315518.45347  21649075.557    21649079.640
  20420493.533   -17353957.89349 -13498593.67948  20420493.007    20420497.779
  23539659.621    -4304368.40449  -3158226.80645  23539658.763    23539662.644
  22176788.280    -8449439.33149  -6546824.17547  22176787.390    22176793.067
 04  1  9  1 26  0.0000000  0  9G30G18G 5G10G21G 6G26G29G17
  21686587.285    -9588627.00149  -7455122.68747  21686587.298    21686592.700
  23311988.002    -6572220.70249  -2266935.36545  23311986.527    23311993.239
  24360784.122     1996808.71958   2006605.65344  24360782.493    24360792.225
  22320816.178   -10187559.03449  -7916505.45447  22320815.031    22320820.611
  21639860.934   -12601236.22749  -9353254.03747  21639860.107    21639864.180
  20416374.580   -17375603.10549 -13515460.06048  20416374.068    20416378.817
                   -748803.42849   -554691.64843
  23529941.472    -4355436.51449  -3198020.08845  23529940.622    23529944.814
  22188280.395    -8389048.17949  -6499766.11847  22188279.493    22188285.121
 04  1  9  1 26 30.0000000  0  9G30G18G 5G10G21G 6G26G29G17
  21702822.917    -9503308.28549  -7388640.59247  21702822.948    21702828.350
  23292291.818    -6675724.23949  -2347587.43945  23292290.314    23292297.176
  24381408.101     2105181.01848   2091051.57344  24381404.775    24381414.785
  22336741.088   -10103872.99049  -7851295.55547  22336739.897    22336745.567
  21630686.415   -12649448.72249  -9390822.18647  21630685.598    21630689.609
  20412321.374   -17396902.92349 -13532057.31948  20412320.854    20412325.569
                   -831956.44649   -619486.45143
  23520289.383    -4406157.19649  -3237542.64245  23520288.783    23520293.203
  22199793.057    -8328548.60449  -6452623.58447  22199792.154    22199797.818
 04  1  9  1 27  0.0000000  0  9G30G18G 5G10G21G 6G26G29G17
  21719122.379    -9417654.65949  -7321897.53047  21719122.354    21719127.684
  23272631.672    -6779037.21949  -2428091.03445  23272630.294    23272637.157
  24402028.359     2213545.61958   2175491.55244  24402025.881    24402036.037
  22352735.472   -10019822.10049  -7785801.35447  22352734.294    22352739.971
  21621553.077   -12697444.62349  -9428221.56447  21621552.251    21621556.244
  20408334.499   -17417853.76449 -13548382.63948  20408334.024    20408338.756
                   -914892.82649   -684112.11343
  23510704.131    -4456525.82649  -3276790.87945  23510703.719    23510708.393
  22211326.591    -8267939.09949  -6405395.39047  22211325.700    22211331.474
 04  1  9  1 27 30.0000000  0  9G30G18G 5G10G21G 6G26G29G17
  21735485.324    -9331666.56349  -7254893.83247  21735485.367    21735490.655
  23253008.947    -6882155.04949  -2508442.54945  23253007.439    23253014.200
  24422647.217     2321902.18648   2259925.13544  24422644.527    24422655.808
  22368799.242    -9935406.60949  -7720023.05047  22368798.073    22368803.725
  21612461.399   -12745221.80349  -9465450.51147  21612460.545    21612464.551
  20404414.861   -17438451.74249 -13564432.99948  20404414.368    20404419.091
  23420405.294     -997606.43849   -748564.20045  23420406.250    23420415.024
  23501187.084    -4506537.20149  -3315760.72645  23501186.837    23501191.542
  22222881.232    -8207218.50049  -6358080.63347  22222880.340    22222886.269
 04  1  9  1 28  0.0000000  0  9G30G18G 5G10G21G 6G26G29G17
  21751911.134    -9245348.77149  -7187633.22847  21751911.165    21751916.390
  23233423.482    -6985077.40149  -2588641.74745  23233421.757    23233428.552
  24443263.252     2430246.39048   2344349.25644  24443260.895    24443273.552
  22384931.502    -9850631.62249  -7653964.61047  22384930.285    22384935.909
  21603410.933   -12792782.27549  -9502510.59847  21603410.110    21603414.112
  20400562.220   -17458697.64849 -13580209.01648  20400561.715    20400566.367
  23404707.666    -1080095.90149   -812841.65945  23404708.757    23404716.693
  23491738.102    -4556190.94049  -3354451.87345  23491738.018    23491742.500
  22234456.414    -8146389.31849  -6310681.26347  22234455.627    22234461.712
 04  1  9  1 28 30.0000000  0  9G30G18G 5G10G21G 6G26G29G17
  21768398.980    -9158705.15449  -7120118.73447  21768398.981    21768404.114
  23213875.004    -7087803.02449  -2668687.65045  23213873.529    23213880.506
  24463875.624     2538574.65048   2428760.89644  24463874.871    24463887.474
  22401131.317    -9765500.85349  -7587628.94247  22401130.160    22401135.721
  21594401.567   -12840127.15349  -9539402.69047  21594400.678    21594404.620
  20396776.689   -17478590.90749 -13595710.24348  20396776.186    20396780.778
  23389054.325    -1162358.51849   -876942.32545  23389055.464    23389062.901
  23482357.476    -4605485.33849  -3392863.03145  23482357.552    23482362.029
  22246052.071    -8085453.44549  -6263198.76247  22246051.249    22246057.463
 04  1  9  1 29  0.0000000  0  9G30G18G 5G10G21G 6G26G29G17
  21784948.529    -9071737.36149  -7052351.63447  21784948.504    21784953.537
  23194364.514    -7190328.31549  -2748577.46045  23194363.477    23194370.579
  24484485.770     2646886.25948   2513159.56744  24484485.824    24484498.690
  22417398.575    -9680015.78149  -7521017.19747  22417397.389    22417402.920
  21585433.390   -12887255.42949  -9576125.99547  21585432.526    21585436.390
  20393058.797   -17498128.75949 -13610934.53048  20393058.270    20393062.835
  23373444.772    -1244389.61749   -940862.59445  23373445.331    23373453.189
  23473046.118    -4654416.69149  -3430991.28345  23473046.069    23473050.619
  22257668.108    -8024410.27949  -6215632.65547  22257667.368    22257673.610
 04  1  9  1 29 30.0000000  0  9G30G18G 5G10G21G 6G26G29G17
  21801558.459    -8984451.94549  -6984337.02647  21801558.415    21801563.395
  23174892.292    -7292654.87649  -2828312.39545  23174891.337    23174898.380
  24505091.331     2755174.69548   2597540.19744  24505092.507    24505105.546
  22433732.011    -9594183.08049  -7454134.56247  22433730.782    22433736.336
  21576505.663   -12934170.94949  -9612683.51347  21576504.797    21576508.657
  20389408.114   -17517313.29249 -13625883.50148  20389407.587    20389412.116
  23357878.633    -1326189.23449  -1004602.48145  23357878.818    23357887.306
  23463803.518    -4702985.89749  -3468837.36245  23463803.477    23463808.113
  22269303.871    -7963264.47049  -6167986.56247  22269303.052    22269309.297
 04  1  9  1 30  0.0000000  0  9G30G18G 5G10G21G 6G26G29G17
  21818228.029    -8896852.96649  -6916078.09347  21818227.945    21818232.908
  23155458.170    -7394781.56449  -2907891.59545  23155457.250    23155464.118
  24525694.466     2863436.07848   2681899.75044  24525694.564    24525706.792
  22450130.775    -9508006.84849  -7386984.26147  22450129.549    22450135.130
  21567618.146   -12980874.93949  -9649076.21347  21567617.309    21567621.202
  20385824.680   -17536144.30549 -13640557.01248  20385824.158    20385828.626
  23342356.827    -1407755.04149  -1068160.20445  23342356.942    23342365.612
  23454629.699    -4751191.80749  -3506400.35745  23454629.629    23454634.666
  22280958.547    -7902017.94049  -6120261.99346  22280957.814    22280964.102
 04  1  9  1 30 30.0000000  0  9G30G18G 5G10G21G 6G26G29G17
  21834958.398    -8808934.28349  -6847570.04147  21834958.273    21834963.270
  23136064.100    -7496697.26249  -2987306.39445  23136063.516    23136070.122
  24546292.498     2971677.12149   2766243.35344  24546291.994    24546304.466
  22466596.159    -9421480.76349  -7319561.32547  22466594.950    22466600.451
  21558772.541   -13027358.75849  -9685297.34347  21558771.663    21558775.582
  20382310.547   -17554611.26449 -13654946.83448  20382310.030    20382314.479
  23326882.480    -1489074.65549  -1131526.06545  23326882.624    23326890.804
  23445527.529    -4799022.91049  -3543671.30045  23445527.360    23445532.582
  22292634.014    -7840662.70549  -6072452.72146  22292633.261    22292639.567
 04  1  9  1 31  0.0000000  0  9G30G18G 5G10G21G 6G26G29G17
  21851746.658    -8720710.97249  -6778824.61247  21851746.551    21851751.625
  23116708.611    -7598411.98449  -3066564.57145  23116708.026    23116714.408
  24566885.110     3079882.78849   2850559.49444  24566883.847    24566895.719
  22483125.379    -9334619.94049  -7251877.56447  22483124.007    22483129.509
  21549966.428   -13073634.65049  -9721356.45847  21549965.629    21549969.530
  20378863.593   -17572725.03149 -13669061.44648  20378863.077    20378867.501
  23311453.706    -1570156.64749  -1194706.74045  23311453.725    23311461.393
  23436494.996    -4846488.71949  -3580657.59445  23436494.653    23436500.061
  22304327.625    -7779211.68049  -6024568.81346  22304326.956    22304333.276
 04  1  9  1 31 30.0000000  0  9G30G18G 5G10G21G 6G26G29G17
  21868593.869    -8632177.90949  -6709837.82847  21868593.768    21868598.949
  23097393.613    -7699915.32349  -3145658.04245  23097392.917    23097398.939
  24587471.813     3188059.13349   2934852.69444  24587470.017    24587481.007
  22499718.982    -9247419.26749  -7183928.99447  22499717.670    22499723.257
  21541201.524   -13119694.99749  -9757247.61547  21541200.657    21541204.510
  20375485.690   -17590476.17349 -13682893.49648  20375485.165    20375489.574
  23296072.621    -1650989.35049  -1257693.16245  23296072.314    23296079.429
  23427534.067    -4893578.77249  -3617351.08945  23427533.686    23427539.070
  22316041.027    -7717657.56749  -5976604.56946  22316040.327    22316046.596
 04  1  9  1 32  0.0000000  0  9G30G18G 5G10G21G 6G26G29G17
  21885499.042    -8543340.08949  -6640613.56947  21885498.974    21885504.281
  23078118.978    -7801207.19149  -3224586.72245  23078118.001    23078123.680
  24608051.537     3296201.64749   3019119.58745  24608050.038    24608059.878
  22516376.301    -9159883.65849  -7115719.42846  22516375.078    22516380.601
  21532477.061   -13165542.15649  -9792972.65747  21532476.227    21532480.115
  20372176.631   -17607865.24549 -13696443.40748  20372176.096    20372180.517
  23280738.320    -1731571.39149  -1320484.32345  23280738.011    23280745.070
  23418644.882    -4940292.88649  -3653751.64145  23418644.509    23418649.550
  22327773.575    -7656002.94649  -5928562.01546  22327772.914    22327778.975
 04  1  9  1 32 30.0000000  0  9G30G18G 5G10G21G 6G26G29G17
  21902461.606    -8454200.98549  -6571154.55147  21902461.542    21902466.946
  23058884.409    -7902286.16849  -3303349.50746  23058883.576    23058888.857
  24628624.440     3404306.85849   3103357.38544  24628622.998    24628631.560
  22533096.852    -9072016.62349  -7047251.60846  22533095.573    22533101.103
  21523793.171   -13211176.71049  -9828532.02347  21523792.348    21523796.153
  20368936.665   -17624891.39349 -13709710.52448  20368936.129    20368940.543
  23265452.005    -1811899.76649  -1383077.81345  23265451.683    23265458.737
  23409827.630    -4986628.91049  -3689857.57445  23409827.144    23409832.111
  22339524.988    -7594249.55049  -5880442.48446  22339524.269    22339530.099
 04  1  9  1 33  0.0000000  0  9G30G18G 5G10G21G 6G26G29G17
  21919481.556    -8364759.98549  -6501460.28247  21919481.618    21919487.076
  23039691.760    -8003146.27749  -3381941.75046  23039690.763    23039695.659
  24649189.389     3512375.97549   3187567.03644  24649187.733    24649196.477
  22549880.497    -8983817.43849  -6978524.96946  22549879.263    22549884.829
  21515150.368   -13256595.33349  -9863923.13847  21515149.512    21515153.297
  20365766.687   -17641549.68949 -13722691.00148  20365766.154    20365770.559
  23250215.507    -1891967.56549  -1445468.27445  23250215.390    23250222.072
  23401083.125    -5032581.05349  -3725664.42345  23401082.648    23401087.549
  22351295.720    -7532394.47849  -5832243.71346  22351295.030    22351300.620
 04  1  9  1 33 30.0000000  0  9G30G18G 5G10G21G 6G26G29G17
  21936557.022    -8275028.27949  -6431539.48947  21936556.977    21936562.481
  23020539.494    -8103793.71749  -3460368.28746  23020538.322    23020542.871
  24669745.489     3620398.38148   3271740.31444  24669744.190    24669752.724
  22566725.357    -8895297.03349  -6909548.02246  22566724.102    22566729.592
  21506547.065   -13301806.55449  -9899152.63547  21506546.188    21506549.870
  20362665.369   -17657846.95649 -13735390.16348  20362664.850    20362669.248
  23235028.279    -1971779.46949  -1507659.27545  23235028.024    23235033.753
  23392410.495    -5078155.03249  -3761176.56645  23392410.162    23392415.256
  22363084.140    -7470446.50049  -5783972.55746  22363083.360    22363088.824
 04  1  9  1 34  0.0000000  0  9G30G18G 5G10G21G 6G26G29G17
  21953689.231    -8184998.24149  -6361386.23947  21953689.147    21953694.693
  23001429.987    -8204215.40249  -3538618.90146  23001428.782    23001433.076
  24690294.019     3728382.30849   3355883.53344  24690292.965    24690301.744
  22583632.845    -8806447.80549  -6840314.86846  22583631.597    22583637.080
  21497985.195   -13346800.06149  -9934212.48747  21497984.255    21497987.906
  20359635.055   -17673771.24149 -13747798.69148  20359634.548    20359638.942
  23219892.183    -2051321.31949  -1569639.88145  23219891.943    23219896.905
  23383812.434    -5123337.88249  -3796383.94545  23383812.194    23383817.331
  22374892.030    -7408396.20549  -5735621.67046  22374891.265    22374896.584
 04  1  9  1 34 30.0000000  0  9G30G18G 5G10G21G 6G26G29G17
  21970876.457    -8094679.18849  -6291007.76747  21970876.369    21970881.889
  22982362.290    -8304415.84749  -3616697.12746  22982361.273    22982365.381
  24710834.788     3836318.52149   3439989.67344  24710833.344    24710841.258
  22600601.068    -8717279.27849  -6770832.88846  22600599.820    22600605.124
  21489463.380   -13391582.50249  -9969107.86847  21489462.445    21489466.108
  20356674.736   -17689327.69149 -13759920.58648  20356674.218    20356678.609
  23204806.734    -2130596.18049  -1631412.44445  23204806.516    23204810.994
  23375288.104    -5168133.57549  -3831289.59445  23375287.995    23375293.093
  22386718.012    -7346250.54549  -5687196.46446  22386717.278    22386722.486
 04  1  9  1 35  0.0000000  0  9G30G18G 5G10G21G 6G26G29G17
  21988118.698    -8004071.63949  -6220404.50647  21988118.502    21988123.994
  22963337.795    -8404390.45649  -3694599.36246  22963336.664    22963340.652
  24731366.260     3944207.25149   3524058.73945  24731364.311    24731371.957
  22617630.054    -8627791.76349  -6701102.35346  22617628.801    22617633.987
  21480982.186   -13436151.25749 -10003836.74247  21480981.266    21480984.930
  20353785.200   -17704512.26649 -13771752.71748  20353784.678    20353789.058
  23189773.140    -2209597.88749  -1692972.16745  23189772.975    23189777.274
  23366838.505    -5212537.20349  -3865889.80445  23366838.464    23366843.214
  22398562.479    -7284007.86849  -5638695.66046  22398561.718    22398566.780
 04  1  9  1 35 30.0000000  0  9G30G18G 5G10G21G 6G26G29G17
  22005415.358    -7913177.10449  -6149577.60947  22005415.158    22005420.654
  22944356.784    -8504135.71049  -3772322.91246  22944355.782    22944359.572
  24751888.107     4052047.42749   3608090.08345  24751886.704    24751892.974
  22634719.356    -8537986.53649  -6631124.25646  22634718.071    22634723.269
  21472541.857   -13480505.20849 -10038398.24047  21472540.969    21472544.626
  20350966.948   -17719322.11249 -13783292.85248  20350966.419    20350970.822
  23174792.379    -2288321.63949  -1754315.29245  23174792.135    23174796.728
  23358464.251    -5256545.13449  -3900181.64645  23358463.962    23358468.631
  22410425.593    -7221667.43349  -5590118.69546  22410424.776    22410429.665
 04  1  9  1 36  0.0000000  0  9G30G18G 5G10G21G 6G26G29G17
  22022766.198    -7821997.85649  -6078528.85147  22022766.056    22022771.500
  22925419.970    -8603648.65849  -3849865.41246  22925419.014    22925422.775
  24772400.273     4159837.42149   3692082.17345  24772398.715    24772404.881
  22651868.646    -8447865.83249  -6560900.31746  22651867.418    22651872.574
  21464142.445   -13524644.19749 -10072792.22347  21464141.564    21464145.242
  20348220.342   -17733755.32449 -13794539.49648  20348219.831    20348224.275
  23159865.255    -2366763.07749  -1815438.43645  23159865.089    23159869.942
  23350165.654    -5300154.23649  -3934162.73745  23350165.298    23350169.846
  22422307.200    -7159229.42149  -5541465.68846  22422306.390    22422311.168
 04  1  9  1 36 30.0000000  0  9G30G18G 5G10G21G 6G26G29G17
  22040169.395    -7730543.78449  -6007265.95347  22040169.238    22040174.639
  22906526.469    -8702934.21449  -3927230.72246  22906525.534    22906529.256
  24792900.735     4267567.74649   3776027.93245  24792899.602    24792905.160
  22669076.176    -8357439.68149  -6490438.37646  22669074.906    22669080.037
  21455782.549   -13568575.10649 -10107024.07247  21455781.702    21455785.411
  20345544.275   -17747817.63749 -13805497.13848  20345543.783    20345548.274
  23144991.288    -2444925.80249  -1876344.41645  23144991.066    23144996.189
  23341941.850    -5343369.02349  -3967836.57245  23341941.511    23341946.177
  22434205.940    -7096701.47449  -5492742.59646  22434205.123    22434209.834
 04  1  9  1 37  0.0000000  0  9G30G18G 5G10G21G 6G26G29G17
  22057626.072    -7638808.87049  -5935784.22047  22057625.883    22057631.187
  22887678.205    -8801981.18649  -4004410.15046  22887677.451    22887681.148
  24813391.896     4375244.58149   3859931.94445  24813390.436    24813395.096
  22686342.845    -8266701.90649  -6419733.61646  22686341.672    22686346.829
  21447463.878   -13612289.50549 -10141087.21647  21447463.060    21447466.751
  20342940.845   -17761498.62649 -13816157.64748  20342940.366    20342944.856
  23130172.631    -2522797.44149  -1937023.55045  23130172.544    23130177.672
  23333795.470    -5386178.31049  -4001194.42145  23333795.060    23333799.748
  22446123.418    -7034075.19449  -5443942.88946  22446122.572    22446127.264
 04  1  9  1 37 30.0000000  0  9G30G18G 5G10G21G 6G26G29G17
  22075134.708    -7546800.36649  -5864089.28747  22075134.612    22075139.837
  22868875.202    -8900791.85849  -4081405.43546  22868874.318    22868878.061
  24833871.096     4482861.59349   3943789.33345  24833869.799    24833874.309
  22703667.574    -8175659.85349  -6348791.74946  22703666.339    22703671.509
  21439185.621   -13655791.64549 -10174984.96547  21439184.801    21439188.487
  20340409.391   -17774801.12849 -13826523.22748  20340408.938    20340413.446
  23115409.181    -2600378.63549  -1997476.37045  23115409.096    23115414.146
  23325726.117    -5428584.05649  -4034237.81745  23325725.636    23325730.110
  22458058.655    -6971355.65449  -5395070.52046  22458057.790    22458062.411
 04  1  9  1 38  0.0000000  0  8G30G18G10G21G 6G26G29G17
  22092695.453    -7454518.69849  -5792181.50447  22092695.295    22092700.479
  22850118.057    -8999361.20649  -4158212.65946  22850117.163    22850120.975
  22721050.077    -8084313.45749  -6277612.73346  22721048.865    22721054.119
  21430948.257   -13699079.20349 -10208715.50447  21430947.394    21430951.069
  20337950.826   -17787721.17049 -13836590.78948  20337950.360    20337954.822
  23100702.095    -2677663.29649  -2057698.12645  23100702.038    23100706.880
  23317734.597    -5470581.20149  -4066962.82345  23317734.088    23317738.246
  22470011.996    -6908540.98649  -5346124.01946  22470011.105    22470015.641
 04  1  9  1 38 30.0000000  0  8G30G18G10G21G 6G26G29G17
  22110307.027    -7361969.08849  -5720064.94247  22110306.953    22110312.073
  22831406.645    -9097689.70549  -4234832.22046  22831405.787    22831409.736
  22738489.571    -7992668.15049  -6206200.80146  22738488.362    22738493.678
  21422751.139   -13742154.87149 -10242280.94047  21422750.319    21422754.032
  20335564.809   -17800259.67449 -13846361.04448  20335564.352    20335568.812
  23086051.362    -2754650.26149  -2117687.89745  23086051.370    23086056.346
  23309820.761    -5512169.96949  -4099369.60645  23309820.237    23309824.064
  22481982.759    -6845634.38149  -5297105.89046  22481981.828    22481986.342
 04  1  9  1 39  0.0000000  0  8G30G18G10G21G 6G26G29G17
  22127968.515    -7269157.61849  -5647744.33147  22127968.466    22127973.523
  22812740.992    -9195778.39549  -4311264.91946  22812740.069    22812744.018
  22755984.809    -7900729.84649  -6134560.56246  22755983.551    22755988.948
  21414593.806   -13785021.87349 -10275683.76947  21414592.956    21414596.682
  20333251.096   -17812418.41749 -13855835.38048  20333250.604    20333255.087
  23071457.822    -2831339.31849  -2177445.54745  23071457.742    23071462.896
  23301984.440    -5553351.08049  -4131458.74645  23301983.822    23301987.491
  22493970.233    -6782639.22849  -5248018.76046  22493969.329    22493973.952
 04  1  9  1 39 30.0000000  0  8G30G18G10G21G 6G26G29G17
  22145679.716    -7176084.67549  -5575219.97847  22145679.725    22145684.750
  22794121.900    -9293622.02149  -4387506.66446  22794121.038    22794124.947
  22773535.777    -7808498.60749  -6062692.06046  22773534.550    22773539.934
  21406476.545   -13827677.70949 -10308922.06247  21406475.755    21406479.488
  20331010.391   -17824193.20849 -13865010.54048  20331009.905    20331014.393
  23056922.390    -2907724.09749  -2236966.09845  23056922.245    23056927.591
  23294226.476    -5594119.60849  -4163226.38945  23294225.953    23294229.473
  22505974.904    -6719553.69349  -5198861.20946  22505974.029    22505978.805
 04  1  9  1 40  0.0000000  0  8G30G18G10G21G 6G26G29G17
  22163440.461    -7082751.62649  -5502492.96047  22163440.430    22163445.482
  22775550.099    -9391217.36749  -4463554.93246  22775549.285    22775553.159
  22791142.307    -7715975.90549  -5990596.45146  22791140.972    22791146.483
  21398399.853   -13870121.07449 -10341994.79947  21398398.987    21398402.769
  20328843.218   -17835581.55049 -13873884.56648  20328842.715    20328847.275
  23042445.855    -2983799.85149  -2296245.87145  23042445.687    23042451.068
  23286547.632    -5634471.66349  -4194669.51445  23286547.149    23286550.793
  22517996.868    -6656377.02749  -5149632.64046  22517996.046    22518000.977
 04  1  9  1 40 30.0000000  0  8G30G18G10G21G 6G26G29G17
  22181249.129    -6989166.33549  -5429569.36847  22181249.191    22181254.212
  22757025.081    -9488567.42849  -4539412.07146  22757024.170    22757027.995
  22808802.766    -7623169.51749  -5918279.77446  22808801.436    22808807.070
  21390362.503   -13912357.04549 -10374905.91247  21390361.691    21390365.485
  20326748.945   -17846586.78249 -13882460.06348  20326748.455    20326753.073
  23028027.821    -3059567.71449  -2355285.73445  23028027.479    23028032.988
  23278947.519    -5674410.06849  -4225790.29946  23278947.130    23278950.822
  22530035.165    -6593114.76749  -5100337.35946  22530034.332    22530039.495
 04  1  9  1 41  0.0000000  0  8G30G18G10G21G 6G26G29G17
  22199106.224    -6895326.57149  -5356447.49547  22199106.318    22199111.378
  22738548.058    -9585664.51349  -4615072.08146  22738547.212    22738551.014
  22826517.572    -7530077.01149  -5845740.16946  22826516.232    22826522.070
  21382365.577   -13954380.65449 -10407651.56547  21382364.777    21382368.554
  20324728.926   -17857202.33749 -13890731.92348  20324728.393    20324733.012
  23013669.770    -3135019.15049  -2414079.04045  23013669.449    23013674.959
  23271427.557    -5713927.32449  -4256582.92946  23271427.196    23271431.019
  22542090.606    -6529762.22349  -5050971.73846  22542089.756    22542095.187
 04  1  9  1 41 30.0000000  0  8G30G18G10G21G 6G26G29G17
  22217010.309    -6801240.23249  -5283133.47547  22217010.384    22217015.400
  22720118.811    -9682511.20349  -4690536.96546  22720117.910    22720121.717
  22844285.389    -7436706.18849  -5772983.66346  22844284.091    22844289.979
  21374408.070   -13996197.04149 -10440235.74347  21374407.316    21374411.079
  20322782.255   -17867432.00549 -13898703.08248  20322781.731    20322786.432
  22999371.637    -3210155.54649  -2472626.83745  22999371.476    22999376.494
  23263987.229    -5753026.16549  -4287049.52346  23263986.957    23263990.849
  22554162.184    -6466325.29749  -5001540.35646  22554161.270    22554166.917
 04  1  9  1 42  0.0000000  0  8G30G18G10G21G 6G26G29G17
  22234962.699    -6706900.38249  -5209621.92747  22234962.705    22234967.644
  22701739.399    -9779095.68149  -4765797.53646  22701738.454    22701742.313
  22862107.391    -7343050.00749  -5700004.83346  22862106.144    22862112.190
  21366492.036   -14037796.08649 -10472650.57647  21366491.266    21366494.978
  20320911.204   -17877264.58849 -13906364.83748  20320910.646    20320915.404
                  -3284963.75149  -2530918.88645                  22985140.154
  23256628.920    -5791694.46449  -4317180.63746  23256628.551    23256632.688
  22566251.593    -6402794.43849  -4952035.79246  22566250.700    22566256.453
 04  1  9  1 42 30.0000000  0  8G30G18G10G21G 6G26G29G17
  22252960.649    -6612321.24649  -5135923.91447  22252960.586    22252965.502
  22683407.947    -9875427.00749  -4840860.84046  22683407.114    22683411.085
  22879981.069    -7249122.57549  -5626814.62346  22879979.820    22879986.024
  21358615.057   -14079189.66449 -10504905.29547  21358614.289    21358618.015
  20319113.717   -17886709.86249 -13913724.78148  20319113.201    20319118.041
  22970961.783    -3359451.13749  -2588960.98045  22970961.614    22970965.236
  23249350.812    -5829941.08749  -4346983.15946  23249350.419    23249354.579
  22578356.712    -6339181.50149  -4902467.27246  22578355.810    22578361.644
 04  1  9  1 43  0.0000000  0  8G30G18G10G21G 6G26G29G17
  22271004.716    -6517498.89049  -5062036.37247  22271004.695    22271009.593
  22665126.299    -9971496.59449  -4915720.20446  22665125.570    22665129.705
  22897907.145    -7154919.85949  -5553409.91946  22897905.929    22897912.259
  21350778.381   -14120371.39149 -10536994.94347  21350777.654    21350781.335
  20317391.591   -17895759.80049 -13920776.68448  20317391.053    20317395.937
  22956850.434    -3433607.54949  -2646745.17345  22956850.213    22956853.844
  23242154.612    -5867757.30149  -4376450.30746  23242154.241    23242158.411
  22590478.660    -6275480.35649  -4852830.01946  22590477.757    22590483.628
 04  1  9  1 43 30.0000000  0  8G30G18G10G21G 6G26G29G17
  22289093.403    -6422441.91049  -4987966.00247  22289093.432    22289098.377
  22646893.955   -10067307.45649  -4990377.92946  22646893.223    22646897.577
  22915884.217    -7060450.19049  -5479797.17946  22915882.915    22915889.272
  21342981.089   -14161346.60549 -10568923.66647  21342980.352    21342984.027
  20315743.810   -17904418.60849 -13927523.79648  20315743.314    20315748.268
  22942801.525    -3507435.11649  -2704273.11845  22942801.379    22942805.195
  23235039.790    -5905146.41949  -4405584.64446  23235039.257    23235043.353
  22602616.248    -6211696.96849  -4803128.66646  22602615.335    22602621.289
 04  1  9  1 44  0.0000000  0  8G30G18G10G21G 6G26G29G17
  22307227.138    -6327148.52649  -4913711.43047  22307227.168    22307232.086
  22628712.134   -10162852.85349  -5064828.82246  22628711.409    22628715.812
  22933912.221    -6965712.01049  -5405975.22646  22933910.924    22933917.357
  21335224.012   -14202110.63949 -10600687.83247  21335223.222    21335226.869
  20314171.650   -17912680.32049 -13933961.49048  20314171.152    20314176.116
  22928816.682    -3580925.79949  -2761538.55745  22928816.541    22928820.651
  23228007.282    -5942101.39149  -4434380.68246  23228006.905    23228010.918
  22614770.080    -6147827.65349  -4753360.36846  22614769.221    22614775.175
 04  1  9  1 44 30.0000000  0  8G30G18G10G21G 6G26G29G17
  22325404.997    -6231623.04349  -4839275.99247  22325405.034    22325409.956
  22610581.002   -10258132.29149  -5139072.45746  22610580.271    22610584.729
  22951990.706    -6870709.15549  -5331947.02846  22951989.408    22951995.814
  21327506.701   -14242665.24749 -10632288.81147  21327505.905    21327509.535
  20312674.991   -17920544.97849 -13940089.78548  20312674.518    20312679.532
  22914896.319    -3654077.19249  -2818539.61145  22914896.148    22914900.554
  23221057.658    -5978621.52749  -4462837.89246  23221057.337    23221061.272
  22626940.073    -6083873.85249  -4703526.23046  22626939.196    22626945.159
 04  1  9  1 45  0.0000000  0  8G30G18G10G21G 6G26G29G17
  22343626.596    -6135868.24149  -4764661.86547  22343626.569    22343631.491
  22592500.900   -10353143.40749  -5213107.03246  22592500.188    22592504.625
  22970118.945    -6775444.38849  -5257714.73946  22970117.718    22970124.108
  21319829.285   -14283010.45649 -10663726.62047  21319828.470    21319832.112
  20311254.111   -17928011.33349 -13945907.71748  20311253.652    20311258.691
  22901041.202    -3726886.01349  -2875273.70245  22901041.069    22901045.743
  23214191.342    -6014704.78649  -4490954.67246  23214191.020    23214194.904
  22639125.957    -6019836.18449  -4653626.74846  22639125.060    22639131.073
 04  1  9  1 45 30.0000000  0  8G30G18G10G21G 6G26G29G17
  22361890.646    -6039889.72949  -4689873.42447  22361890.635    22361895.555
  22574471.883   -10447886.87849  -5286933.03946  22574471.089    22574475.449
  22988296.195    -6679922.99049  -5183282.47646  22988294.855    22988301.254
  21312191.150   -14323148.92949 -10695003.33347  21312190.348    21312193.972
  20309908.870   -17935080.52649 -13951416.17348  20309908.423    20309913.475
  22887251.485    -3799351.23749  -2931740.05445  22887251.346    22887256.013
  23207408.128    -6050351.14449  -4518731.01846  23207407.805    23207411.665
  22651327.278    -5955717.70649  -4603664.28646  22651326.373    22651332.342
 04  1  9  1 46  0.0000000  0  8G30G18G10G21G 6G26G29G17
  22380197.892    -5943684.34949  -4614908.20546  22380197.842    22380202.764
  22556495.465   -10542354.33949  -5360543.98746  22556494.554    22556498.818
  23006522.634    -6584141.53649  -5108647.58246  23006521.426    23006527.879
  21304593.481   -14363074.85149 -10726114.41747  21304592.697    21304596.214
  20308640.653   -17941745.13249 -13956609.37048  20308640.181    20308645.275
  22873529.003    -3871463.18549  -2987931.11546  22873528.866    22873533.636
  23200709.675    -6085552.76649  -4546160.81446  23200709.213    23200713.045
  22663545.041    -5891512.99849  -4553634.64846  22663544.095    22663550.147
 04  1  9  1 46 30.0000000  0  8G30G18G10G21G 6G26G29G17
  22398545.799    -5847265.12549  -4539776.34946  22398545.759    22398550.716
  22538569.969   -10636554.14749  -5433946.36746  22538568.914    22538573.096
  23024796.378    -6488112.97649  -5033820.11846  23024795.106    23024801.547
  21297034.355   -14402798.66249 -10757068.02347  21297033.531    21297036.956
  20307447.668   -17948014.00549 -13961494.20048  20307447.217    20307452.373
  22859872.389    -3943228.67849  -3043852.21946  22859872.270    22859877.026
  23194094.106    -6120317.54249  -4573250.21446  23194093.723    23194097.506
  22675777.158    -5827232.63849  -4503546.04546  22675776.227    22675782.362
 04  1  9  1 47  0.0000000  0  8G30G18G10G21G 6G26G29G17
  22416936.270    -5750622.42449  -4464470.35646  22416936.258    22416941.152
  22520698.104   -10730471.11849  -5507128.36146  22520697.076    22520701.247
  23043118.997    -6391827.68749  -4958792.62446  23043117.642    23043124.015
  21289515.944   -14442307.81749 -10787854.36247  21289515.155    21289518.559
  20306332.646   -17953873.31949 -13966059.89248  20306332.199    20306337.438
  22846284.812    -4014631.47249  -3099490.69446  22846284.686    22846289.394
  23187564.502    -6154630.79549  -4599987.77446  23187564.084    23187567.865
  22688025.911    -5762864.43349  -4453388.99046  22688025.007    22688031.274
 04  1  9  1 47 30.0000000  0  8G30G18G10G21G 6G26G29G17
  22435366.984    -5653768.32049  -4388999.63046  22435366.999    22435371.810
  22502878.554   -10824112.53949  -5580095.64546  22502877.583    22502881.827
  23061488.081    -6295297.49749  -4883574.28846  23061486.715    23061493.110
  21282036.704   -14481611.51149 -10818480.59747  21282035.913    21282039.229
  20305294.035   -17959330.93749 -13970312.57948  20305293.598    20305298.890
  22832765.208    -4085677.42149  -3154851.12146  22832765.125    22832769.724
  23181119.347    -6188499.75049  -4626379.13446  23181118.965    23181122.770
  22700289.561    -5698418.09349  -4403171.05846  22700288.737    22700294.954
 04  1  9  1 48  0.0000000  0  8G30G18G10G21G 6G26G29G17
  22453837.882    -5556702.74849  -4313364.12446  22453837.952    22453842.720
  22485112.252   -10917473.69649  -5652844.54346  22485111.372    22485115.647
  23079903.869    -6198522.28249  -4808165.03046  23079902.536    23079908.884
  21274597.177   -14520706.69049 -10848944.36047  21274596.363    21274599.678
  20304332.708   -17964382.67949 -13974249.00148  20304332.253    20304337.566
  22819314.866    -4156360.19749  -3209928.53546  22819314.667    22819319.358
  23174759.805    -6221919.03749  -4652420.12246  23174759.388    23174763.220
  22712568.644    -5633891.29449  -4352890.43146  22712567.796    22712573.901
 04  1  9  1 48 30.0000000  0  9G30G18G10G16G21G 6G26G29G17
  22472348.461    -5459428.84749  -4237566.28746  22472348.517    22472353.369
  22467399.825   -11010552.12349  -5725373.13946  22467399.014    22467403.329
  23098365.741    -6101504.99949  -4732567.13746  23098364.415    23098370.654
                   -516286.20949   -385292.72344                  24013954.206
  21267197.293   -14559593.70349 -10879245.90747  21267196.476    21267199.773
  20303448.805   -17969027.47249 -13977868.32048  20303448.365    20303453.682
  22805934.101    -4226676.35049  -3264720.28346  22805933.990    22805938.735
  23168486.061    -6254886.98749  -4678109.41746  23168485.602    23168489.522
  22724862.932    -5569284.41549  -4302547.39446  22724862.135    22724868.185
 04  1  9  1 49  0.0000000  0  9G30G18G10G16G21G 6G26G29G17
  22490897.177    -5361953.77249  -4161611.68446  22490897.306    22490902.269
  22449740.752   -11103350.27149  -5797683.32946  22449739.919    22449744.318
  23116872.215    -6004252.53649  -4656786.00246  23116870.953    23116877.172
  24000411.669     -587454.24549   -440748.32845  24000409.922    24000410.512
  21259836.087   -14598277.20749 -10909388.87247  21259835.282    21259838.529
  20302641.786   -17973268.34849 -13981172.89248  20302641.354    20302646.642
  22792622.959    -4296626.79849  -3319227.08646  22792622.726    22792627.670
  23162297.740    -6287405.92649  -4703448.82146  23162297.336    23162301.408
  22737171.549    -5504602.49149  -4252145.89146  22737170.724    22737176.813
 04  1  9  1 49 30.0000000  0  9G30G18G10G16G21G 6G26G29G17
  22509484.578    -5264276.05249  -4085499.18446  22509484.678    22509489.778
  22432136.179   -11195861.61249  -5869770.03446  22432135.406    22432139.926
  23135423.966    -5906763.31049  -4580820.36446  23135422.610    23135428.832
  23986947.059     -658210.14549   -495882.82545  23986944.534    23986946.062
  21252514.480   -14636753.01149 -10939369.99647  21252513.621    21252516.860
  20301912.679   -17977099.71849 -13984158.37448  20301912.268    20301917.477
  22779382.838    -4366203.70149  -3373442.82446  22779382.642    22779387.549
  23156196.339    -6319469.30849  -4728433.25246  23156195.859    23156199.983
  22749495.183    -5439841.58349  -4201682.84646  22749494.353    22749500.348
 04  1  9  1 50  0.0000000  0  9G30G18G10G16G21G 6G26G29G17
  22528109.462    -5166400.82549  -4009232.77246  22528109.644    22528114.921
  22414586.188   -11288086.31549  -5941633.38046  22414585.426    22414590.136
  23154019.784    -5809041.98049  -4504673.86446  23154018.477    23154024.626
  23973560.210     -728553.66449   -550695.91245  23973556.014    23973561.145
  21245231.934   -14675023.32649 -10969190.99447  21245231.043    21245234.259
  20301261.432   -17980522.24349 -13986825.27448  20301261.019    20301266.155
  22766214.147    -4435405.77949  -3427366.46146  22766213.928    22766218.748
  23150181.662    -6351077.33649  -4753062.85246  23150181.183    23150185.265
  22761833.344    -5375004.18549  -4151160.19546  22761832.471    22761838.428
 04  1  9  1 50 30.0000000  0  9G30G18G10G16G21G 6G26G29G17
  22546771.959    -5068328.75549  -3932812.99146  22546771.975    22546777.437
  22397091.403   -11380020.22449  -6013270.14646  22397090.857    22397095.675
  23172659.608    -5711089.25349  -4428347.05546  23172658.282    23172664.364
  23960252.571     -798480.56349   -605184.34745  23960248.475    23960255.552
  21237988.780   -14713085.84449 -10998850.08047  21237987.887    21237991.206
  20300688.651   -17983532.65549 -13989171.04148  20300688.206    20300693.256
  22753117.966    -4504227.36849  -3480993.60246  22753117.684    22753122.431
  23144254.247    -6382225.69849  -4777334.29346  23144253.826    23144257.931
  22774186.443    -5310088.45549  -4100576.49746  22774185.530    22774191.405
 04  1  9  1 51  0.0000000  0  9G30G18G10G16G21G 6G26G29G17
  22565471.446    -4970060.58749  -3856240.39646  22565471.600    22565477.364
  22379652.956   -11471659.12349  -6084677.03646  22379652.469    22379657.399
  23191343.292    -5612905.56349  -4351840.28646  23191342.008    23191348.066
  23947025.052     -867986.18849   -659344.52345  23947021.165    23947029.630
  21230785.588   -14750938.69749 -11028345.79647  21230784.704    21230788.003
  20300194.898   -17986127.48249 -13991192.98948  20300194.448    20300199.453
  22740095.196    -4572663.02049  -3534320.03646  22740094.900    22740099.648
  23138415.049    -6412910.53549  -4801244.54246  23138414.659    23138418.877
  22786554.832    -5245092.62149  -4049930.39546  22786553.877    22786559.665
 04  1  9  1 51 30.0000000  0  9G30G18G10G16G21G 6G26G29G17
  22584207.874    -4871599.66549  -3779517.62746  22584207.929    22584213.949
  22362270.937   -11563001.46349  -6155852.83546  22362270.502    22362275.514
  23210070.381    -5514494.02349  -4275155.96546  23210069.113    23210075.124
  23933877.712     -937068.91149   -713175.14445  23933874.702    23933883.217
  21223622.184   -14788582.46049 -11057678.57947  21223621.273    21223624.591
  20299780.334   -17988306.00349 -13992890.53248  20299779.905    20299784.876
  22727146.165    -4640709.65449  -3587343.34546  22727145.985    22727150.952
  23132664.242    -6443130.17549  -4824792.30046  23132663.970    23132668.326
  22798938.118    -5180017.85449  -3999222.78346  22798937.214    22798942.929
 04  1  9  1 52  0.0000000  0  9G30G18G10G16G21G 6G26G29G17
  22602980.141    -4772950.55049  -3702648.18046  22602980.113    22602986.346
  22344945.590   -11654046.75149  -6226797.17146  22344945.127    22344950.189
  23228839.995    -5415859.00649  -4198297.51746  23228838.759    23228844.748
  23920812.369    -1005728.24049   -766675.94345  23920809.576    23920817.360
  21216498.204   -14826018.75849 -11086849.70447  21216497.375    21216500.682
  20299444.947   -17990068.59649 -13994263.98048  20299444.517    20299449.458
  22714271.598    -4708365.30349  -3640062.01146  22714271.318    22714276.697
  23127002.275    -6472884.12149  -4847977.17646  23127001.870    23127006.317
  22811336.293    -5114865.91849  -3948455.03646  22811335.391    22811340.896
 04  1  9  1 52 30.0000000  0  9G30G18G10G16G21G 6G26G29G17
  22621787.435    -4674117.88749  -3625635.74046  22621787.243    22621793.626
  22327676.887   -11744794.50749  -6297509.65946  22327676.352    22327681.430
  23247651.319    -5317004.73549  -4121268.22346  23247650.056    23247656.148
  23907827.789    -1073963.35349   -819846.16645  23907825.765    23907832.196
  21209413.344   -14863249.84949 -11115860.93447  21209412.539    21209415.841
  20299188.616   -17991415.69649 -13995313.67148  20299188.184    20299193.066
  22701471.559    -4775628.56749  -3692474.91546  22701471.369    22701476.981
  23121428.841    -6502172.22549  -4870799.06446  23121428.438    23121432.969
  22823748.631    -5049638.82349  -3897628.72146  22823747.768    22823753.206
 04  1  9  1 53  0.0000000  0  9G30G18G10G16G21G 6G26G29G17
  22640628.705    -4575106.18249  -3548483.77046  22640628.549    22640634.932
  22310464.894   -11835244.30449  -6367989.97747  22310464.377    22310469.372
  23266503.395    -5217935.84449  -4044071.69746  23266502.176    23266508.341
  23894923.603    -1141774.08449   -872685.68045  23894921.969    23894927.941
  21202367.346   -14900276.95949 -11144713.21848  21202366.537    21202369.821
  20299011.255   -17992347.91749 -13996040.07648  20299010.837    20299015.668
  22688746.672    -4842497.66449  -3744580.67046  22688746.488    22688752.184
  23115944.116    -6530994.42249  -4893257.90946  23115943.615    23115948.313
  22836174.880    -4984338.91649  -3846745.68146  22836174.005    22836179.421
 04  1  9  1 53 30.0000000  0  9G30G18G10G16G21G 6G26G29G17
  22659504.655    -4475912.92749  -3471190.33746  22659504.422    22659510.760
  22293311.038   -11925388.68749  -6438232.29847  22293310.482    22293315.446
  23285396.966    -5118649.68049  -3966705.84846  23285395.726    23285401.876
  23882102.286    -1209152.75849   -925188.57245  23882100.636    23882105.758
  21195361.286   -14937094.60049 -11173402.26848  21195360.397    21195363.707
  20298914.120   -17992858.55749 -13996437.97548  20298913.684    20298918.503
  22676098.583    -4908963.80349  -3796372.42846  22676098.324    22676104.069
  23110549.494    -6559343.25149  -4915347.86546  23110548.920    23110553.644
  22848615.908    -4918961.08649  -3795801.91946  22848615.033    22848620.474
 04  1  9  1 54  0.0000000  0  9G30G18G10G16G21G 6G26G29G17
  22678413.425    -4376546.87349  -3393762.25246  22678413.132    22678419.527
  22276214.470   -12015231.66249  -6508239.76547  22276213.938    22276218.861
  23304330.254    -5019154.55549  -3889177.19246  23304329.019    23304335.060
  23869361.157    -1276102.99849   -977357.53845  23869359.746    23869365.224
  21188393.747   -14973709.09349 -11201933.02648  21188392.871    21188396.199
  20298896.317   -17992952.39749 -13996511.08948  20298895.887    20298900.635
  22663526.434    -4975029.40849  -3847852.07946  22663526.238    22663532.110
  23105243.984    -6587222.84649  -4937072.19146  23105243.483    23105248.226
  22861070.472    -4853511.63249  -3744802.34146  22861069.631    22861075.027
 04  1  9  1 54 30.0000000  0  9G30G18G10G16G21G 6G26G29G17
  22697355.527    -4277007.48649  -3316199.10446  22697354.948    22697361.215
  22259176.387   -12104767.65849  -6578008.03747  22259175.903    22259180.755
  23323303.381    -4919449.68949  -3811485.09246  23323302.143    23323308.140
  23856702.918    -1342619.08949  -1029188.26245  23856701.591    23856707.575
  21181465.510   -15010116.92649 -11230302.75348  21181464.657    21181468.028
  20298958.728   -17992624.62549 -13996255.68148  20298958.284    20298963.013
  22651031.684    -5040687.63749  -3899014.31046  22651031.598    22651037.684
  23100028.995    -6614627.76749  -4958426.61246  23100028.473    23100033.286
  22873539.284    -4787987.18049  -3693744.33146  22873538.449    22873543.874
 04  1  9  1 55  0.0000000  0  9G30G18G10G16G21G 6G26G29G17
  22716329.903    -4177296.81349  -3238502.48145  22716329.262    22716335.488
  22242197.233   -12193994.35849  -6647535.28847  22242196.658    22242201.496
  23342316.133    -4819536.97649  -3733631.03346  23342314.942    23342320.766
  23844127.617    -1408698.24249  -1080678.45845  23844126.904    23844133.021
  21174576.796   -15046317.41549 -11258510.90648  21174575.936    21174579.353
  20299101.728   -17991873.40549 -13995670.30848  20299101.265    20299105.958
  22638615.536    -5105934.39449  -3949855.89746  22638615.443    22638621.626
  23094904.882    -6641555.20549  -4979408.98646  23094904.391    23094909.185
  22886022.382    -4722387.51349  -3642627.70346  22886021.568    22886027.026
 04  1  9  1 55 30.0000000  0  9G30G18G10G16G21G 6G26G29G17
  22735335.627    -4077420.74449  -3160676.98645  22735335.095    22735341.218
  22225276.794   -12282912.11849  -6716821.80347  22225276.201    22225281.019
  23361367.507    -4719422.13049  -3655619.46146  23361366.332    23361371.893
  23831636.632    -1474341.16749  -1131828.77845  23831635.851    23831641.854
  21167726.941   -15082313.81949 -11286560.03148  21167726.098    21167729.397
  20299324.953   -17990700.66249 -13994756.47548  20299324.470    20299329.128
  22626277.716    -5170769.22949  -4000376.51646  22626277.635    22626284.014
  23089871.339    -6668006.63949  -5000020.44846  23089870.806    23089875.635
  22898519.205    -4656716.08849  -3591455.16746  22898518.396    22898523.872
 04  1  9  1 56  0.0000000  0  9G30G18G10G16G21G 6G26G29G17
  22754372.384    -3977383.03949  -3082725.52345  22754371.706    22754377.584
  22208415.307   -12371520.19649  -6785867.01447  22208414.644    22208419.472
  23380456.777    -4619108.57349  -3577453.05546  23380455.567    23380460.828
  23819229.040    -1539546.84049  -1182638.39945  23819228.190    23819233.666
  21160915.706   -15118106.77749 -11314450.63548  21160914.884    21160918.200
  20299628.413   -17989106.00649 -13993513.88548  20299627.950    20299632.523
  22614018.971    -5235189.71249  -4050574.24146  22614018.611    22614025.173
  23084928.385    -6693980.94249  -5020260.12246  23084927.957    23084932.865
  22911029.592    -4590973.96849  -3540227.54146  22911028.784    22911034.112
 04  1  9  1 56 30.0000000  0  9G30G18G10G16G21G 6G26G29G17
  22773439.512    -3877183.86549  -3004648.22645  22773438.986    22773444.788
  22191613.570   -12459813.84849  -6854667.21147  22191612.896    22191617.732
  23399583.967    -4518596.21949  -3499131.72746  23399582.656    23399587.681
  23806905.282    -1604310.28849  -1233103.42045  23806904.602    23806909.432
  21154143.633   -15153693.86049 -11342180.81047  21154142.842    21154146.206
  20300012.897   -17987085.64949 -13991939.57048  20300012.404    20300016.938
  22601839.780    -5299189.81449  -4100444.41246  22601839.483    22601846.369
  23080077.232    -6719473.59549  -5040124.50346  23080076.766    23080081.760
  22923553.845    -4525158.75049  -3488942.95346  22923553.084    22923558.307
 04  1  9  1 57  0.0000000  0  9G30G18G10G16G21G 6G26G29G17
  22792536.482    -3776829.01349  -2926449.63545  22792535.916    22792541.517
  22174871.474   -12547794.06149  -6923223.17947  22174870.786    22174875.614
  23418747.592    -4417890.55849  -3420659.78646  23418746.419    23418751.281
  23794664.986    -1668632.29949  -1283224.45745  23794664.686    23794669.372
  21147410.234   -15189078.01349 -11369752.85647  21147409.443    21147412.849
  20300478.005   -17984641.33149 -13990034.90748  20300477.542    20300482.038
  22589740.924    -5362769.25349  -4149986.77246  22589740.489    22589747.528
  23075317.294    -6744485.92549  -5059614.59346  23075316.891    23075322.006
  22936091.523    -4459273.70149  -3437603.94946  22936090.735    22936095.882
 04  1  9  1 57 30.0000000  0  9G30G18G10G16G21G 6G26G29G17
  22811663.152    -3676318.54849  -2848129.78945  22811662.455    22811667.961
  22158190.053   -12635455.72049  -6991530.92747  22158189.365    22158194.146
  23437948.063    -4316991.36149  -3342037.03446  23437946.917    23437951.776
  23782509.293    -1732507.91449  -1332997.61745  23782508.874    23782514.330
  21140715.892   -15224256.53049 -11397164.66847  21140715.147    21140718.573
  20301024.580   -17981769.05949 -13987796.76648  20301024.123    20301028.578
  22577723.331    -5425921.67749  -4199196.41346  22577722.878    22577730.054
  23070649.803    -6769013.21749  -5078726.74246  23070649.472    23070654.658
  22948642.789    -4393316.35349  -3386208.61646  22948641.996    22948647.048
 04  1  9  1 58  0.0000000  0  9G30G18G10G16G21G 6G26G29G17
  22830819.383    -3575653.41649  -2769689.43045  22830818.513    22830823.733
  22141569.974   -12722795.39649  -7059587.76947  22141569.201    22141573.953
  23457185.295    -4215899.49249  -3263264.14446  23457184.099    23457188.811
  23770439.509    -1795933.11349  -1382419.85245  23770438.929    23770444.542
  21134061.194   -15259227.44649 -11424414.71848  21134060.424    21134063.874
  20301653.162   -17978466.02849 -13985222.97448  20301652.698    20301657.120
  22565788.077    -5488641.96649  -4248069.31746  22565787.660    22565794.815
  23066075.255    -6793051.93949  -5097458.18546  23066074.969    23066080.272
  22961208.177    -4327285.03649  -3334755.64946  22961207.387    22961212.361
 04  1  9  1 58 30.0000000  0  9G30G18G10G16G21G 6G26G29G17
  22850002.511    -3474844.49849  -2691137.02945  22850001.773    22850006.912
  22125009.945   -12809818.91649  -7127398.27247  22125009.265    22125013.954
  23476457.148    -4114625.43949  -3184349.29246  23476455.968    23476460.532
  23758454.602    -1858913.89749  -1431495.74245  23758453.993    23758459.763
  21127444.468   -15293998.98849 -11451509.41048  21127443.625    21127447.078
  20302362.386   -17974739.19949 -13982318.94648  20302361.907    20302366.292
  22553934.165    -5550934.97249  -4296609.25946  22553933.667    22553940.842
  23061592.713    -6816608.23149  -5115813.71146  23061592.352    23061597.701
  22973785.992    -4261188.13449  -3283251.58046  22973785.179    22973790.009
 04  1  9  1 59  0.0000000  0  9G30G18G10G16G21G 6G26G29G17
  22869213.618    -3373887.59949  -2612469.28045  22869213.133    22869218.304
  22108511.854   -12896517.46349  -7194955.53547  22108511.096    22108515.755
  23495764.525    -4013164.91449  -3105289.13346  23495763.242    23495767.652
  23746556.975    -1921441.37449  -1480218.44645  23746556.150    23746561.195
  21120866.899   -15328564.29049 -11478443.38848  21120866.089    21120869.581
  20303153.808   -17970580.33349 -13979078.26148  20303153.329    20303157.696
  22542163.280    -5612790.37649  -4344808.22546  22542162.855    22542170.058
  23057203.456    -6839673.48849  -5133786.60846  23057203.100    23057208.545
  22986377.602    -4195018.94749  -3231691.15246  22986376.703    22986381.546
 04  1  9  1 59 30.0000000  0  9G30G18G10G16G21G 6G26G29G17
  22888451.722    -3272790.09849  -2533692.04145  22888451.265    22888456.526
  22092075.115   -12982893.25949  -7262261.31347  22092074.405    22092079.029
  23515105.971    -3911524.90649  -3026089.12146  23515104.702    23515108.842
  23734744.698    -1983517.95249  -1528589.81845  23734743.648    23734747.925
  21114327.849   -15362927.74349 -11505220.08948  21114326.996    21114330.478
  20304026.756   -17965992.90249 -13975503.63348  20304026.265    20304030.620
  22530475.551    -5674209.11149  -4392666.92546  22530475.146    22530482.249
  23052907.167    -6862250.43649  -5151379.03246  23052906.825    23052912.382
  22998981.901    -4128782.06149  -3180077.99546  22998981.037    22998985.967
 04  1  9  2  0  0.0000000  0  9G30G18G10G16G21G 6G26G29G17
  22907716.969    -3171550.70149  -2454804.21245  22907716.388    22907721.809
  22075700.907   -13068940.39649  -7329310.99247  22075700.171    22075704.846
  23534481.987    -3809703.79249  -2946747.97246  23534480.758    23534484.628
  23723019.178    -2045137.39049  -1576604.96545  23723018.214    23723022.263
  21107827.809   -15397085.26049 -11531836.32348  21107826.985    21107830.515
  20304982.277   -17960971.64049 -13971590.95848  20304981.784    20304986.100
  22518872.387    -5735184.02549  -4440179.78846  22518871.980    22518878.968
  23048704.935    -6884333.30549  -5168586.44046  23048704.584    23048710.090
  23011599.903    -4062473.72249  -3128409.16246  23011598.981    23011603.995
 04  1  9  2  0 30.0000000  0  9G30G18G10G16G21G 6G26G29G17
  22927007.855    -3070175.97649  -2375810.92545  22927007.392    22927012.890
  22059388.862   -13154660.86849  -7396106.13247  22059388.123    22059392.747
  23553891.216    -3707707.86149  -2867270.62346  23553889.981    23553893.811
  23711380.135    -2106301.44349  -1624265.24445  23711379.174    23711383.325
  21101366.363   -15431040.51449 -11558294.95348  21101365.548    21101369.047
  20306019.836   -17955519.07649 -13967342.20148  20306019.335    20306023.695
  22507353.448    -5795715.68049  -4487347.27046  22507353.084    22507360.144
  23044596.351    -6905924.23949  -5185410.53946  23044596.068    23044601.544
  23024230.674    -3996098.00849  -3076687.81746  23024229.817    23024234.921
 04  1  9  2  1  0.0000000  0  9G30G18G10G16G21G 6G26G29G17
  22946324.471    -2968666.12949  -2296712.34945  22946324.190    22946329.655
  22043139.823   -13240049.86149  -7462642.96547  22043139.103    22043143.726
  23573333.754    -3605536.84649  -2787656.84046  23573332.451    23573336.389
  23699828.269    -2167005.23349  -1671566.86045  23699827.442    23699832.053
  21094943.965   -15464790.72149 -11584593.79248  21094943.135    21094946.613
  20307140.195   -17949631.52649 -13962754.48948  20307139.700    20307144.072
  22495919.938    -5855797.99649  -4534164.62746  22495919.670    22495926.785
  23040582.162    -6927018.84649  -5201847.87846  23040581.857    23040587.324
  23036874.761    -3929652.41649  -3024912.01846  23036873.874    23036879.084
 04  1  9  2  1 30.0000000  0  9G30G18G10G16G21G 6G26G29G17
  22965666.237    -2867025.68149  -2217512.01345  22965665.880    22965671.145
  22026953.853   -13325107.46249  -7528921.57547  22026953.118    22026957.721
  23592808.648    -3503195.20249  -2707910.09346  23592807.320    23592811.280
  23688364.427    -2227248.32149  -1718509.50345  23688363.517    23688368.592
  21088560.132   -15498337.79749 -11610734.35148  21088559.334    21088562.799
  20308343.085   -17943309.77349 -13957828.43348  20308342.637    20308347.039
  22484572.567    -5915429.42149  -4580630.63046  22484572.254    22484579.249
  23036662.457    -6947617.13649  -5217898.47646  23036662.091    23036667.673
  23049531.815    -3863138.95549  -2973083.34146  23049530.991    23049536.288
 04  1  9  2  2  0.0000000  0  9G30G18G10G16G21G 6G26G29G17
  22985032.224    -2765257.33149  -2138212.00845  22985031.923    22985037.025
  22010831.306   -13409831.45049  -7594940.22147  22010830.579    22010835.190
  23612315.369    -3400685.32349  -2628032.26845  23612314.214    23612318.159
  23676988.429    -2287029.15649  -1765091.95745  23676987.603    23676992.608
  21082215.023   -15531681.98349 -11636716.80848  21082214.187    21082217.623
  20309628.930   -17936552.74849 -13952563.21248  20309628.437    20309632.852
  22473311.553    -5974606.91849  -4626742.91546  22473311.310    22473317.851
  23032837.313    -6967717.73649  -5233561.26146  23032836.939    23032842.714
  23062201.852    -3796557.84449  -2921201.93446  23062200.980    23062206.228
 04  1  9  2  2 30.0000000  0  9G30G18G10G16G21G 6G26G29G17
  23004421.579    -2663365.46549  -2058815.76245  23004421.430    23004426.542
  21994772.367   -13494221.29149  -7660698.50347  21994771.657    21994776.264
  23631853.438    -3298011.08549  -2548026.37945  23631852.279    23631856.319
  23665700.573    -2346347.01449  -1811313.66545  23665699.608    23665704.218
  21075908.204   -15564824.44549 -11662542.08548  21075907.353    21075910.798
  20310997.464   -17929360.81549 -13946959.10048  20310996.989    20311001.450
  22462137.440    -6033328.49349  -4672499.91646  22462137.056    22462143.236
  23029106.843    -6987320.10549  -5248835.82746  23029106.542    23029112.518
  23074884.379    -3729910.67749  -2869269.06846  23074883.610    23074888.714
 04  1  9  2  3  0.0000000  0 10G30G18G10G16G21G 6G26G29G17G15
  23023834.280    -2561353.22449  -1979325.73145  23023833.751    23023838.824
  21978777.211   -13578275.73249  -7726195.43347  21978776.540    21978781.147
  23651422.085    -3195175.72149  -2467894.93545  23651420.982    23651425.352
  23654501.167    -2405200.22749  -1857173.32545  23654500.120    23654504.208
  21069639.599   -15597765.83449 -11688210.68148  21069638.763    21069642.245
  20312448.844   -17921733.48949 -13941015.72448  20312448.375    20312452.875
  22451050.138    -6091591.39849  -4717899.54046  22451049.932    22451055.921
  23025471.522    -7006423.46849  -5263721.54946  23025471.268    23025477.306
  23087579.480    -3663198.13449  -2817285.26146  23087578.662    23087583.750
                   -147199.36849    -82029.40243
 04  1  9  2  3 30.0000000  0 10G30G18G10G16G21G 6G26G29G17G15
  23043269.558    -2459220.72049  -1899741.97645  23043269.017    23043273.870
  21962846.872   -13661989.87249  -7791427.19647  21962846.188    21962850.775
  23671021.541    -3092178.71249  -2387637.53345  23671020.544    23671025.178
  23643391.369    -2463584.08849  -1902667.23645  23643390.102    23643393.899
  21063409.773   -15630503.43549 -11713720.48348  21063408.956    21063412.491
  20313983.822   -17913666.79849 -13934729.99248  20313983.362    20313987.912
  22440051.357    -6149389.71849  -4762937.16446  22440051.206    22440057.259
  23021931.972    -7025023.35849  -5278214.96346  23021931.629    23021937.909
  23100287.379    -3596417.43149  -2765248.33146  23100286.584    23100291.725
                   -225479.66649   -143029.18943
 04  1  9  2  4  0.0000000  0 10G30G18G10G16G21G 6G26G29G17G15
  23062727.182    -2356969.09749  -1820065.40945  23062727.015    23062731.719
  21946981.860   -13745360.49949  -7856391.28547  21946981.221    21946985.814
  23690651.700    -2989021.11049  -2307254.99645  23690650.803    23690655.312
  23632371.099    -2521495.29949  -1947792.79645  23632370.071    23632373.928
  21057219.120   -15663035.20849 -11739069.90248  21057218.321    21057221.850
  20315602.865   -17905158.43949 -13928100.10648  20315602.411    20315607.023
  22429141.979    -6206718.80649  -4807609.14446  22429141.898    22429147.899
  23018488.981    -7043116.65449  -5292313.61046  23018488.553    23018494.843
  23113008.279    -3529567.36649  -2713157.37146  23113007.567    23113012.952
                   -303673.42649      5070.29343
 04  1  9  2  4 30.0000000  0 10G30G18G10G16G21G 6G26G29G17G15
  23082206.342    -2254606.66649  -1740302.48245  23082206.239    23082210.537
  21931181.556   -13828391.18849  -7921090.48247  21931180.920    21931185.522
  23710311.004    -2885710.78349  -2226753.44445  23710310.163    23710314.443
  23621440.384    -2578937.16849  -1992552.69145  23621439.238    23621442.987
  21051066.619   -15695366.73849 -11764263.27947  21051065.821    21051069.351
  20317305.163   -17896212.67549 -13921129.37548  20317304.723    20317309.339
  22418321.723    -6263580.87649  -4851917.20946  22418321.509    22418327.477
  23015141.381    -7060707.44049  -5306020.70346  23015141.049    23015147.393
  23125741.499    -3462653.57649  -2661016.72346  23125740.773    23125745.920
                   -381785.65249    -55795.35743
 04  1  9  2  5  0.0000000  0 10G30G18G10G16G21G 6G26G29G17G15
  23101705.771    -2152138.07949  -1660456.85345  23101705.631    23101709.625
  21915445.999   -13911081.74849  -7985524.65447  21915445.433    21915450.050
  23729998.619    -2782252.05649  -2146136.26345  23729997.774    23730001.820
  23610598.606    -2635909.51649  -2036946.68945  23610597.614    23610601.493
  21044951.826   -15727500.10349 -11789302.24347  21044950.974    21044954.502
  20319090.514   -17886830.43949 -13913818.53948  20319090.057    20319094.705
  22407590.289    -6319974.71349  -4895860.41346  22407590.118    22407596.104
  23011889.480    -7077795.86949  -5319336.33846  23011889.111    23011895.496
  23138486.246    -3395678.28449  -2608828.18146  23138485.510    23138490.920
                   -459818.06149   -116596.67743
 04  1  9  2  5 30.0000000  0 10G30G18G10G16G21G 6G26G29G17G15
  23121225.472    -2049563.04249  -1580528.27145  23121225.168    23121229.050
  21899776.094   -13993427.52249  -8049690.16447  21899775.511    21899780.119
  23749714.567    -2678644.28749  -2065402.93245  23749713.625    23749717.753
  23599847.177    -2692407.61149  -2080971.13445  23599846.086    23599850.796
  21038875.267   -15759432.22349 -11814184.40047  21038874.460    21038877.963
  20320959.759   -17877007.53749 -13906164.33748  20320959.293    20320963.959
  22396949.322    -6375893.91849  -4939433.77246  22396949.144    22396954.851
  23008733.951    -7094377.54449  -5332257.10646  23008733.645    23008740.025
  23151243.614    -3328638.14249  -2556589.09046  23151242.878    23151248.207
                   -537767.63749   -177333.55243
 04  1  9  2  6  0.0000000  0 10G30G18G10G16G21G 6G26G29G17G15
  23140764.930    -1946882.54549  -1500517.50445  23140764.653    23140768.554
  21884172.523   -14075424.82249  -8113584.13047  21884171.903    21884176.528
  23769458.658    -2574888.28449  -1984554.10945  23769457.766    23769461.761
  23589186.808    -2748427.57449  -2124623.02845  23589185.796    23589190.848
  21032837.431   -15791161.13049 -11838908.20847  21032836.620    21032840.103
  20322913.252   -17866741.38349 -13898164.73448  20322912.810    20322917.542
  22386399.628    -6431333.66949  -4982633.54546  22386399.448    22386404.838
  23005675.570    -7110449.18749  -5344780.44346  23005675.322    23005681.576
  23164013.604    -3261531.75049  -2504298.39346  23164012.837    23164018.241
                   -615632.16149    -28216.23743
 04  1  9  2  6 30.0000000  0 10G30G18G10G16G21G 6G26G29G17G15
  23160324.312    -1844096.32049  -1420424.37045  23160324.111    23160328.117
  21868636.206   -14157068.63849  -8177202.66247  21868635.579    21868640.185
  23789231.230    -2470983.16349  -1903589.07145  23789230.289    23789234.422
  23578618.351    -2803964.62749  -2167898.63845  23578617.432    23578622.451
  21026838.867   -15822683.98649 -11863471.45447  21026838.013    21026841.441
  20324951.901   -17856028.00649 -13889816.64948  20324951.479    20324956.208
  22375942.257    -6486287.83049  -5025454.91246  22375942.048    22375947.242
  23002715.192    -7126006.46149  -5356902.97246  23002714.882    23002721.053
  23176796.734    -3194356.54049  -2451954.06046  23176795.919    23176801.336
                   -693408.39349    -88822.23243
 04  1  9  2  7  0.0000000  0 10G30G18G10G16G21G 6G26G29G17G15
  23179901.766    -1741215.75149  -1340257.70645  23179901.629    23179905.781
  21853165.831   -14238365.89049  -8240551.14047  21853165.179    21853169.804
  23809029.839    -2366940.13149  -1822516.58345  23809028.882    23809033.212
  23568140.609    -2859025.62949  -2210803.27745  23568139.866    23568144.386
  21020877.723   -15854009.60849 -11887881.01447  21020876.890    21020880.350
  20327074.200   -17844875.20449 -13881126.15948  20327073.750    20327078.501
  22365576.132    -6540762.11449  -5067902.37046  22365575.994    22365581.036
  22999851.381    -7141056.37349  -5368630.15946  22999851.054    22999857.177
  23189591.068    -3127120.95949  -2399562.67846  23189590.360    23189595.557
                   -771104.85649   -149366.05843
 04  1  9  2  7 30.0000000  0 10G30G18G10G16G21G 6G26G29G17G15
  23199498.337    -1638235.34649  -1260013.27745  23199498.162    23199502.357
  21837763.364   -14319306.38849  -8303621.63147  21837762.672    21837767.281
  23828855.759    -2262753.34149  -1741332.08245  23828854.907    23828859.490
  23557755.393    -2913600.30449  -2253328.99745  23557754.595    23557758.762
  21014955.857   -15885128.86349 -11912129.76947  21014955.079    21014958.577
  20329281.946   -17833273.45449 -13872085.83548  20329281.501    20329286.218
  22355303.536    -6594744.93249  -5109966.85846  22355303.406    22355308.522
  22997085.944    -7155589.38649  -5379954.56446  22997085.589    22997091.590
  23202398.825    -3059816.80449  -2347117.86646  23202398.073    23202403.351
                   -848712.92349     -1050.05543
 04  1  9  2  8  0.0000000  0  9G30G18G10G16G21G 6G26G29G17
  23219112.103    -1535166.37849  -1179699.83745  23219111.613    23219115.581
  21822427.548   -14399896.71349  -8366419.25247  21822426.798    21822431.385
  23848707.187    -2158433.65549  -1660044.01045  23848706.285    23848710.853
  23547461.581    -2967695.30649  -2295480.95745  23547460.694    23547464.450
  21009071.612   -15916050.73149 -11936224.71447  21009070.803    21009074.306
  20331573.597   -17821230.62449 -13862701.81548  20331573.165    20331577.838
  22345123.295    -6648241.80249  -5151652.69546  22345123.223    22345128.315
  22994417.560    -7169612.62949  -5390881.75446  22994417.176    22994423.024
  23215217.761    -2992452.92249  -2294626.53346  23215217.069    23215222.173
 04  1  9  2  8 30.0000000  0  9G30G18G10G16G21G 6G26G29G17
  23238740.393    -1432018.00549  -1099324.46645  23238740.215    23238743.917
  21807157.492   -14480141.57349  -8428947.68447  21807156.680    21807161.268
  23868582.152    -2053989.86849  -1578659.20245  23868581.406    23868585.703
  23537257.607    -3021315.15849  -2337262.58545  23537256.686    23537261.337
  21003223.732   -15946781.37349 -11960170.65647  21003222.941    21003226.443
  20333948.204   -17808751.90549 -13852978.13948  20333947.771    20333952.445
  22335034.956    -6701255.94349  -5192962.37846  22335034.977    22335040.022
  22991845.178    -7183130.98249  -5401415.51646  22991844.827    22991850.442
  23228047.226    -2925035.54349  -2242093.50046  23228046.348    23228051.268
 04  1  9  2  9  0.0000000  0  9G30G18G10G16G21G 6G26G29G17
  23258389.581    -1328758.96149  -1018862.88445  23258389.961    23258393.145
  21791959.879   -14560005.38049  -8491179.18547  21791959.051    21791963.655
  23888487.102    -1949390.41649  -1497153.13545  23888486.066    23888490.117
  23527151.177    -3074424.32549  -2378646.33545  23527150.422    23527155.683
  20997418.677   -15977287.22949 -11983941.43547  20997417.860    20997421.336
  20336412.375   -17795802.70349 -13842887.84548  20336411.945    20336416.606
  22325045.706    -6753750.60149  -5233867.26646  22325045.652    22325050.521
  22989375.450    -7196109.25849  -5411528.44346  22989375.147    22989380.625
  23240892.962    -2857531.23049  -2189492.74146  23240892.174    23240897.012
 04  1  9  2  9 30.0000000  0  9G30G18G10G16G21G 6G26G29G17
  23278054.519    -1225420.29049   -938339.26045  23278054.628    23278057.535
  21776829.717   -14639514.49549  -8553134.30547  21776828.895    21776833.533
  23908415.403    -1844665.64549  -1415549.41345  23908414.460    23908418.770
  23517137.135    -3127049.25349  -2419652.74345  23517136.414    23517141.477
  20991651.061   -16007596.09949 -12007558.72947  20991650.253    20991653.722
  20338960.922   -17782410.36349 -13832452.25848  20338960.461    20338965.105
  22315150.508    -6805750.86249  -5274386.91246  22315150.403    22315155.129
  22987003.408    -7208574.37449  -5421241.49546  22987003.099    22987008.395
  23253750.122    -2789967.99049  -2136846.03746  23253749.175    23253753.596
 04  1  9  2 10  0.0000000  0  9G30G18G10G16G21G 6G26G29G17
  23297734.353    -1122000.46249   -857752.38345  23297734.575    23297737.293
  21761768.189   -14718662.84249  -8614808.31647  21761767.422    21761772.091
  23928367.928    -1739813.93949  -1333846.76945  23928366.996    23928371.500
  23507216.834    -3179183.79349  -2460277.05845  23507215.973    23507220.460
  20985921.715   -16037703.80049 -12031019.26847  20985920.929    20985924.300
  20341594.729   -17768569.87349 -13821667.47048  20341594.277    20341598.858
  22305350.790    -6857249.63149  -5314515.79646  22305350.527    22305355.195
  22984730.075    -7220520.95649  -5430550.51546  22984729.702    22984735.005
  23266618.884    -2722341.84149  -2084150.35146  23266618.035    23266622.650
 04  1  9  2 10 30.0000000  0  9G30G18G10G16G21G 6G26G29G17
  23317427.943    -1018508.64649   -777109.43845  23317427.980    23317431.097
  21746774.430   -14797455.07049  -8676204.82347  21746773.702    21746778.416
  23948343.071    -1634844.35749  -1252052.30745  23948341.958    23948346.629
  23497388.363    -3230832.59849  -2500522.85645  23497387.597    23497391.977
  20980229.491   -16067616.77649 -12054328.06047  20980228.700    20980231.990
  20344312.767   -17754286.76949 -13810537.77148  20344312.295    20344316.869
  22295645.702    -6908250.09549  -5354256.37746  22295645.416    22295650.108
  22982554.621    -7231954.03049  -5439459.38946  22982554.198    22982559.278
  23279498.538    -2654659.44449  -2031410.78546  23279497.659    23279502.270
 04  1  9  2 11  0.0000000  0  9G30G18G10G16G21G 6G26G29G17
  23337136.467     -914940.10449   -696406.71745  23337136.137    23337139.486
  21731850.323   -14875881.76149  -8737316.49547  21731849.594    21731854.329
  23968341.237    -1529751.73149  -1170161.93745  23968340.303    23968345.264
  23487653.988    -3281986.53949  -2540383.07845  23487653.266    23487657.353
  20974575.708   -16097327.72849 -12077479.43448  20974574.924    20974578.158
  20347116.635   -17739552.77949 -13799056.73748  20347116.145    20347120.687
  22286037.187    -6958742.31449  -5393600.95146  22286036.957    22286041.744
  22980478.407    -7242864.98249  -5447961.40246  22980478.075    22980483.075
  23292390.045    -2586913.14749  -1978621.46946  23292389.254    23292394.017
 04  1  9  2 11 30.0000000  0  9G30G18G10G16G21G 6G26G29G17
  23356858.344     -811300.76049   -615648.83245  23356857.973    23356861.107
  21716995.412   -14953944.63549  -8798144.68547  21716994.727    21716999.459
  23988361.698    -1424541.45349  -1088179.89145  23988360.805    23988366.231
  23478013.460    -3332647.23049  -2579858.91745  23478012.729    23478016.953
  20968959.874   -16126839.28749 -12100475.45048  20968959.092    20968962.281
  20350005.845   -17724370.17649 -13787226.14548  20350005.344    20350009.843
  22276525.651    -7008726.15149  -5432549.38046  22276525.333    22276530.149
  22978501.379    -7253255.80849  -5456058.12046  22978500.934    22978505.864
  23305293.527    -2519106.48749  -1925785.09846  23305292.581    23305297.307
 04  1  9  2 12  0.0000000  0  9G30G18G10G16G21G 6G26G29G17
  23376593.077     -707592.64149   -534837.31144  23376592.882    23376595.874
  21702210.255   -15031641.38849  -8858687.57447  21702209.513    21702214.252
  24008404.314    -1319214.87649  -1006107.27845  24008403.679    24008409.377
  23468467.541    -3382811.92449  -2618948.28345  23468466.738    23468470.791
  20963382.182   -16156150.66949 -12123315.47548  20963381.323    20963384.487
  20352980.711   -17708737.36549 -13775044.72948  20352980.195    20352984.645
  22267111.414    -7058197.81049  -5471098.70846  22267111.150    22267115.997
  22976623.570    -7263124.28349  -5463747.83046  22976623.094    22976627.956
  23318208.382    -2451238.33549  -1872900.81746  23318207.400    23318211.903
 04  1  9  2 12 30.0000000  0  9G30G18G10G16G21G 6G26G29G17
  23396340.994     -603816.32049   -453972.66244  23396340.522    23396343.991
  21687495.556   -15108968.18949  -8918942.19247  21687494.760    21687499.458
  24028469.628    -1213772.86949   -923944.66045  24028468.647    24028474.515
  23459016.602    -3432477.23049  -2657648.49945  23459015.751    23459019.971
  20957842.775   -16185260.21849 -12145998.22848  20957841.958    20957845.094
  20356041.729   -17692651.80449 -13762510.52948  20356041.186    20356045.645
  22257795.646    -7107152.78349  -5509245.40446  22257795.319    22257800.099
  22974845.673    -7272467.65649  -5471028.35646  22974845.175    22974849.811
  23331135.327    -2383307.20649  -1819967.44646  23331134.282    23331138.776
 04  1  9  2 13  0.0000000  0  9G30G18G10G16G21G 6G26G29G17
  23416101.203     -499978.60349   -373060.22244  23416099.802    23416103.530
  21672850.783   -15185927.51449  -8978910.46547  21672849.948    21672854.589
  24048555.609    -1108221.49949   -841696.83444  24048554.283    24048560.377
  23449660.292    -3481645.42849  -2695961.39345  23449659.568    23449663.815
  20952341.117   -16214171.53949 -12168526.51448  20952340.297    20952343.455
  20359188.252   -17676116.64149 -13749625.97848  20359187.728    20359192.172
  22248577.751    -7155592.03049  -5546990.25646  22248577.531    22248582.410
  22973167.046    -7281288.44349  -5477901.69146  22973166.578    22973171.172
  23344073.142    -2315317.12649  -1766988.18746  23344072.255    23344076.818
 04  1  9  2 13 30.0000000  0  9G30G18G10G16G21G 6G26G29G17
  23435871.198     -396082.94148   -292102.58344  23435870.245    23435873.917
  21658276.109   -15262518.17549  -9038591.45947  21658275.228    21658279.859
  24068661.874    -1002563.42049   -759365.86344  24068660.313    24068666.502
  23440398.546    -3530315.47949  -2733886.08145  23440397.890    23440402.366
  20946876.969   -16242885.46449 -12190900.98248  20946876.180    20946879.372
  20362420.381   -17659131.70949 -13736390.96248  20362419.870    20362424.331
  22239458.552    -7203513.28149  -5584331.45846  22239458.324    22239463.330
  22971588.073    -7289586.38449  -5484367.59346  22971587.571    22971591.864
  23357022.452    -2247268.76749  -1713963.46146  23357021.471    23357025.722
 04  1  9  2 14  0.0000000  0  9G30G18G10G16G21G 6G26G29G17
  23455652.662     -292125.23048   -211096.57544  23455652.013    23455656.850
  21643773.127   -15338731.67649  -9097978.57147  21643772.268    21643776.894
  24088788.768     -896794.84149   -676948.78844  24088787.239    24088793.814
  23431233.458    -3578478.91249  -2771416.01745  23431232.715    23431237.205
  20941451.718   -16271395.32349 -12213116.44148  20941450.905    20941454.092
  20365739.535   -17641689.67749 -13722799.76448  20365739.022    20365743.472
  22230439.630    -7250907.20749  -5621261.77246  22230439.457    22230444.625
  22970109.994    -7297353.70049  -5490420.03746  22970109.484    22970113.729
  23369983.854    -2179155.44049  -1660888.15645  23369982.878    23369987.282
 04  1  9  2 14 30.0000000  0  9G30G18G10G16G21G 6G26G29G17
  23475445.277     -188110.97048   -130046.56444  23475444.741    23475450.343
  21629341.618   -15414569.18049  -9157072.70047  21629340.809    21629345.442
  24108935.796     -790920.45749   -594449.26944  24108934.632    24108940.915
  23422164.603    -3626137.06349  -2808552.23345  23422163.903    23422168.100
  20936064.761   -16299703.67549 -12235174.88248  20936063.994    20936067.189
  20369145.267   -17623792.61849 -13708853.99748  20369144.734    20369149.165
  22221521.255    -7297773.54149  -5657780.96546  22221521.121    22221526.421
  22968732.662    -7304592.00849  -5496060.24846  22968732.207    22968736.277
  23382957.231    -2110980.12349  -1607764.51745  23382956.207    23382960.406
 04  1  9  2 15  0.0000000  0 10G30G18G10G16G21G 6G26G29G17G15
  23495247.222      -84046.86548    -48957.69944  23495247.438    23495253.159
  21614981.126   -15490032.99949  -9215875.65047  21614980.451    21614985.084
  24129102.430     -684946.55449   -511872.17344  24129101.132    24129106.700
  23413191.313    -3673292.17849  -2845296.47245  23413190.565    23413194.612
  20930715.503   -16327814.15049 -12257079.13048  20930714.718    20930718.009
  20372636.986   -17605443.51649 -13694555.99148  20372636.457    20372640.879
  22212702.975    -7344113.46149  -5693889.97446  22212702.876    22212708.302
  22967455.392    -7311304.07149  -5501290.41346  22967454.992    22967458.904
  23395941.390    -2042746.55949  -1554595.52645  23395940.487    23395944.726
                  -1417058.08049  -1093677.23843
 04  1  9  2 15 30.0000000  0 10G30G18G10G16G21G 6G26G29G17G15
  23515059.401       20066.15948     32169.33644  23515060.103    23515066.645
  21600692.550   -15565119.81849  -9274384.82547  21600691.872    21600696.485
  24149287.979     -578873.90149   -429218.16644  24149286.287    24149291.837
  23404314.206    -3719941.23249  -2881646.38645  23404313.491    23404317.507
  20925404.249   -16355725.14449 -12278827.94148  20925403.484    20925406.760
  20376215.076   -17586640.30249 -13679904.13048  20376214.560    20376219.043
  22203985.829    -7389922.59449  -5729585.37446  22203985.681    22203991.194
  22966278.803    -7317487.45649  -5506108.61746  22966278.406    22966282.148
  23408937.296    -1974453.48149  -1501380.13645  23408936.271    23408940.512
                  -1493320.19049  -1153101.73043
 04  1  9  2 16  0.0000000  0 10G30G18G10G16G21G 6G26G29G17G15
  23534880.291      124224.64948    113331.72944  23534880.562    23534888.067
  21586475.948   -15639828.77549  -9332599.55847  21586475.204    21586479.808
  24169491.951     -472705.33049   -346489.39144  24169489.631    24169494.853
  23395533.794    -3766083.30049  -2917601.23545  23395533.060    23395536.950
  20920130.874   -16383437.23349 -12300421.75848  20920130.075    20920133.308
  20379879.596   -17567382.81449 -13664898.28348  20379879.083    20379883.616
  22195369.842    -7435198.80249  -5764865.51446  22195369.825    22195375.416
  22965202.870    -7323141.74049  -5510514.53246  22965202.422    22965206.067
  23421943.900    -1906101.26449  -1448118.65045  23421942.947    23421947.042
                  -1569498.77749  -1212461.69144                  23843097.508
 04  1  9  2 16 30.0000000  0 10G30G18G10G16G21G 6G26G29G17G15
  23554709.332      228427.14948    194528.45744  23554710.002    23554717.357
  21572331.751   -15714157.13849  -9390517.73147  21572330.946    21572335.523
  24189713.628     -366441.80949   -263686.60244  24189711.499    24189716.020
  23386850.414    -3811715.40349  -2953158.72645  23386849.661    23386853.509
  20914895.552   -16410949.07749 -12321859.54048  20914894.750    20914898.004
  20383630.963   -17547669.19549 -13649537.01448  20383630.496    20383635.035
  22186856.162    -7479938.08049  -5799727.27046  22186856.129    22186861.847
  22964227.976    -7328264.48249  -5514506.24646  22964227.646    22964231.214
  23434962.498    -1837688.84449  -1394810.24645  23434961.534    23434965.463
  23828617.716    -1645592.27949  -1271755.31545  23828615.413    23828617.270
 04  1  9  2 17  0.0000000  0 10G30G18G10G16G21G 6G26G29G17G15
  23574545.055      332665.55648    275753.20244  23574546.300    23574553.255
  21558259.233   -15788108.52449  -9448142.15947  21558258.438    21558262.985
  24209951.573     -260091.16549   -180815.96144  24209949.281    24209953.870
  23378263.034    -3856841.61949  -2988321.99945  23378262.366    23378266.391
  20909697.213   -16438266.13449 -12343145.55048  20909696.428    20909699.728
  20387468.268   -17527504.04549 -13633823.91248  20387467.770    20387472.306
  22178444.164    -7524143.15149  -5834172.77946  22178444.143    22178449.895
  22963353.448    -7332860.48249  -5518087.52946  22963353.101    22963356.574
  23447991.267    -1769221.56549  -1341459.14045  23447990.264    23447994.275
  23814152.415    -1721605.87149  -1330986.64845  23814151.386    23814153.318
 04  1  9  2 17 30.0000000  0 10G30G18G10G16G21G 6G26G29G17G15
  23594387.905      436941.30048    357006.98944                  23594389.094
  21544259.489   -15861677.32149  -9505468.45947  21544258.690    21544263.268
  24230206.240     -153651.38848    -97875.86744  24230203.979    24230208.547
  23369773.155    -3901456.42249  -3023086.77845  23369772.454    23369776.523
  20904536.838   -16465384.22049 -12364276.51248  20904536.061    20904539.274
  20391392.320   -17506882.83249 -13617755.43348  20391391.853    20391396.407
  22170135.304    -7567807.38249  -5868196.83346  22170135.195    22170140.891
  22962580.119    -7336924.62049  -5521254.36146  22962579.787    22962583.128
  23461031.355    -1700695.60449  -1288062.23845  23461030.496    23461034.131
  23799703.479    -1797535.41249  -1390152.50345  23799701.390    23799704.839
 04  1  9  2 18  0.0000000  0 10G30G18G10G16G21G 6G26G29G17G15
  23614238.165      541254.14348    438289.71744                  23614239.300
  21530333.193   -15934859.68349  -9562493.64747  21530332.451    21530337.047
  24250477.889      -47122.27548    -14866.16944  24250475.882    24250480.591
  23361381.220    -3945556.13349  -3057450.19845  23361380.533    23361384.521
  20899414.792   -16492300.94449 -12385250.56348  20899414.007    20899417.180
  20395403.784   -17485802.61849 -13601329.28648  20395403.296    20395407.872
  22161930.315    -7610925.56249  -5901795.39146  22161930.234    22161935.748
  22961908.664    -7340453.58149  -5524004.17446  22961908.262    22961911.490
  23474083.070    -1632108.41249  -1234617.67845  23474082.022    23474085.894
  23785270.791    -1873378.58349  -1449251.03845  23785268.701    23785272.055
 04  1  9  2 18 30.0000000  0 10G30G18G10G16G21G 6G26G29G17G15
  23634093.979      645597.53449    519596.25144                  23634095.386
  21516480.148   -16007657.69249  -9619219.33047  21516479.431    21516483.996
  24270766.032       59490.02948     68208.38144  24270764.418    24270767.934
  23353086.886    -3989142.82649  -3091413.85045  23353086.195    23353090.239
  20894330.415   -16519019.98249 -12406070.58248  20894329.597    20894332.737
  20399501.923   -17464266.63849 -13584548.00148  20399501.459    20399506.050
  22153829.050    -7653498.90949  -5934969.39246  22153828.863    22153834.301
  22961338.348    -7343450.10649  -5526339.09946  22961337.977    22961341.205
  23487145.671    -1563464.05549  -1181128.55845  23487144.678    23487148.353
  23770853.522    -1949138.81449  -1508284.97345  23770851.572    23770855.562
 04  1  9  2 19  0.0000000  0 10G30G18G10G16G21G 6G26G29G17G15
  23653955.330      749972.74948    600927.60244                  23653957.763
  21502701.294   -16080066.04549  -9675641.38847  21502700.580    21502705.100
  24291070.030      166187.05048    151348.92244  24291069.391    24291072.346
  23344891.090    -4032211.26749  -3124973.65145  23344890.470    23344894.327
  20889284.377   -16545537.11449 -12426733.26448  20889283.530    20889286.706
  20403687.757   -17442270.18749 -13567407.90448  20403687.261    20403691.860
  22145832.551    -7695520.84349  -5967713.72246  22145832.319    22145837.730
  22960870.346    -7345909.51949  -5528255.51046  22960869.990    22960873.232
  23500219.994    -1494758.37249  -1127591.61745  23500219.037    23500222.581
  23756452.840    -2024812.02449  -1567251.09645  23756451.231    23756455.451
 04  1  9  2 19 30.0000000  0 10G30G18G10G16G21G 6G26G29G17G15
  23673823.312      854378.14749    682282.49744                  23673825.912
  21488997.160   -16152082.15649  -9731757.81047  21488996.387    21489000.867
  24311389.928      272967.79848    234554.71444  24311388.686    24311392.507
  23336794.471    -4074758.82849  -3158127.60145  23336793.903    23336797.610
  20884276.898   -16571851.39149 -12447237.88548  20884276.087    20884279.236
  20407961.484   -17419811.64549 -13549907.73948  20407961.013    20407965.640
  22137941.585    -7736987.93649  -6000025.72146  22137941.312    22137946.808
  22960505.015    -7347829.92049  -5529751.91246  22960504.563    22960507.902
  23513306.168    -1425990.42749  -1074006.19745  23513305.118    23513308.975
  23742069.618    -2100396.99449  -1626148.46845  23742068.256    23742072.673
 04  1  9  2 20  0.0000000  0 10G30G18G10G16G21G 6G26G29G17G15
  23693695.757      958802.61349    763652.16844  23693697.266    23693701.003
  21475366.327   -16223713.12049  -9787574.11047  21475365.504    21475369.974
  24331724.177      379821.35248    317817.20344  24331722.159    24331726.260
  23328795.753    -4116792.93649  -3190881.42945  23328795.162    23328798.733
  20879306.483   -16597971.27049 -12467591.02848  20879305.608    20879308.769
  20412321.562   -17396899.21449 -13532053.90148  20412321.084    20412325.757
  22130155.139    -7777905.81549  -6031909.76046  22130154.783    22130160.418
  22960240.809    -7349219.17749  -5530834.43246  22960240.287    22960243.600
  23526402.257    -1357168.76449  -1020378.88545  23526401.241    23526405.409
  23727701.690    -2175902.11449  -1684983.61045  23727700.295    23727705.155
 04  1  9  2 20 30.0000000  0 10G30G18G10G16G21G 6G26G29G17G15
  23713572.997     1063250.88249    845040.43244                  23713573.362
  21461810.395   -16294949.98449  -9843083.32347  21461809.568    21461814.067
  24352071.798      486753.11748    401140.66444  24352069.876    24352074.684
  23320896.417    -4158304.64749  -3223228.20845  23320895.760    23320899.262
  20874374.508   -16623889.06249 -12487786.69948  20874373.652    20874376.814
  20416769.533   -17373524.80049 -13513840.06648  20416769.085    20416773.826
  22122474.795    -7818264.72149  -6063358.24146  22122474.530    22122480.398
  22960079.047    -7350069.11049  -5531496.69346  22960078.519    22960081.855
  23539509.940    -1288286.00249   -966703.98745  23539509.107    23539513.646
  23713350.190    -2251319.63749  -1743750.48544  23713349.130    23713354.082
 04  1  9  2 21  0.0000000  0 10G30G18G10G16G21G 6G26G29G17G15
  23733453.164     1167713.94749    926440.18144  23733452.991    23733454.900
  21448328.523   -16365797.56649  -9898289.20447  21448327.752    21448332.240
  24372433.395      593754.33148    484518.22044                  24372430.788
  23313095.401    -4199299.03049  -3255171.87245  23313094.800    23313098.285
  20869479.708   -16649611.20649 -12507829.92348  20869478.831    20869482.026
  20421304.296   -17349694.19049 -13495270.76948  20421303.865    20421308.637
  22114900.149    -7858068.31549  -6094374.01546  22114900.013    22114906.040
  22960018.903    -7350385.17249  -5531742.95046  22960018.380    22960021.703
  23552628.239    -1219348.36449   -912986.33745  23552627.465    23552632.276
  23699014.558    -2326655.74449  -1802453.89344  23699013.654    23699018.422
 04  1  9  2 21 30.0000000  0 10G30G18G10G16G21G 6G26G29G17G15
  23753335.935     1272195.57649   1007854.39844  23753335.617    23753336.565
  21434922.241   -16436247.86449  -9953185.50947  21434921.522    21434925.992
  24392809.041      700829.42848    567953.36644                  24392806.281
  23305394.301    -4239768.39749  -3286706.43845  23305393.682    23305397.172
  20864623.428   -16675130.94449 -12527715.41948  20864622.553    20864625.799
  20425927.256   -17325400.55149 -13476340.66048  20425926.795    20425931.594
  22107433.092    -7897307.79549  -6124950.20246  22107432.963    22107439.052
  22960061.715    -7350160.15349  -5531567.58346  22960061.200    22960064.495
  23565757.731    -1150349.58549   -859221.03945  23565757.067    23565762.448
  23684695.037    -2401903.79649  -1861088.77444  23684694.408    23684698.916
 04  1  9  2 22  0.0000000  0 10G30G18G10G16G21G 6G26G29G17G15
  23773220.439     1376687.18049   1089276.42144  23773220.070    23773220.334
  21421590.758   -16506305.42249 -10007775.78847  21421590.042    21421594.443
  24413195.939      807970.38948    651439.82444                  24413194.161
  23297792.148    -4279717.28749  -3317835.42545  23297791.505    23297794.775
  20859804.514   -16700454.14749 -12547447.78048  20859803.649    20859806.957
  20430637.192   -17300649.31349 -13457053.98548  20430636.774    20430641.588
  22100072.749    -7935986.51549  -6155089.44846  22100072.638    22100078.702
  22960206.468    -7349399.37649  -5530974.75646  22960205.920    22960209.267
  23578898.063    -1081295.45849   -805412.62545  23578897.419    23578903.375
  23670392.185    -2477069.71549  -1919659.58244  23670391.546    23670395.544
 04  1  9  2 22 30.0000000  0 10G30G18G10G16G21G 6G26G29G17G15
  23793106.490     1481191.32248   1170708.18444  23793106.267    23793106.718
  21408335.204   -16575963.95149 -10062055.13847  21408334.488    21408338.843
                    915179.92458    734979.76344
  23290290.147    -4319139.44349  -3348553.97445  23290289.528    23290292.700
  20855023.980   -16725575.69849 -12567023.00548  20855023.128    20855026.524
  20435435.353   -17275434.90449 -13437406.40048  20435434.923    20435439.762
  22092820.583    -7974097.04049  -6184785.93846  22092820.499    22092826.518
  22960454.250    -7348097.18549  -5529960.05246  22960453.689    22960457.044
  23592049.716    -1012181.01449   -751557.21245  23592048.995    23592055.643
  23656105.810    -2552148.18949  -1978162.22944  23656105.409    23656108.677
 04  1  9  2 23  0.0000000  0 10G30G18G10G16G21G 6G26G29G17G15
  23812994.149     1585702.87948   1252145.69744  23812993.889    23812995.356
  21395155.518   -16645224.12249 -10116024.07847  21395154.772    21395159.053
                   1022453.44258   2790082.51543
                  -4358035.93949  -3378862.93645                  23282890.580
  20850281.345   -16750497.83549 -12586442.84548  20850280.521    20850283.967
  20440321.252   -17249759.09649 -13417399.28248  20440320.830    20440325.721
  22085676.661    -8011639.14349  -6214039.49346  22085676.524    22085682.364
  22960804.644    -7346255.11649  -5528524.65846  22960804.156    22960807.551
  23605212.562     -943008.52749   -697656.56245  23605211.891    23605218.736
  23641835.168    -2627141.16349  -2036598.30944  23641835.048    23641837.987
 04  1  9  2 23 30.0000000  0 10G30G18G10G16G21G 6G26G29G17G15
  23832882.319     1690217.83549   1333585.88444  23832882.260    23832884.206
  21382051.619   -16714086.23849 -10169682.84047  21382050.824    21382055.017
                   1129787.68058   2873699.82143
  23275586.758    -4396406.91049  -3408762.39445  23275585.978    23275588.598
  20845576.360   -16775222.27349 -12605708.63048  20845575.538    20845579.019
  20445294.767   -17223623.06949 -13397033.55148  20445294.347    20445299.265
  22078640.978    -8048611.99549  -6242849.48246  22078640.835    22078646.592
  22961257.671    -7343874.02749  -5526669.24046  22961257.113    22961260.774
  23618386.745     -873779.62449   -643711.94945  23618386.001    23618392.635
  23627580.463    -2702050.19149  -2094968.98644  23627580.057    23627583.594
 04  1  9  2 24  0.0000000  0 10G30G18G10G16G21G 6G26G29G17G15
  23852770.856     1794733.53849   1415026.66044  23852770.672    23852773.543
  21369023.729   -16782548.68549 -10223030.16847  21369022.913    21369027.035
                   1237180.04758   2957358.98343
  23268385.035    -4434251.09249  -3438251.34645  23268384.403    23268386.975
  20840909.213   -16799748.23849 -12624819.75648  20840908.379    20840911.860
  20450355.941   -17197026.52349 -13376308.96748  20450355.513    20450360.427
  22071714.018    -8085013.27649  -6271214.08246  22071713.940    22071719.611
  22961813.276    -7340953.29949  -5524393.33646  22961812.788    22961816.729
  23631571.018     -804493.98849   -589723.14245  23631570.265    23631577.467
  23613341.165    -2776875.01249  -2153274.04844  23613340.606    23613345.198
 04  1  9  2 24 30.0000000  0  9G30G18G16G21G 6G26G29G17G15
  23872659.357     1899250.00449   1496468.00344  23872659.551    23872663.176
  21356072.563   -16850607.54249 -10276063.01847  21356071.739    21356075.826
  23261284.216    -4471564.78249  -3467326.92045  23261283.549    23261286.177
  20836280.308   -16824073.23449 -12643774.29048  20836279.454    20836282.977
  20455505.359   -17169966.34849 -13355223.12348  20455504.919    20455509.807
  22064896.882    -8120837.87649  -6299129.33946  22064896.780    22064902.376
  22962472.459    -7337489.59649  -5521694.33046  22962471.932    22962475.863
  23644766.668     -735149.05149   -535688.12045  23644765.820    23644773.393
  23599118.566    -2851612.75949  -2211511.29044  23599118.032    23599122.663
 04  1  9  2 25  0.0000000  0  9G30G18G16G21G 6G26G29G17G15
  23892546.890     2003762.63849   1577906.39844  23892547.284    23892551.591
  21343198.018   -16918263.33749 -10328781.79547  21343197.242    21343201.292
  23254284.454    -4508348.99049  -3495989.92945  23254283.665    23254286.099
  20831689.076   -16848199.35649 -12662573.85548  20831688.272    20831691.931
  20460742.654   -17142444.26649 -13333777.35148  20460742.213    20460747.097
  22058189.586    -8156085.74549  -6326595.17846  22058189.403    22058194.898
  22963234.521    -7333484.67149  -5518573.59446  22963234.014    22963237.933
  23657973.666     -665746.87349   -481608.48945  23657972.686    23657980.368
  23584911.845    -2926265.52449  -2269682.27744  23584911.418    23584916.631
 04  1  9  2 25 30.0000000  0  9G30G18G16G21G 6G26G29G17G15
  23912433.903     2108268.52649   1659339.48744  23912433.906    23912438.871
  21330400.401   -16985515.13049 -10381185.77047  21330399.652    21330403.656
  23247385.543    -4544602.78249  -3524239.64845  23247384.750    23247387.186
  20827135.841   -16872126.68249 -12681218.51348  20827135.024    20827138.710
  20466067.848   -17114460.09049 -13311971.49848  20466067.406    20466072.272
  22051592.416    -8190754.67649  -6353609.89846  22051592.220    22051597.602
  22964099.606    -7328938.16549  -5515030.84446  22964099.085    22964103.087
  23671190.870     -596287.73649   -427484.48245  23671190.127    23671198.158
  23570721.522    -3000833.09649  -2327786.89145  23570720.791    23570727.165
 04  1  9  2 26  0.0000000  0  9G30G18G16G21G 6G26G29G17G15
  23932319.051     2212766.46449   1740766.41744  23932319.030    23932324.650
  21317680.226   -17052360.21149 -10433272.82547  21317679.478    21317683.412
  23240588.093    -4580323.56449  -3552074.04145  23240587.367    23240589.513
  20822620.779   -16895853.40249 -12699706.85648  20822619.940    20822623.652
  20471481.357   -17086012.00049 -13289804.16448  20471480.889    20471485.768
  22045105.956    -8224840.92549  -6380170.58846  22045105.801    22045111.189
  22965068.070    -7323848.10149  -5511064.54846  22965067.565    22965071.619
  23684419.427     -526770.07449   -373314.85745  23684418.638    23684426.935
  23556547.732    -3075313.99548  -2385823.91745  23556546.824    23556553.881
 04  1  9  2 26 30.0000000  0  9G30G18G16G21G 6G26G29G17G15
  23952201.190     2317250.00149   1822182.11445  23952201.446    23952207.940
  21305036.953   -17118801.18849 -10485044.99647  21305036.150    21305040.017
  23233891.522    -4615514.34849  -3579495.43545  23233890.732    23233893.031
  20818143.094   -16919383.53849 -12718042.01548  20818142.300    20818146.002
  20476982.388   -17057103.79949 -13267278.29448  20476981.930    20476986.849
  22038729.981    -8258346.25149  -6406278.62446  22038729.865    22038735.283
  22966139.513    -7318217.90249  -5506677.37146  22966138.933    22966142.961
  23697658.719     -457197.96149   -319102.83845  23697657.683    23697666.111
  23542389.184    -3149712.05149  -2443796.46445  23542388.656    23542396.437
 04  1  9  2 27  0.0000000  0  9G30G18G16G21G 6G26G29G17G15
  23972080.056     2421716.05749   1903584.22545  23972080.634    23972087.431
  21292470.675   -17184837.19549 -10536501.59947  21292469.910    21292473.743
  23227295.691    -4650174.20649  -3606503.09745  23227294.958    23227297.530
  20813702.821   -16942717.21849 -12736224.08448  20813702.004    20813705.737
  20482570.972   -17027735.37349 -13244393.80848  20482570.512    20482575.496
  22032464.873    -8291268.67149  -6431932.42946  22032464.802    22032470.303
  22967313.746    -7312047.36049  -5501869.12546  22967313.090    22967317.086
  23710907.689     -387571.55549   -264848.50145  23710906.762    23710915.722
  23528246.932    -3224027.29148  -2501704.36444  23528245.677    23528254.513
 04  1  9  2 27 30.0000000  0  9G30G18G16G21G 6G26G29G17G15
  23991957.487     2526171.70449   1984978.17545  23991957.734    23991965.082
  21279983.594   -17250457.12349 -10587633.99547  21279982.824    21279986.643
  23220803.148    -4684292.38149  -3633088.68445  23220802.454    23220805.105
  20809301.775   -16965844.56249 -12754245.37648  20809300.941    20809304.734
  20488248.999   -16997896.82049 -13221142.99148  20488248.541    20488253.570
  22026312.966    -8323596.51049  -6457122.93646  22026312.891    22026318.425
  22968592.463    -7305326.61449  -5496632.16746  22968591.914    22968595.967
  23724168.676     -317881.15749   -210544.29845  23724167.851    23724177.498
  23514121.745    -3298249.87248  -2559540.11045  23514120.815    23514130.465
 04  1  9  2 28  0.0000000  0  9G30G18G16G21G 6G26G29G17G15
  24011830.785     2630602.54149   2066352.83445  24011830.495    24011837.881
  21267573.626   -17315671.58549 -10638450.43647  21267572.916    21267576.678
  23214411.867    -4717880.04349  -3659260.91545  23214411.157    23214413.727
  20804937.628   -16988777.78849 -12772115.41448  20804936.802    20804940.632
  20494014.256   -16967599.90249 -13197535.00448  20494013.810    20494018.906
  22020272.456    -8355339.45349  -6481857.67846  22020272.393    22020277.880
  22969973.919    -7298067.21149  -5490975.47046  22969973.269    22969977.334
  23737440.292     -248138.87249   -156199.69545  23737439.362    23737448.990
  23500011.371    -3372391.59748  -2617312.85845  23500011.082    23500021.585
 04  1  9  2 28 30.0000000  0  9G30G18G16G21G 6G26G29G17G15
  24031699.476     2735010.35149   2147709.54445  24031698.822    24031705.957
  21255241.955   -17380475.14849 -10688946.70447  21255241.193    21255244.893
  23208122.564    -4750931.41649  -3685015.23745  23208121.862    23208124.190
  20800611.388   -17011511.98849 -12789830.36148  20800610.587    20800614.465
  20499867.660   -16936839.91049 -13173566.18648  20499867.207    20499872.322
  22014344.613    -8386490.86949  -6506131.48946  22014344.506    22014349.939
  22971458.613    -7290264.05549  -5484895.09546  22971458.051    22971462.234
  23750722.807     -178339.83949   -101810.82145  23750721.897    23750731.518
  23485918.032    -3446447.84148  -2675018.98245  23485918.228    23485929.263
 04  1  9  2 29  0.0000000  0  9G30G18G16G21G 6G26G29G17G15
  24051562.533     2839389.06049   2229043.55244  24051561.471    24051569.101
  21242987.962   -17444869.99749 -10739124.48847  21242987.216    21242990.893
  23201934.682    -4783449.38049  -3710353.91445  23201933.966    23201936.505
  20796322.366   -17034050.57349 -12807392.88448  20796321.586    20796325.468
  20505808.539   -16905620.18749 -13149239.13648  20505808.075    20505813.196
  22008529.147    -8417052.04149  -6529945.36446  22008528.953    22008534.298
  22973046.198    -7281920.52849  -5478393.63246  22973045.632    22973049.840
  23764014.908     -108487.75949    -47380.64745  23764014.146    23764024.033
  23471841.646    -3520421.96149  -2732661.07645  23471841.373    23471852.588
 04  1  9  2 29 30.0000000  0  9G30G18G16G21G 6G26G29G17G15
  24071419.492     2943739.46948   2310355.55044  24071418.734    24071426.421
  21230812.540   -17508851.62549 -10788980.27847  21230811.805    21230815.524
  23195848.879    -4815429.48449  -3735273.48345  23195848.248    23195851.115
  20792071.371   -17056389.84749 -12824800.09548  20792070.609    20792074.436
  20511837.563   -16873937.11149 -13124551.02448  20511837.131    20511842.229
  22002826.879    -8447017.82649  -6553295.30346  22002826.690    22002831.973
  22974737.311    -7273032.89249  -5471468.19546  22974736.860    22974741.075
  23777318.133      -38579.22349      7093.55745  23777317.504    23777326.952
  23457780.899    -3594310.51648  -2790236.54945  23457780.418    23457791.888
 04  1  9  2 30  0.0000000  0  9G30G18G16G21G 6G26G29G17G15
  24091270.519     3048058.98748   2391643.46444  24091270.332    24091277.975
  21218715.987   -17572418.71149 -10838513.05047  21218715.329    21218719.068
  23189865.825    -4846870.94449  -3759773.33045  23189865.210    23189868.238
  20787858.300   -17078530.11349 -12842052.23748  20787857.476    20787861.320
  20517954.921   -16841790.37249 -13099501.61448  20517954.456    20517959.540
  21997238.366    -8476385.95949  -6576179.54246  21997238.159    21997243.400
  22976532.097    -7263600.88749  -5464118.56746  22976531.648    22976535.910
  23790632.868       31385.80049     61611.74445  23790632.097    23790641.028
  23443735.882    -3668113.24249  -2847745.17145  23443736.028    23443747.628
 04  1  9  2 30 30.0000000  0  9G30G18G16G21G 6G26G29G17G15
  24111115.145     3152345.24848   2472905.43244  24111114.893    24111122.927
  21206698.697   -17635569.98449 -10887721.82247  21206697.998    21206701.711
  23183985.372    -4877772.51049  -3783852.49745  23183984.900    23183987.899
  20783682.999   -17100471.04249 -12859149.06548  20783682.256    20783686.032
  20524160.544   -16809179.62349 -13074090.65648  20524160.060    20524165.108
  21991763.916    -8505154.42849  -6598596.52146  21991763.699    21991768.865
  22978430.468    -7253624.13049  -5456344.46346  22978430.074    22978434.368
  23803957.439      101407.45649    116174.04645  23803956.774    23803965.996
  23429708.825    -3741829.76149  -2905186.59945  23429708.700    23429720.037
 04  1  9  2 31  0.0000000  0  9G30G18G16G21G 6G26G29G17G15
  24130952.570     3256594.70348   2554138.71944  24130952.420    24130961.213
  21194760.650   -17698305.18349 -10936606.36947  21194759.883    21194763.565
  23178207.843    -4908134.31549  -3807511.05845  23178207.381    23178210.269
  20779545.794   -17122213.02249 -12876090.85148  20779544.990    20779548.687
  20530454.272   -16776105.69749 -13048318.76448  20530453.813    20530458.835
  21986403.813    -8533322.12449  -6620545.35246  21986403.580    21986408.685
  22980432.495    -7243103.26749  -5448146.36246  22980432.128    22980436.472
  23817293.094      171485.11549    170780.02845  23817292.470    23817301.247
  23415697.674    -3815460.85249  -2962561.44545  23415697.309    23415708.563
 04  1  9  2 31 30.0000000  0  9G30G18G16G21G 6G26G29G17G15
  24150782.451     3360803.17048   2635340.12744  24150782.211    24150792.217
  21182901.553   -17760624.86449 -10985167.14347  21182900.793    21182904.476
  23172532.755    -4937957.13649  -3830749.63845  23172532.300    23172535.344
  20775446.006   -17143757.52349 -12892878.76948  20775445.258    20775448.881
  20536835.915   -16742570.12849 -13022187.15448  20536835.445    20536840.432
  21981158.084    -8560888.76949  -6642025.83846  21981157.801    21981162.884
  22982537.911    -7232039.65249  -5439525.34846  22982537.530    22982541.860
  23830639.245      241616.65549    225427.97045  23830638.431    23830646.870
  23401702.805    -3889008.00349  -3019870.90845  23401702.198    23401712.823
 04  1  9  2 32  0.0000000  0  9G30G18G16G21G 6G26G29G17G15
  24170604.259     3464967.14649   2716506.80544  24170603.661    24170613.812
  21171121.505   -17822528.90149 -11033404.03747  21171120.778    21171124.519
  23166960.060    -4967241.19149  -3853568.37245  23166959.518    23166962.887
  20771383.674   -17165105.78549 -12909513.76648  20771382.901    20771386.400
  20543305.218   -16708573.66449 -12995696.40748  20543304.736    20543309.665
  21976026.719    -8587853.14549  -6663037.02246  21976026.564    21976031.703
  22984746.540    -7220434.05049  -5430482.00646  22984746.111    22984750.397
  23843995.248      311801.68249    280117.60745  23843994.515    23844003.010
  23387723.247    -3962472.15849  -3077115.66545  23387722.857    23387732.767
 04  1  9  2 32 30.0000000  0  9G30G18G16G21G 6G26G29G17G15
  24190419.289     3569091.70348   2797642.80344  24190417.921    24190428.632
  21159422.285   -17884008.38349 -11081310.11047  21159421.587    21159425.347
  23161491.461    -4995977.90849  -3875960.64345  23161490.983    23161494.661
  20767360.190   -17186250.00349 -12925989.77048  20767359.376    20767362.817
  20549863.631   -16674108.60249 -12968840.51648  20549863.186    20549868.136
  21971011.940    -8614205.96249  -6683571.66746  21971011.735    21971016.865
  22987059.708    -7208278.71149  -5421010.30146  22987059.260    22987063.665
  23857362.883      382047.69149    334854.75045  23857362.122    23857370.425
  23373761.392    -4035845.35249  -3134289.57145  23373760.781    23373770.155
 04  1  9  2 33  0.0000000  0  9G30G18G16G21G 6G26G29G17G15
  24210224.334     3673164.71749   2878738.63944  24210223.049    24210233.255
  21147802.337   -17945071.68449 -11128891.87547  21147801.592    21147805.379
  23156125.470    -5024176.23149  -3897933.36245  23156124.959    23156128.656
  20763373.687   -17207199.30449 -12942313.88748  20763372.866    20763376.256
  20556509.526   -16639184.31949 -12941626.78748  20556509.065    20556514.002
  21966112.188    -8639954.72549  -6703635.61846  21966111.987    21966117.059
  22989475.576    -7195582.96649  -5411117.49746  22989475.217    22989479.691
  23870740.157      452345.14549    389631.99145  23870739.371    23870747.718
  23359815.033    -4109137.17949  -3191400.05645  23359814.036    23359823.434
 04  1  9  2 33 30.0000000  0  9G30G18G16G21G 6G26G29G17G15
  24230019.650     3777186.70549   2959794.73744  24230018.337    24230028.054
  21136262.280   -18005714.73949 -11176146.18447  21136261.611    21136265.394
  23150862.580    -5051832.27649  -3919483.54145  23150862.171    23150865.860
  20759424.835   -17227950.70049 -12958483.79948  20759424.040    20759427.390
  20563243.367   -16603797.83349 -12914052.90748  20563242.923    20563247.836
  21961328.183    -8665094.65449  -6723225.15446  21961327.989    21961333.012
  22991994.864    -7182343.93549  -5400801.34146  22991994.454    22991998.979
  23884128.144      522697.40749    444451.91945  23884127.312    23884135.202
  23345884.759    -4182344.31549  -3248444.56745  23345883.690    23345892.752
 04  1  9  2 34  0.0000000  0  9G30G18G16G21G 6G26G29G17G15
  24249805.185     3881158.52649   3040811.72644  24249803.332    24249812.826
  21124803.114   -18065933.30749 -11223069.72948  21124802.404    21124806.168
  23145703.880    -5078942.02749  -3940608.02645  23145703.333    23145707.089
  20755514.414   -17248500.51949 -12974496.63448  20755513.607    20755516.843
  20570065.812   -16567945.82749 -12886116.28748  20570065.360    20570070.247
  21956661.089    -8689620.67949  -6742336.32546  21956660.850    21956665.933
  22994618.070    -7168557.88249  -5390058.95546  22994617.797    22994622.563
  23897526.898      593107.76749    499317.13545  23897526.186    23897533.863
  23331970.935    -4255463.22849  -3305420.32745  23331969.803    23331978.672
 04  1  9  2 34 30.0000000  0  9G30G18G16G21G 6G26G29G17G15
  24269578.800     3985071.82048   3121783.10644  24269577.473    24269586.564
  21113423.882   -18125732.03149 -11269666.11448  21113423.081    21113426.821
  23140648.086    -5105510.43749  -3961310.68845  23140647.613    23140651.333
  20751641.216   -17268854.44249 -12990356.82148  20751640.418    20751643.564
  20576975.788   -16531633.90749 -12857821.29648  20576975.326    20576980.151
  21952110.075    -8713536.39649  -6760971.93847  21952109.870    21952114.891
  22997344.580    -7154230.46649  -5378894.69746  22997344.150    22997348.983
  23910935.364      663570.59449    554223.21745  23910934.814    23910942.634
  23318072.955    -4328499.35249  -3362331.56545  23318071.804    23318080.424
 04  1  9  2 35  0.0000000  0  9G30G18G16G21G 6G26G29G17G15
  24289342.064     4088931.61048   3202712.80344  24289341.111    24289350.243
  21102125.999   -18185102.67449 -11315928.93448  21102125.223    21102128.956
  23135696.775    -5131529.56849  -3981585.34746  23135696.410    23135700.216
  20747806.769   -17289004.63549 -13006058.25948  20747805.953    20747809.068
  20583974.606   -16494854.80649 -12829162.26048  20583974.151    20583978.961
  21947676.982    -8736833.17049  -6779125.25047  21947676.690    21947681.724
  23000175.339    -7139354.62849  -5367303.12046  23000174.960    23000179.770
  23924355.426      734093.00149    609175.74245  23924354.933    23924362.459
  23304192.151    -4401445.33049  -3419172.53645  23304190.884    23304199.170
 04  1  9  2 35 30.0000000  0  9G30G18G16G21G 6G26G29G17G15
  24309094.089     4192729.87948   3283594.55744  24309093.007    24309102.141
  21090908.748   -18244049.43949 -11361861.46348  21090907.978    21090911.715
  23130849.448    -5157004.03049  -4001435.60446  23130848.906    23130852.711
  20744009.949   -17308956.75449 -13021605.35348  20744009.181    20744012.230
  20591061.336   -16457613.78149 -12800143.28948  20591060.915    20591065.702
  21943360.838    -8759514.34049  -6796798.87747  21943360.627    21943365.659
  23003109.541    -7123935.56149  -5355288.25146  23003109.129    23003113.831
  23937786.196      804669.96049    664170.77944  23937785.347    23937792.888
  23290326.965    -4474306.23349  -3475947.23545  23290325.972    23290334.336
 04  1  9  2 36  0.0000000  0  9G30G18G16G21G 6G26G29G17G15
  24328834.367     4296464.60948   3364426.75044  24328832.619    24328841.829
  21079772.449   -18302570.90849 -11407462.58848  21079771.688    21079775.399
  23126105.621    -5181933.08949  -4020860.84646  23126105.110    23126109.099
  20740251.067   -17328710.36249 -13036997.76448  20740250.204    20740253.248
  20598236.093   -16419910.55549 -12770764.15748  20598235.648    20598240.411
  21939162.330    -8781577.83749  -6813991.19847  21939162.104    21939167.150
  23006147.113    -7107972.78749  -5342849.70546  23006146.746    23006151.420
  23951226.895      875301.80349    719208.55044  23951225.910    23951233.964
  23276478.617    -4547081.57349  -3532655.24445  23276477.510    23276485.576
 04  1  9  2 36 30.0000000  0  9G30G18G16G21G 6G26G29G17G15
  24348560.999     4400133.55148   3445207.72644  24348560.222    24348569.340
  21068717.381   -18360665.72349 -11452731.25948  21068716.611    21068720.260
  23121465.888    -5206315.61649  -4039860.22846  23121465.273    23121469.442
  20736529.946   -17348264.32749 -13052234.61148  20736529.110    20736532.233
  20605498.761   -16381744.93449 -12741024.71548  20605498.350    20605503.108
  21935081.746    -8803021.77849  -6830700.74347  21935081.459    21935086.506
  23009288.240    -7091465.86849  -5329987.17046  23009287.882    23009292.549
  23964678.368      945989.02549    774289.45544  23964677.569    23964684.985
  23262646.353    -4619770.81849  -3589296.15945  23262645.276    23262653.281
 04  1  9  2 37  0.0000000  0  9G30G18G16G21G 6G26G29G17G15
  24368275.712     4503737.29548   3525937.90744  24368275.425    24368284.707
  21057744.268   -18418329.78549 -11497664.28148  21057743.517    21057747.087
  23116930.648    -5230147.82149  -4058430.78746  23116930.122    23116934.435
  20732847.499   -17367615.87249 -13067313.72648  20732846.689    20732849.764
  20612850.069   -16343113.61149 -12710922.39248  20612849.641    20612854.404
  21931119.840    -8823841.03349  -6846923.52747  21931119.682    21931124.722
  23012533.516    -7074412.03849  -5316698.45446  23012533.095    23012537.867
  23978140.280     1016734.93848    829416.15844  23978139.045    23978147.522
  23248830.992    -4692370.78949  -3645867.53845  23248830.020    23248837.852
 04  1  9  2 37 30.0000000  0  9G30G18G16G21G 6G26G29G17G15
  24387976.661     4607267.47458   3606610.75744  24387976.128    24387985.780
  21046852.187   -18475568.38449 -11542265.76648  21046851.378    21046854.943
  23112499.410    -5253435.30749  -4076576.88446  23112498.750    23112503.102
  20729202.476   -17386770.62349 -13082239.48848  20729201.652    20729204.705
  20620288.842   -16304022.74949 -12680461.98448  20620288.421    20620293.127
  21927276.163    -8844040.34949  -6862663.22347  21927275.933    21927280.891
  23015881.649    -7056817.29949  -5302988.25246  23015881.317    23015886.181
  23991612.385     1087533.55049    884583.84444  23991611.253    23991620.305
  23235031.612    -4764887.17249  -3702373.75145  23235030.723    23235038.291
 04  1  9  2 38  0.0000000  0  9G30G18G16G21G 6G26G29G17G15
  24407663.649     4710722.90848   3687225.28144  24407662.117    24407672.042
  21036041.357   -18532379.25949 -11586533.96648  21036040.582    21036044.186
  23108171.909    -5276175.90049  -4094296.83446  23108171.356    23108175.920
  20725595.128   -17405726.94549 -13097010.63648  20725594.340    20725597.413
  20627815.299   -16264471.03449 -12649642.47148  20627814.891    20627819.579
  21923550.910    -8863616.63749  -6877917.45247  21923550.651    21923555.642
  23019333.125    -7038680.29049  -5288855.50246  23019332.737    23019337.633
  24005095.379     1158386.27649    939793.68344  24005094.747    24005102.616
  23221248.473    -4837318.50449  -3758813.68245  23221247.345    23221254.848
 04  1  9  2 38 30.0000000  0  9G30G18G16G21G 6G26G29G17G15
  24427335.774     4814106.09448   3767783.57844  24427334.217    24427345.563
  21025313.090   -18588756.37149 -11630464.16348  21025312.339    21025316.009
  23103949.508    -5298364.36849  -4111586.53446  23103948.979    23103953.851
  20722026.492   -17424479.82649 -13111623.25648  20722025.740    20722028.793
  20635430.375   -16224453.77749 -12618460.19648  20635429.949    20635434.642
  21919945.546    -8882563.56749  -6892681.26547  21919945.257    21919950.089
  23022888.616    -7019996.25749  -5274296.50046  23022888.226    23022893.200
  24018589.917     1229298.12149    995049.64944  24018588.906    24018596.255
  23207482.329    -4909659.91049  -3815183.56845  23207481.335    23207488.634
 04  1  9  2 39  0.0000000  0  9G30G18G16G21G 6G26G29G17G15
  24446993.733     4917409.12448   3848279.44244  24446992.681    24447003.325
  21014666.514   -18644704.02649 -11674059.73048  21014665.780    21014669.482
  23099831.415    -5320005.54249  -4128449.80346  23099830.760    23099835.719
  20718495.620   -17443034.80049 -13126081.66348  20718494.815    20718497.855
  20643132.986   -16183976.32149 -12586919.32948  20643132.557    20643137.237
  21916459.125    -8900884.75549  -6906957.50947  21916458.802    21916463.641
  23026547.166    -7000770.68649  -5259315.52646  23026546.784    23026551.647
  24032094.827     1300263.59149   1050347.43345  24032093.987    24032101.133
  23193732.531    -4981916.32149  -3871487.21945  23193731.464    23193738.474
 04  1  9  2 39 30.0000000  0  9G30G18G16G21G 6G26G29G17G15
  24466633.252     5020621.16058   3928704.42844  24466632.761
  21004101.481   -18700223.75049 -11717321.83948  21004100.714    21004104.418
  23095817.198    -5341101.42849  -4144888.16246  23095816.448    23095821.280
  20715002.024   -17461393.23349 -13140386.92648  20715001.253    20715004.370
  20650922.621   -16143041.33749 -12555021.93848  20650922.214    20650926.949
  21913091.528    -8918581.26649  -6920746.97747  21913091.293    21913096.119
  23030308.292    -6981006.13949  -5243914.56246  23030307.840    23030312.602
  24045609.194     1371280.89349   1105685.49645  24045608.173    24045615.437
  23179998.648    -5054089.63449  -3927726.11845  23179997.452    23180004.197
 04  1  9  2 40  0.0000000  0  8G18G16G21G 6G26G29G17G15
  20993618.640   -18755310.94749 -11760246.92048  20993617.921    20993621.621
  23091907.191    -5361647.92349  -4160898.41346  23091906.536    23091911.404
  20711546.572   -17479551.41449 -13154536.15248  20711545.815    20711548.935
  20658800.092   -16101645.19149 -12522765.21248  20658799.631    20658804.439
  21909843.985    -8935647.67149  -6934045.45247  21909843.671    21909848.460
  23034172.479    -6960699.10849  -5228090.89446  23034172.175    23034176.847
  24059134.211     1442353.47049   1161066.70445  24059133.317    24059139.809
  23166280.872    -5126176.04149  -3983897.32745  23166279.809    23166286.473
 04  1  9  2 40 30.0000000  0  8G18G16G21G 6G26G29G17G15
  20983218.527   -18809963.51349 -11802833.32248  20983217.831    20983221.540
  23088102.376    -5381642.80849  -4176478.85346  23088101.690    23088106.538
  20708129.587   -17497507.86149 -13168528.17748  20708128.791    20708131.923
  20666765.488   -16059786.58649 -12490148.12148  20666765.046    20666769.921
  21906716.677    -8952081.09249  -6946850.69847  21906716.426    21906721.242
  23038140.247    -6939848.41149  -5211843.58646  23038139.947    23038144.630
  24072669.860     1513483.02649   1216492.42045  24072669.108    24072675.746
  23152579.978    -5198174.06649  -4039999.64245  23152579.113    23152585.606
 04  1  9  2 41  0.0000000  0  8G18G16G21G 6G26G29G17G15
  20972901.098   -18864182.09449 -11845081.54948  20972900.363    20972904.062
  23084402.224    -5401087.72749  -4191630.74446  23084401.452    23084406.330
  20704750.647   -17515264.31749 -13182364.36148  20704749.830    20704752.928
  20674818.545   -16017467.49849 -12457172.21348  20674818.101    20674823.020
  21903709.694    -8967882.12849  -6959163.18147  21903709.418    21903714.399
  23042211.044    -6918455.98049  -5195174.14946  23042210.740    23042215.430
  24086216.016     1584668.01049   1271961.14545  24086215.110    24086222.275
  23138895.879    -5270085.21349  -4096034.26245  23138894.966    23138901.212
 04  1  9  2 41 30.0000000  0  8G18G16G21G 6G26G29G17G15
  20962665.641   -18917969.58249 -11886993.86348  20962664.919    20962668.635
  23080806.068    -5419985.86449  -4206356.57346  23080805.291    23080810.146
  20701409.043   -17532823.93949 -13196047.17548  20701408.263    20701411.432
  20682958.478   -15974691.74349 -12423840.46748  20682958.046    20682962.953
  21900822.632    -8983052.69049  -6970984.38347  21900822.397    21900827.548
  23046384.143    -6896525.65549  -5178085.57246  23046383.861    23046388.562
  24099772.224     1655904.77849   1327470.23545  24099771.325    24099778.122
  23125227.511    -5341912.95549  -4152003.88745  23125226.628    23125232.526
 04  1  9  2 42  0.0000000  0  8G18G16G21G 6G26G29G17G15
  20952513.983   -18971316.94149 -11928563.22348  20952513.237    20952516.985
  23077315.416    -5438328.83549  -4220649.78746  23077314.737    23077319.599
  20698106.446   -17550178.77949 -13209570.41748  20698105.690    20698108.874
  20691186.871   -15931451.50149 -12390146.77648  20691186.410    20691191.325
  21898057.262    -8997583.56449  -6982307.12947  21898057.091    21898062.414
  23050661.211    -6874049.76849  -5160571.89246  23050660.900    23050665.567
  24113339.605     1727201.60049   1383026.25545  24113338.953    24113345.605
  23111576.556    -5413648.98849  -4207902.07545  23111575.679    23111581.395
 04  1  9  2 42 30.0000000  0  8G18G16G21G 6G26G29G17G15
  20942445.134   -19024228.90549 -11969793.30448  20942444.427    20942448.182
  23073929.741    -5456121.35149  -4234514.09546  23073928.991    23073933.649
  20694842.061   -17567332.94249 -13222937.28548  20694841.320    20694844.528
  20699502.568   -15887752.13649 -12356095.32948  20699502.123    20699507.044
  21895413.117    -9011478.47649  -6993134.32047  21895412.921    21895418.294
  23055041.165    -6851033.64449  -5142637.22946  23055040.728    23055045.186
  24126917.546     1798553.49049   1438625.18545  24126916.732    24126923.927
  23097942.156    -5485298.38149  -4263732.73845  23097941.029    23097946.562
 04  1  9  2 43  0.0000000  0  8G18G16G21G 6G26G29G17G15
  20932459.266   -19076705.36249 -12010684.03148  20932458.540    20932462.258
  23070648.494    -5473363.85849  -4247949.80945  23070647.723    23070652.454
  20691615.705   -17584287.54249 -13236148.65248  20691614.963    20691618.151
  20707905.432   -15843594.82449 -12321687.04648  20707905.006    20707909.913
  21892890.088    -9024736.81349  -7003465.47647  21892889.917    21892895.199
  23059523.501    -6827478.35149  -5124282.45046  23059523.184    23059527.356
  24140505.992     1869959.74549   1494266.34345  24140505.356    24140512.121
  23084323.957    -5556861.66949  -4319496.27845  23084322.825    23084328.215
 04  1  9  2 43 30.0000000  0  8G18G16G21G 6G26G29G17G15
  20922556.592   -19128744.66749 -12051234.11448  20922555.796    20922559.489
  23067472.150    -5490055.42449  -4260956.23245  23067471.473    23067476.036
  20688427.483   -17601041.44249 -13249203.62148  20688426.720    20688429.955
  20716395.525   -15798979.09249 -12286921.54148  20716395.088    20716399.995
  21890488.698    -9037356.78149  -7013299.19647  21890488.410    21890493.657
  23064108.604    -6803383.80949  -5105507.46446  23064108.230    23064112.203
  24154104.739     1941421.25049   1549950.56545  24154103.994    24154110.640
  23070722.291    -5628337.82249  -4375191.97145  23070721.390    23070726.553
 04  1  9  2 44  0.0000000  0  8G18G16G21G 6G26G29G17G15
  20912737.394   -19180345.15449 -12091442.27148  20912736.594    20912740.291
  23064400.773    -5506195.01749  -4273532.54845  23064400.089    23064404.830
  20685277.656   -17617593.85149 -13262101.59048  20685276.901    20685280.125
  20724973.049   -15753904.15349 -12251798.22448  20724972.620    20724977.473
  21888209.023    -9049336.22149  -7022633.80547  21888208.788    21888213.975
  23068796.547    -6778749.25949  -5086311.69246  23068796.075    23068799.893
  24167714.383     2012938.94749   1605678.80944  24167713.260    24167720.114
  23057137.691    -5699725.67049  -4430818.81645  23057136.726    23057141.757
 04  1  9  2 44 30.0000000  0  8G18G16G21G 6G26G29G17G15
  20903001.225   -19231508.71349 -12131309.96348  20903000.484    20903004.195
  23061434.089    -5521784.93049  -4285680.53845  23061433.312    23061438.205
  20682165.791   -17633946.80549 -13274844.14048  20682165.025    20682168.265
  20733637.335   -15708373.02149 -12216319.42348  20733636.922    20733641.775
  21886051.108    -9060676.46749  -7031470.33947  21886050.792    21886055.949
  23073586.554    -6753577.79549  -5066697.54846  23073586.129    23073589.777
  24181334.028     2084510.39749   1661448.73845  24181333.032    24181339.527
  23043569.224    -5771027.64849  -4486378.77945  23043568.221    23043573.710
 04  1  9  2 45  0.0000000  0  8G18G16G21G 6G26G29G17G15
  20893349.216   -19282230.42349 -12170833.35748  20893348.486    20893352.168
  23058573.033    -5536820.81049  -4297396.82245  23058572.262    23058576.946
  20679092.708   -17650095.90749 -13287427.85148  20679091.963    20679095.208
  20742389.206   -15662381.91849 -12180482.20448  20742388.793    20742393.611
  21884015.618    -9071372.29149  -7039804.73447  21884015.411    21884020.571
  23078479.476    -6727865.56949  -5046662.02946  23078479.031    23078482.482
  24194964.618     2156139.79849   1717263.74645  24194963.576    24194969.640
  23030017.979    -5842239.23549  -4541868.28345  23030016.901    23030022.408
 04  1  9  2 45 30.0000000  0  8G18G16G21G 6G26G29G17G15
  20883780.726   -19332513.45249 -12210014.91948  20883779.940    20883783.623
  23055816.595    -5551306.21649  -4308684.15045  23055815.820    23055820.297
  20676057.739   -17666044.54849 -13299855.35448  20676056.984    20676060.274
  20751227.782   -15615934.93649 -12144289.75848  20751227.384    20751232.172
  21882102.468    -9081426.21149  -7047638.94347  21882102.206    21882107.333
  23083474.405    -6701616.88249  -5026208.50746  23083473.973    23083477.391
  24208605.714     2227823.71949   1773121.38645  24208604.620    24208610.210
  23016483.168    -5913364.11949  -4597290.21945  23016482.131    23016487.770
 04  1  9  2 46  0.0000000  0  8G18G16G21G 6G26G29G17G15
  20874295.601   -19382357.93549 -12248854.75648  20874294.817    20874298.516
  23053165.006    -5565241.81149  -4319543.07445  23053164.027    23053168.366
  20673060.793   -17681793.43649 -13312127.20548  20673060.048    20673063.332
  20760152.907   -15569033.23949 -12107742.98848  20760152.485    20760157.251
  21880311.474    -9090837.89649  -7054972.70347  21880311.266    21880316.275
  23088571.063    -6674833.06749  -5005337.99746  23088570.686    23088574.241
  24222257.199     2299561.19249   1829020.77644  24222255.950    24222260.016
  23002964.942    -5984402.87449  -4652645.05845  23002963.900    23002969.583
 04  1  9  2 46 30.0000000  0  8G18G16G21G 6G26G29G17G15
  20864894.354   -19431761.48249 -12287351.01048  20864893.635    20864897.339
  23050617.715    -5578625.80749  -4329972.14645  23050617.010    23050621.367
  20670102.315   -17697340.31649 -13324241.64348  20670101.576    20670104.832
  20769164.898   -15521675.22949 -12070840.64348  20769164.447    20769169.205
  21878643.297    -9099604.49349  -7061803.80047  21878643.041    21878647.996
  23093769.892    -6647512.76749  -4984049.43846  23093769.546    23093773.212
  24235918.989     2371354.53649   1884963.56245  24235917.662    24235921.710
  22989463.452    -6055353.41949  -4707931.14245  22989462.556    22989468.423
 04  1  9  2 47  0.0000000  0  8G18G16G21G 6G26G29G17G15
  20855577.940   -19480719.82949 -12325500.35348  20855577.184    20855580.906
  23048176.603    -5591454.55649  -4339968.57945  23048175.779    23048180.192
  20667182.920   -17712681.89549 -13336196.11248  20667182.187    20667185.361
  20778264.221   -15473858.07849 -12033580.52648  20778263.767    20778268.485
  21877098.545    -9107721.61249  -7068128.80747  21877098.390    21877103.248
  23099071.410    -6619653.04049  -4962340.55546  23099071.056    23099074.481
  24249592.321     2443207.05249   1940952.45145  24249590.857    24249595.020
  22975979.587    -6126212.36849  -4763145.85945  22975978.711    22975984.503
 04  1  9  2 47 30.0000000  0  8G18G16G21G 6G26G29G17G15
  20846344.713   -19529240.82049 -12363308.89348  20846343.907    20846347.650
  23045839.794    -5603736.40449  -4349538.86045  23045838.798    23045843.067
  20664301.091   -17727826.34549 -13347996.96748  20664300.333    20664303.458
  20787449.204   -15425590.71249 -11995969.59148  20787448.769    20787453.515
  21875676.056    -9115196.75549  -7073953.57847  21875675.934    21875680.681
  23104473.878    -6591262.95549  -4940218.40746  23104473.466    23104476.797
  24263275.140     2515110.47149   1996981.07944  24263273.486    24263278.053
  22962511.763    -6196987.91549  -4818295.56845  22962510.624    22962516.418
 04  1  9  2 48  0.0000000  0  8G18G16G21G 6G26G29G17G15
  20837195.792   -19577318.42349 -12400771.93948  20837195.000    20837198.759
  23043607.414    -5615465.87949  -4358678.71945  23043606.663    23043610.991
  20661457.866   -17742767.60249 -13359639.48748  20661457.101    20661460.274
  20796720.845   -15376867.90149 -11958003.77048  20796720.370    20796725.173
  21874377.227    -9122023.15849  -7079272.83547  21874377.034    21874381.583
  23109978.178    -6562337.55649  -4917679.11646  23109977.696    23109981.126
  24276968.266     2587070.47849   2053053.90844  24276966.686    24276971.767
  22949060.676    -6267674.07549  -4873375.64745  22949059.646    22949065.473
 04  1  9  2 48 30.0000000  0  8G18G16G21G 6G26G29G17G15
  20828131.553   -19624950.87249 -12437888.11648  20828130.775    20828134.554
  23041480.565    -5626641.90349  -4367387.32545  23041479.836    23041484.251
  20658653.572   -17757504.25049 -13371122.58148  20658652.832    20658656.039
  20806079.265   -15327689.06749 -11919682.61548  20806078.781    20806083.613
  21873201.959    -9128199.12349  -7084085.25547  21873201.807    21873206.245
  23115584.415    -6532876.41849  -4894722.38446  23115583.954    23115587.366
  24290672.740     2659088.20049   2109171.56144  24290671.068    24290675.797
  22935627.058    -6338269.65749  -4928385.13445  22935626.066    22935631.868
 04  1  9  2 49  0.0000000  0  8G18G16G21G 6G26G29G17G15
  20819151.603   -19672140.63449 -12474659.34048  20819150.882    20819154.655
  23039458.731    -5637267.22649  -4375666.81145  23039457.885    23039462.309
  20655887.647   -17772039.20749 -13382448.51348  20655886.907    20655890.143
  20815523.764   -15278057.66449 -11881008.79848  20815523.283    20815528.128
  21872150.135    -9133726.43349  -7088392.22847  21872149.926    21872154.411
  23121291.966    -6502883.12149  -4871350.97346  23121291.473    23121294.990
  24304387.783     2731160.92149   2165332.08444  24304386.093    24304390.909
  22922210.195    -6408777.27149  -4983326.08345  22922209.054    22922214.887
 04  1  9  2 49 30.0000000  0  8G18G16G21G 6G26G29G17G15
  20810255.827   -19718888.48449 -12511086.21548  20810255.070    20810258.867
  23037541.507    -5647343.61949  -4383518.55546  23037540.632    23037544.958
  20653159.976   -17786373.59549 -13393618.15348  20653159.185    20653162.399
  20825054.039   -15227975.60649 -11841983.81847  20825053.565    20825058.436
  21871221.577    -9138605.75149  -7092194.27347  21871221.388    21871225.935
  23127100.300    -6472359.77549  -4847566.53146  23127099.832    23127103.547
  24318112.690     2803287.22949   2221534.44644  24318111.342    24318116.165
  22908809.549    -6479198.39749  -5038199.64146  22908808.572    22908814.225
 04  1  9  2 50  0.0000000  0  8G18G16G21G 6G26G29G17G15
  20801444.915   -19765190.30649 -12547165.53548  20801444.120    20801447.925
  23035729.237    -5656867.25449  -4390939.58446  23035728.397    23035732.607
  20650471.124   -17800503.43249 -13404628.40448  20650470.377    20650473.602
  20834670.704   -15177439.78549 -11802605.25447  20834670.198    20834675.109
  21870417.251    -9142832.63749  -7095487.92947  21870417.055    21870421.663
  23133010.112    -6441303.23149  -4823366.60446  23133009.681    23133013.513
  24331848.195     2875471.00948   2277781.61444                  24331846.833
  22895426.190    -6549528.91049  -5093002.60446  22895425.167    22895430.815
 04  1  9  2 50 30.0000000  0  8G18G16G21G 6G26G29G17G15
  20792718.966   -19811045.16549 -12582896.57948  20792718.201    20792721.961
  23034022.248    -5665838.05549  -4397929.82346  23034021.409    23034025.568
  20647821.339   -17814428.10849 -13415478.79248  20647820.621    20647823.834
  20844373.608   -15126450.39249 -11762873.27347  20844373.131    20844378.057
  21869737.522    -9146405.85649  -7098272.23147  21869737.216    21869741.702
  23139021.280    -6409713.86449  -4798751.51746  23139020.870    23139024.871
  24345595.045     2947712.78449   2334073.86244  24345594.255    24345598.753
  22882060.077    -6619768.29949  -5147734.55846  22882058.970    22882064.740
 04  1  9  2 51  0.0000000  0  8G18G16G21G 6G26G29G17G15
  20784077.397   -19856456.87349 -12618282.31248  20784076.663    20784080.372
  23032419.810    -5674260.57449  -4404492.84746  23032418.858    23032422.729
  20645209.885   -17828151.83549 -13426172.58948  20645209.109    20645212.311
  20854161.867   -15075012.51049 -11722791.80847  20854161.405    20854166.355
  21869181.150    -9149329.30649  -7100550.23447  21869180.911    21869185.437
  23145132.820    -6377597.17949  -4773725.50646  23145132.368    23145136.494
  24359351.997     3020008.01348   2390407.81844  24359351.413    24359356.252
  22868710.437    -6689920.92949  -5202398.91146  22868709.422    22868715.021
 04  1  9  2 51 30.0000000  0  7G18G16G21G 6G26G29G15
  20775520.929   -19901421.43849 -12653319.61548  20775520.147    20775523.827
  23030922.203    -5682131.16449  -4410625.77246  23030921.294    23030925.148
  20642637.378   -17841670.64849 -13436706.71748  20642636.590    20642639.743
  20864036.165   -15023122.77149 -11682358.24247  20864035.689    20864040.625
  21868749.375    -9151598.16649  -7102318.16747  21868749.170    21868753.643
  23151345.215    -6344949.96449  -4748286.11846  23151344.937    23151349.062
  22855378.011    -6759982.64849  -5256992.44246  22855377.063    22855382.743
 04  1  9  2 52  0.0000000  0  7G18G16G21G 6G26G29G15
  20767049.603   -19945938.17649 -12688007.97348  20767048.881    20767052.557
  23029529.494    -5689449.86249  -4416328.66746  23029528.749    23029532.498
  20640103.927   -17854983.84549 -13447080.63048  20640103.144    20640106.279
  20873996.318   -14970781.62149 -11641572.94747  20873995.863    20874000.729
  21868442.398    -9153211.64749  -7103575.41847  21868442.172    21868446.580
  23157658.714    -6311772.73649  -4722433.72646  23157658.426    23157662.539
  22842063.240    -6829953.07749  -5311514.83046  22842062.169    22842067.749
 04  1  9  2 52 30.0000000  0  7G18G16G21G 6G26G29G15
  20758663.239   -19990008.37649 -12722348.36648  20758662.527    20758666.234
  23028241.669    -5696218.55949  -4421602.99246  23028240.860    23028244.439
  20637609.330   -17868092.99049 -13457295.52548  20637608.571    20637611.664
  20884041.938   -14917991.50749 -11600437.78547  20884041.469    20884046.294
  21868259.873    -9154170.93149  -7104322.88747  21868259.629    21868263.999
  23164072.553    -6278067.93649  -4696170.23546  23164072.217    23164076.300
  22828765.300    -6899833.67449  -5365967.22546  22828764.265    22828769.809
 04  1  9  2 53  0.0000000  0  7G18G16G21G 6G26G29G15
  20750361.273   -20033635.08449 -12756343.18848  20750360.574    20750364.300
  23027057.761    -5702440.83849  -4426451.53346  23027056.821    23027060.386
  20635153.013   -17881001.23749 -13467353.89048  20635152.201    20635155.289
  20894172.193   -14864756.49349 -11558955.95747  20894171.726    20894176.581
  21868201.354    -9154478.57849  -7104562.59747  21868201.089    21868205.524
  23170586.045    -6243839.98149  -4669499.08546  23170585.677    23170589.650
  22815483.971    -6969627.75849  -5420352.19446  22815482.920    22815488.327
 04  1  9  2 53 30.0000000  0  7G18G16G21G 6G26G29G15
  20742144.674   -20076813.47249 -12789988.67148  20742143.973    20742147.672
  23025978.227    -5708112.83649  -4430871.27646  23025977.507    23025981.125
  20632735.683   -17893704.31149 -13477252.37848  20632734.885    20632737.995
  20904387.873   -14811072.99649 -11517124.67047  20904387.374    20904392.196
  21868267.690    -9154129.89549  -7104290.87447  21868267.483    21868271.866
  23177199.613    -6209085.53849  -4642417.69446  23177199.229    23177203.129
  22802220.096    -7039330.88049  -5474666.28846  22802219.002    22802224.211
 04  1  9  2 54  0.0000000  0  7G18G16G21G 6G26G29G15
  20734012.918   -20119546.25249 -12823286.93348  20734012.182    20734015.871
  23025002.983    -5713237.63449  -4434864.63346  23025002.243    23025006.010
  20630356.954   -17906204.53349 -13486992.80248  20630356.142    20630359.259
  20914688.184   -14756944.57249 -11474946.68247  20914687.683    20914692.493
  21868458.450    -9153127.23549  -7103509.57147  21868458.281    21868462.690
  23183912.744    -6173808.12349  -4614928.79846  23183912.351    23183916.176
  22788972.845    -7108945.50849  -5528911.45346  22788971.754    22788976.900
 04  1  9  2 54 30.0000000  0  7G18G16G21G 6G26G29G15
  20725966.278   -20161831.09049 -12856236.14748  20725965.583    20725969.284
  23024132.473    -5717813.87949  -4438430.56946  23024131.665    23024135.207
  20628017.290   -17918499.85549 -13496573.56148  20628016.441    20628019.543
  20925073.324   -14702370.44649 -11432421.40247  20925072.803    20925077.580
  21868774.122    -9151468.51449  -7102217.05347  21868773.893    21868778.287
  23190725.540    -6138007.13549  -4587031.92046  23190725.126    23190729.004
  22775742.708    -7178469.72849  -5583086.14546  22775741.663    22775746.706
 04  1  9  2 55  0.0000000  0  7G18G16G21G 6G26G29G15
  20718005.391   -20203665.31349 -12888834.22548  20718004.724    20718008.486
  23023366.237    -5721839.63149  -4441567.50746  23023365.515    23023369.197
  20625717.063   -17930587.58449 -13505992.54748  20625716.194    20625719.310
  20935543.637   -14647348.62249 -11389547.25347  20935543.145    20935547.877
  21869215.205    -9149150.63249  -7100410.88947  21869215.007    21869219.306
  23197638.033    -6101681.21149  -4558725.97946  23197637.680    23197641.606
  22762530.358    -7247900.95949  -5637188.34946  22762529.159    22762534.374
 04  1  9  2 55 30.0000000  0  7G18G16G21G 6G26G29G15
  20710129.439   -20245053.28549 -12921084.58148  20710128.776    20710132.607
  23022703.847    -5725319.37649  -4444279.00846  23022703.255    23022707.028
  20623455.531   -17942471.85749 -13515253.00548  20623454.679    20623457.813
  20946098.193   -14591884.18049 -11346328.21247  20946097.708    20946102.365
  21869780.903    -9146177.45749  -7098094.11547  21869780.746    21869785.017
  23204649.561    -6064835.57449  -4530015.07646  23204649.186    23204653.065
  22749334.653    -7317243.38549  -5691221.38446  22749333.505    22749338.989
 04  1  9  2 56  0.0000000  0  7G18G16G21G 6G26G29G15
  20702339.124   -20285991.39949 -12952984.40048  20702338.479    20702342.331
  23022146.105    -5728250.59949  -4446563.09046  23022145.480    23022149.430
  20621233.430   -17954149.39649 -13524352.37348  20621232.538    20621235.634
  20956737.460   -14535974.83249 -11302762.49747  20956736.923    20956741.532
  21870472.043    -9142545.51449  -7095264.01947  21870471.857    21870476.119
  23211760.326    -6027467.91349  -4500897.42346  23211759.933    23211763.916
  22736156.553    -7386493.68649  -5745182.61746  22736155.477    22736161.132
 04  1  9  2 56 30.0000000  0  7G18G16G21G 6G26G29G15
  20694634.350   -20326480.34949 -12984534.21748  20694633.643    20694637.493
  23021692.657    -5730634.66349  -4448420.78546  23021691.784    23021695.877
  20619050.489   -17965620.87049 -13533291.17348  20619049.599    20619052.671
  20967460.921   -14479622.48649 -11258851.58447  20967460.459    20967465.049
  21871288.389    -9138255.35849  -7091921.02747  21871288.212    21871292.452
  23218970.145    -5989580.22749  -4471374.54146  23218969.742    23218973.666
  22722995.805    -7455652.66749  -5799072.68846  22722994.659    22723000.612
 04  1  9  2 57  0.0000000  0  7G18G16G21G 6G26G29G15
  20687014.783   -20366521.40849 -13015735.02348  20687014.078    20687017.904
  23021342.702    -5732473.58649  -4449853.71846  23021341.936    23021346.034
  20616906.462   -17976887.54749 -13542070.38848  20616905.623    20616908.685
  20978268.302   -14422829.45049 -11214597.28047  20978267.807    20978272.436
  21872229.748    -9133308.30249  -7088066.17647  21872229.591    21872233.844
  23226278.418    -5951175.29349  -4441448.60446  23226278.042    23226281.890
  22709852.072    -7524721.48849  -5852892.50246  22709851.108    22709857.218
 04  1  9  2 57 30.0000000  0  7G18G16G21G 6G26G29G15
  20679480.792   -20406112.38449 -13046585.11248  20679480.114    20679483.948
  23021096.675    -5733766.09749  -4450860.86646  23021096.047    23021100.074
  20614801.834   -17987947.18349 -13550688.27148  20614801.000    20614804.070
  20989159.603   -14365594.88049 -11169998.91847  20989159.158    20989163.832
  21873296.444    -9127702.25949  -7083697.81847  21873296.302    21873300.578
  23233685.243    -5912252.30249  -4411118.99246  23233684.835    23233688.752
  22696726.082    -7593698.17449  -5906640.52046  22696725.045    22696731.469
 04  1  9  2 58  0.0000000  0  7G18G16G21G 6G26G29G15
  20672032.233   -20445254.74449 -13077085.64448  20672031.570    20672035.367
  23020954.520    -5734514.20949  -4451443.81146  23020953.675    23020957.899
  20612736.291   -17998801.49049 -13559146.17348  20612735.480    20612738.571
  21000134.540   -14307921.14749 -11125058.36947  21000134.100    21000138.850
  21874488.360    -9121438.63649  -7078817.06847  21874488.187    21874492.467
  23241189.967    -5872814.05149  -4380387.89146  23241189.609    23241193.684
  22683617.205    -7662584.11749  -5960317.84046  22683616.250    22683622.835
 04  1  9  2 58 30.0000000  0  7G18G16G21G 6G26G29G15
  20664669.010   -20483948.56349 -13107236.65348  20664668.348    20664672.177
  23020915.682    -5734718.59849  -4451603.08346  23020914.813    23020919.040
  20610709.864   -18009449.91949 -13567443.63948  20610709.073    20610712.229
  21011192.774   -14249809.06349 -11079776.23547  21011192.394    21011197.244
  21875805.468    -9114517.08749  -7073423.63647  21875805.225    21875809.454
  23248792.649    -5832861.44449  -4349255.98046  23248792.266    23248796.408
  22670525.511    -7731379.24649  -6013924.37546  22670524.742    22670531.374
 04  1  9  2 59  0.0000000  0  7G18G16G21G 6G26G29G15
  20657391.661   -20522191.51449 -13137036.33948  20657390.986    20657394.780
  23020980.415    -5734377.82449  -4451337.52946  23020979.688    23020984.011
  20608723.053   -18019890.09049 -13575578.82848  20608722.309    20608725.505
  21022334.692   -14191257.54049 -11034151.68547  21022334.311    21022339.224
  21877248.181    -9106935.39849  -7067515.81547  21877247.967    21877252.128
  23256493.394    -5792393.70549  -4317722.68146  23256492.986    23256497.198
  22657452.038    -7800081.30549  -6067458.38546  22657451.053    22657457.771
 04  1  9  2 59 30.0000000  0  7G18G16G21G 6G26G29G15
  20650200.452   -20559981.77349 -13166483.27848  20650199.744    20650203.535
  23021149.357    -5733490.83949  -4450646.38646  23021148.600    23021152.734
  20606776.254   -18030120.38949 -13583550.47848  20606775.516    20606778.764
  21033560.424   -14132265.84849 -10988184.14647  21033560.059    21033565.001
  21878816.681    -9098691.81449  -7061092.23646  21878816.561    21878820.658
  23264292.178    -5751410.37249  -4285787.61046  23264291.736    23264296.060
  22644396.182    -7868688.53949  -6120918.52646  22644395.342    22644402.115
 04  1  9  3  0  0.0000000  0  7G18G16G21G 6G26G29G15
  20643094.099   -20597325.60149 -13195582.35248  20643093.404    20643097.230
  23021420.838    -5732064.56949  -4449535.00146  23021420.043    23021424.155
  20604868.328   -18040146.58249 -13591363.08648  20604867.587    20604870.877
  21044868.502   -14072841.15049 -10941879.19047  21044868.181    21044873.125
  21880510.035    -9089792.53149  -7054157.72146  21880509.898    21880513.990
  23272187.540    -5709918.91749  -4253456.59446  23272187.101    23272191.543
  22631357.633    -7937206.96949  -6174309.45846  22631356.628    22631363.262
 04  1  9  3  0 30.0000000  0  7G18G16G21G 6G26G29G15
  20636073.632   -20634218.06349 -13224329.71448  20636072.954    20636076.789
  23021795.615    -5730095.25349  -4448000.47946  23021794.783    23021798.909
  20603000.134   -18049963.84849 -13599012.89348  20602999.351    20603002.736
  21056259.748   -14012979.84249 -10895234.02747  21056259.435    21056264.340
  21882329.070    -9080232.82549  -7046708.58446  21882328.959    21882332.969
  23280180.066    -5667915.93149  -4220726.99846  23280179.657    23280184.410
  22618336.717    -8005631.70649  -6227627.39046  22618335.762    22618342.134
 04  1  9  3  1  0.0000000  0  7G18G16G21G 6G26G29G15
  20629139.136   -20670659.22949 -13252725.40948  20629138.455    20629142.264
  23022273.518    -5727583.29249  -4446043.09546  23022272.783    23022276.879
  20601171.652   -18059571.99549 -13606499.75148  20601170.916    20601174.371
  21067733.977   -13952683.01349 -10848249.49247  21067733.621    21067738.429
  21884273.785    -9070012.69849  -7038744.84846  21884273.703    21884277.739
  23288269.915    -5625402.72449  -4187599.81146  23288269.507    23288274.514
  22605333.666    -8073962.50449  -6280872.12546  22605332.734    22605339.025
 04  1  9  3  1 30.0000000  0  7G18G16G21G 6G26G29G15
  20622289.708   -20706653.27349 -13280772.70048  20622288.996    20622292.798
  23022854.045    -5724533.62349  -4443666.74746  23022853.250    23022857.351
  20599382.434   -18068974.54049 -13613826.39748  20599381.695    20599385.139
  21079290.106   -13891955.58649 -10800929.42047  21079289.751    21079294.424
  21886343.575    -9059136.08349  -7030269.55146  21886343.430    21886347.424
  23296455.744    -5582384.47149  -4154079.09346  23296455.360    23296460.565
  22592347.786    -8142203.25249  -6334046.68046  22592346.864    22592353.003
 04  1  9  3  2  0.0000000  0  7G18G16G21G 6G26G29G15
  20615526.424   -20742194.54949 -13308467.18848  20615525.719    20615529.524
  23023537.428    -5720941.78149  -4440867.89345  23023536.716    23023540.902
  20597633.268   -18078166.27749 -13620988.78248  20597632.516    20597636.001
  21090928.948   -13830793.46249 -10753270.62947  21090928.594    21090933.157
  21888539.182    -9047597.89349  -7021278.73746  21888539.110    21888542.995
  23304738.648    -5538857.47649  -4120161.92746  23304738.255    23304743.420
  22579380.198    -8210348.42449  -6387146.77446  22579379.321    22579385.300
 04  1  9  3  2 30.0000000  0  7G18G16G21G 6G26G29G15
  20608848.865   -20777284.95049 -13335810.34748  20608848.231    20608852.020
  23024323.557    -5716810.64049  -4437648.83245  23024322.793    23024326.961
  20595923.942   -18087148.79749 -13627988.14148  20595923.199    20595926.686
  21102649.932   -13769199.61949 -10705275.44147  21102649.560    21102654.072
  21890860.296    -9035400.14249  -7011773.98846  21890860.233    21890863.940
  23313117.724    -5494824.75449  -4085850.71346  23313117.335    23313122.498
  22566430.550    -8278399.81149  -6440173.79146  22566429.616    22566435.424
 04  1  9  3  3  0.0000000  0  7G18G16G21G 6G26G29G15
  20602256.829   -20811926.53149 -13362803.77348  20602256.175    20602259.924
  23025211.747    -5712142.59649  -4434011.40445  23025210.958    23025215.081
  20594254.072   -18095923.82749 -13634825.81848  20594253.315    20594256.883
  21114452.491   -13707176.89249 -10656946.05447  21114452.109    21114456.624
  21893306.607    -9022544.76349  -7001756.80446  21893306.549    21893310.103
  23321592.414    -5450289.72249  -4051148.09046  23321591.958    23321597.265
  22553498.391    -8346359.18049  -6493129.10246  22553497.448    22553503.225
 04  1  9  3  3 30.0000000  0  7G18G16G21G 6G26G29G15
  20595750.867   -20846115.72949 -13389444.68648  20595750.219    20595753.939
  23026202.736    -5706935.09849  -4429953.62845  23026201.913    23026205.993
  20592624.397   -18104487.49849 -13641498.79848  20592623.653    20592627.273
  21126337.068   -13644722.91649 -10608280.62547  21126336.691    21126341.276
  21895878.688    -9009028.31849  -6991224.48846  21895878.628    21895881.999
  23330163.219    -5405250.04049  -4016052.22246  23330162.724    23330168.057
  22540584.389    -8414222.52249  -6546009.59046  22540583.489    22540589.350
 04  1  9  3  4  0.0000000  0  7G18G16G21G 6G26G29G15
  20589330.730   -20879854.01649 -13415734.24548  20589330.073    20589333.787
  23027295.694    -5701190.62849  -4425477.42545  23027294.995    23027299.042
  20591034.784   -18112840.84549 -13648007.88848  20591034.044    20591037.705
  21138303.221   -13581840.20649 -10559281.12147  21138302.828    21138307.494
  21898576.338    -8994852.51649  -6980178.38646  21898576.271    21898579.458
  23338829.488    -5359708.47449  -3980565.29446  23338828.885    23338834.237
  22527688.375    -8481991.45549  -6598816.51346  22527687.466    22527693.278
 04  1  9  3  4 30.0000000  0  7G18G16G21G 6G26G29G15
  20582995.665   -20913145.10249 -13441675.33148  20582994.999    20582998.723
  23028490.179    -5694913.07149  -4420585.81245  23028489.598    23028493.654
  20589484.577   -18120987.00349 -13654355.53348  20589483.867    20589487.550
  21150350.145   -13518533.23849 -10509951.02547  21150349.728    21150354.478
  21901398.673    -8980020.87149  -6968621.24346  21901398.607    21901401.663
  23347590.241    -5313669.89649  -3944691.06646  23347589.839    23347595.085
  22514809.796    -8549668.67149  -6651551.97146  22514808.882    22514814.712
 04  1  9  3  5  0.0000000  0  7G18G16G21G 6G26G29G15
  20576746.829   -20945983.02849 -13467263.30548  20576746.115    20576749.854
  23029787.173    -5688097.68649  -4415275.13745  23029786.531    23029790.504
  20587975.102   -18128919.64049 -13660536.79648  20587974.412    20587978.026
  21162478.689   -13454797.30549 -10460286.67247  21162478.281    21162483.070
  21904346.939    -8964527.67149  -6956548.60846  21904346.906    21904349.903
  23356446.567    -5267129.63149  -3908425.92246  23356446.139    23356451.468
  22501949.829    -8617248.19949  -6704211.30246  22501948.925    22501954.778
 04  1  9  3  5 30.0000000  0  7G18G16G21G 6G26G29G15
  20570583.296   -20978372.32149 -13492501.69848  20570582.632    20570586.394
  23031185.325    -5680750.01549  -4409549.66845  23031184.723    23031188.502
  20586505.445   -18136643.22849 -13666555.16248  20586504.729    20586508.226
  21174687.738   -13390638.25249 -10410292.61847  21174687.289    21174692.146
  21907420.133    -8948378.05149  -6943964.46646  21907420.079    21907423.070
  23365397.046    -5220094.14349  -3871774.88146  23365396.732    23365402.036
  22489107.737    -8684734.57449  -6756798.04646  22489106.765    22489112.549
 04  1  9  3  6  0.0000000  0  7G18G16G21G 6G26G29G15
  20564506.108   -21010308.43349 -13517386.96448  20564505.419    20564509.154
  23032685.478    -5672866.51449  -4403406.69245  23032684.814    23032688.384
  20585076.483   -18144152.97649 -13672406.90248  20585075.718    20585079.106
  21186977.919   -13326052.71049 -10359966.23947  21186977.471    21186982.386
  21910619.127    -8931567.51049  -6930865.32746  21910619.034    21910622.070
  23374442.631    -5172560.25149  -3834735.46446  23374442.121    23374447.445
  22476284.061    -8752123.08749  -6809308.54146  22476283.202    22476288.912
 04  1  9  3  6 30.0000000  0  7G18G16G21G 6G26G29G15
  20558514.414   -21041795.15949 -13541922.05148  20558513.687    20558517.423
  23034286.655    -5664451.69449  -4396849.68145  23034286.116    23034289.499
  20583687.553   -18151452.04849 -13678094.47848  20583686.770    20583690.127
  21199348.405   -13261045.41149 -10309311.20947  21199347.957    21199352.915
  21913943.086    -8914100.08949  -6917254.33946  21913943.003    21913946.159
  23383581.856    -5124532.87649  -3797311.52446  23383581.543    23383586.745
  22463478.693    -8819417.10249  -6861745.38446  22463477.728    22463483.189
 04  1  9  3  7  0.0000000  0  7G18G16G21G 6G26G29G15
  20552608.269   -21072831.68749 -13566106.34548  20552607.566    20552611.363
  23035988.964    -5655505.62249  -4389878.71345  23035988.516    23035991.692
  20582338.918   -18158539.32549 -13683617.01948  20582338.114    20582341.471
  21211799.156   -13195616.29649 -10258327.49947  21211798.727    21211803.637
  21917392.277    -8895975.02549  -6903130.89447  21917392.135    21917395.275
  23392815.142    -5076012.45449  -3759503.39546  23392814.791    23392819.915
  22450691.402    -8886615.26349  -6914107.55046  22450690.440    22450695.704
 04  1  9  3  7 30.0000000  0  7G18G16G21G 6G26G29G15
  20546787.850   -21103417.68049 -13589939.57248  20546787.195    20546791.002
  23037792.383    -5646029.03549  -4382494.36345  23037791.809    23037794.755
  20581030.715   -18165414.03949 -13688973.93548  20581029.889    20581033.283
  21224329.996   -13129766.44649 -10207015.94147  21224329.542    21224334.449
  21920966.482    -8877192.54149  -6888495.18346  21920966.351    21920969.469
  23402142.153    -5027000.26749  -3721312.06346  23402141.625    23402146.533
  22437922.336    -8953717.08449  -6966394.64646  22437921.440    22437926.616
 04  1  9  3  8  0.0000000  0  7G18G16G21G 6G26G29G15
  20541052.983   -21133554.93149 -13613423.12348  20541052.285    20541056.061
  23039696.260    -5636023.91749  -4374698.18745  23039695.640    23039698.367
  20579762.798   -18172077.10649 -13694165.92948  20579761.977    20579765.369
  21236940.439   -13063498.15549 -10155378.32647  21236939.963    21236944.889
  21924665.623    -8857754.13849  -6873348.36246  21924665.420    21924668.384
  23411561.841    -4977499.00549  -3682739.65746  23411561.543    23411566.477
  22425171.626    -9020723.30749  -7018607.24046  22425170.657    22425175.670
 04  1  9  3  8 30.0000000  0  7G18G16G21G 6G26G29G15
  20535403.505   -21163243.09749 -13636556.74048  20535402.826    20535406.569
  23041700.343    -5625491.35049  -4366490.99345  23041699.794    23041702.264
  20578535.193   -18178528.15049 -13699192.70748  20578534.397    20578537.771
  21249630.280   -12996812.52349 -10103415.50747  21249629.807    21249634.751
  21928489.328    -8837660.16549  -6857690.70547  21928489.183    21928492.166
  23421074.710    -4927510.11949  -3643787.25746  23421074.297    23421079.194
  22412438.950    -9087633.53649  -7070745.02946  22412437.983    22412442.988
 04  1  9  3  9  0.0000000  0  7G18G16G21G 6G26G29G15
  20529840.014   -21192479.12449 -13659338.04048  20529839.338    20529843.102
                  -5614429.12149  -4357871.06445                  23043806.941
  20577348.671   -18184763.42649 -13704051.35448  20577347.888    20577351.218
  21262399.898   -12929707.49349 -10051125.88447  21262399.417    21262404.375
  21932438.433    -8816907.68049  -6841519.91047  21932438.259    21932441.223
  23430680.626    -4877031.72449  -3604453.43646  23430680.167    23430685.094
  22399725.192    -9154444.04749  -7122805.13146  22399724.224    22399729.439
 04  1  9  3  9 30.0000000  0  7G18G16G21G 6G26G29G15
  20524361.852   -21221266.95149 -13681770.08548  20524361.230    20524364.971
  23046010.441    -5602842.22249  -4348842.31545  23046009.720    23046011.646
  20576202.580   -18190786.42549 -13708744.58348  20576201.762    20576205.076
  21275248.368   -12862188.26549  -9998513.49547  21275247.932    21275252.891
  21936512.025    -8795501.02749  -6824839.38447  21936511.819    21936514.887
  23440378.585    -4826069.20749  -3564742.36346  23440378.134    23440383.027
  22387029.649    -9221158.74149  -7174790.55346  22387028.693    22387033.982
 04  1  9  3 10  0.0000000  0  7G18G16G21G 6G26G29G15
  20518969.345   -21249605.07849 -13703851.72848  20518968.693    20518972.367
  23048315.222    -5590730.30349  -4339404.46245  23048314.604    23048316.427
  20575097.271   -18196595.11249 -13713270.83248  20575096.447    20575099.720
  21288175.773   -12794254.44649  -9945578.06547  21288175.323    21288180.246
  21940710.288    -8773439.23849  -6807648.36847  21940710.142    21940713.257
  23450168.564    -4774622.69349  -3524654.17246  23450168.116    23450172.945
  22374352.806    -9287775.66349  -7226699.80346  22374351.799    22374357.134
 04  1  9  3 10 30.0000000  0  7G18G16G21G 6G26G29G15
  20513662.375   -21277493.51349 -13725582.96048  20513661.718    20513665.360
  23050719.654    -5578093.99249  -4329557.99345  23050719.180    23050720.911
  20574032.831   -18202188.99549 -13717629.69948  20574031.984    20574035.210
  21301181.898   -12725906.85649  -9892320.20747  21301181.509    21301186.403
  21945033.108    -8750722.44049  -6789946.95447  21945033.010    21945036.313
  23460050.415    -4722693.32849  -3484189.72446  23460050.005    23460054.751
  22361694.661    -9354294.14749  -7278532.33946  22361693.692    22361698.918
 04  1  9  3 11  0.0000000  0  7G18G16G21G 6G26G29G15
  20508441.243   -21304930.68549 -13746962.55448  20508440.602    20508444.210
  23053224.225    -5564932.52049  -4319302.30545  23053223.776    23053225.348
  20573009.687   -18207565.64849 -13721819.29348  20573008.822    20573012.046
  21314267.058   -12657144.69249  -9838739.30547  21314266.590    21314271.425
  21949480.910    -8727349.19149  -6771734.02447  21949480.790    21949484.307
  23470024.185    -4670280.61649  -3443348.62946  23470023.821    23470028.456
  22349055.859    -9420711.82749  -7330286.33746  22349054.831    22349059.981
 04  1  9  3 11 30.0000000  0  7G18G16G21G 6G26G29G15
  20503304.807   -21331923.17849 -13767995.64248  20503304.138    20503307.678
  23055827.498    -5551253.39049  -4308643.25745  23055826.803    23055828.275
  20572026.711   -18212731.03649 -13725844.26048  20572025.843    20572029.083
  21327429.541   -12587975.96749  -9784841.60247  21327429.038    21327433.824
  21954052.241    -8703326.68349  -6753015.16447  21954052.116    21954055.675
  23480088.318    -4617392.76649  -3402137.30546  23480087.954    23480092.660
  22336435.139    -9487034.81049  -7381966.52746  22336434.078    22336439.166
 04  1  9  3 12  0.0000000  0  7G18G16G21G 6G26G29G15
  20498253.893   -21358465.98149 -13788678.32948  20498253.195    20498256.737
  23058529.698    -5537052.87449  -4297577.91245  23058529.112    23058530.482
  20571084.906   -18217679.78349 -13729700.42348  20571084.065    20571087.313
  21340670.016   -12518396.94749  -9730624.19147  21340669.542    21340674.341
  21958747.970    -8678650.46549  -6733786.93447  21958747.865    21958751.431
  23490243.684    -4564026.38849  -3360553.10946  23490243.353    23490247.948
  22323833.273    -9553257.84549  -7433568.85046  22323832.233    22323837.404
 04  1  9  3 12 30.0000000  0  7G18G16G21G 6G26G29G15
  20493288.484   -21384559.05849 -13809010.58448  20493287.812    20493291.408
  23061331.050    -5522331.92449  -4286107.05845  23061330.483    23061332.010
  20570184.472   -18222411.59149 -13733387.54348  20570183.638    20570186.897
  21353988.364   -12448408.58149  -9676087.81547  21353987.902    21353992.795
  21963567.973    -8653320.87449  -6714049.58447  21963567.789    21963571.478
  23500489.740    -4510182.94849  -3318597.19046  23500489.440    23500493.997
  22311250.565    -9619380.10649  -7485092.65746  22311249.623    22311254.899
 04  1  9  3 13  0.0000000  0  7G18G16G21G 6G26G29G15
  20488407.989   -21410206.51349 -13828995.59148  20488407.251    20488410.865
  23064230.568    -5507095.20649  -4274234.28245  23064229.916    23064231.773
  20569324.788   -18226929.17049 -13736907.72448  20569323.943    20569327.243
  21367383.682   -12378015.76649  -9621236.27447  21367383.208    21367388.228
  21968511.446    -8627342.20949  -6693806.45447  21968511.246    21968515.068
  23510825.742    -4455867.49349  -3276273.45546  23510825.355    23510829.873
  22298686.465    -9685405.05249  -7536540.62446  22298685.451    22298690.701
 04  1  9  3 13 30.0000000  0  7G18G16G21G 6G26G29G15
  20483613.429   -21435402.13449 -13848628.53448  20483612.670    20483616.317
  23067229.103    -5491337.71849  -4261955.73445  23067228.509    23067230.496
  20568507.140   -18231225.82649 -13740255.76748  20568506.329    20568509.659
  21380856.830   -12307213.51949  -9566065.70247  21380856.401    21380861.535
  21973579.495    -8600708.74249  -6673053.10147  21973579.348    21973583.274
  23521252.459    -4401075.27249  -3233578.21246  23521252.096    23521256.443
  22286142.179    -9751325.85549  -7587907.45146  22286141.126    22286146.410
 04  1  9  3 14  0.0000000  0  7G18G16G21G 6G26G29G15
  20478903.127   -21460154.59649 -13867916.14748  20478902.391    20478906.100
  23070324.955    -5475069.17849  -4249278.94545  23070324.456    23070326.356
  20567730.105   -18235309.44749 -13743437.79748  20567729.257    20567732.585
  21394406.197   -12236011.58649  -9510583.68347  21394405.711    21394410.854
  21978770.464    -8573429.56349  -6651796.58947  21978770.314    21978774.347
  23531767.915    -4345816.31849  -3190519.29246  23531767.467    23531771.840
  22273615.956    -9817150.60549  -7639199.42746  22273614.997    22273620.519
 04  1  9  3 14 30.0000000  0  7G18G16G21G 6G26G29G15
  20474278.280   -21484458.11849 -13886853.94748  20474277.543    20474281.264
  23073518.984    -5458285.02049  -4236200.40145  23073518.355    23073520.369
  20566994.690   -18239173.94449 -13746449.10048  20566993.866    20566997.205
  21408032.447   -12164405.48349  -9454786.73447  21408031.948    21408037.033
  21984085.311    -8545499.74649  -6630033.09447  21984085.135    21984089.228
  23542372.799    -4290086.77949  -3147093.67846  23542372.405    23542376.686
  22261109.476    -9882873.20449  -7690411.81647  22261108.445    22261114.030
 04  1  9  3 15  0.0000000  0  7G18G16G21G 6G26G29G15
  20469738.367   -21508315.43249 -13905444.05148  20469737.626    20469741.361
  23076810.498    -5440988.66549  -4222722.73445  23076809.836    23076811.914
  20566300.653   -18242821.07749 -13749291.01948  20566299.847    20566303.178
  21421734.929   -12092398.79449  -9398677.63747  21421734.402    21421739.416
  21989523.376    -8516922.14149  -6607764.82947  21989523.180    21989527.372
  23553066.652    -4233890.27549  -3103304.19646  23553066.232    23553070.288
  22248621.779    -9948495.31049  -7741545.88846  22248620.860    22248626.525
 04  1  9  3 15 30.0000000  0  7G18G16G21G 6G26G29G15
  20465283.719   -21531724.52549 -13923684.88848  20465282.979    20465286.739
  23080199.772    -5423179.14449  -4208845.17345  23080198.901    23080201.382
  20565648.541   -18246247.87349 -13751961.24948  20565647.738    20565651.065
  21435513.839   -12019990.28849  -9342255.43147  21435513.313    21435518.261
  21995085.004    -8487695.28149  -6584990.64347  21995084.829    21995089.003
  23563849.472    -4177226.14949  -3059150.34546  23563848.958    23563852.991
  22236154.029   -10014013.97649  -7792599.34847  22236153.082    22236158.760
 04  1  9  3 16  0.0000000  0  7G18G16G21G 6G26G29G15
  20460913.705   -21554688.85849 -13941579.15548  20460912.985    20460916.791
  23083685.484    -5404860.91249  -4194571.21745  23083684.668    23083687.466
  20565037.802   -18249457.13049 -13754461.96148  20565037.021    20565040.337
  21449368.349   -11947184.69249  -9285523.80647  21449367.841    21449372.688
  22000769.405    -8457823.09149  -6561713.61047  22000769.294    22000773.501
  23574720.265    -4120099.52349  -3014636.07346  23574719.761    23574723.663
  22223705.393   -10079431.98949  -7843574.37846  22223704.410    22223710.060
 04  1  9  3 16 30.0000000  0  8G 2G18G16G21G 6G26G29G15
                   -271659.97949   -200952.11043
  20456628.365   -21577208.41849 -13959126.85148  20456627.631    20456631.459
  23087267.896    -5386034.96749  -4179901.64745  23087267.158    23087270.034
  20564468.613   -18252448.13849 -13756792.61448  20564467.845    20564471.147
  21463298.300   -11873982.92249  -9228483.47947  21463297.738    21463302.471
  22006576.617    -8427306.03949  -6537934.08847  22006576.554    22006580.736
  23585678.952    -4062511.22249  -2969762.07546  23585678.365    23585682.148
  22211276.003   -10144748.54649  -7894470.36446  22211275.014    22211280.655
 04  1  9  3 17  0.0000000  0  8G 2G18G16G21G 6G26G29G15
                   -295108.540 9    218005.998 1
  20452428.421   -21599279.23749 -13976324.87848  20452427.679    20452431.466
  23090947.474    -5366698.50249  -4164834.26845  23090946.789    23090949.692
  20563941.828   -18255216.01849 -13758949.40248  20563941.090    20563944.432
  21477304.055   -11800382.18149  -9171132.26047  21477303.572    21477308.201
  22012507.234    -8396140.82149  -6513649.50547  22012507.128    22012511.297
  23596725.607    -4004459.30549  -2924526.84246  23596725.127    23596728.757
  22198866.754   -10209958.92649  -7945283.60346  22198865.785    22198871.470
 04  1  9  3 17 30.0000000  0  8G 2G18G16G21G 6G26G29G15
                   -318140.15049   -155801.93343
  20448312.102   -21620910.50049 -13993180.39248  20448311.379    20448315.161
  23094722.449    -5346861.76749  -4149377.11345  23094721.687    23094724.470
  20563455.978   -18257769.21049 -13760938.90248  20563455.226    20563458.567
  21491383.800   -11726392.99549  -9113478.36447  21491383.315    21491387.873
  22018559.349    -8364337.40749  -6488867.62747  22018559.228    22018563.353
  23607858.752    -3945954.26949  -2878938.48146  23607858.309    23607861.700
  22186476.087   -10275071.75549  -7996020.82846  22186475.123    22186480.886
 04  1  9  3 18  0.0000000  0  7G18G16G21G 6G26G29G15
  20444280.243   -21642098.15949 -14009690.24048  20444279.500    20444283.277
  23098592.937    -5326521.36649  -4133527.42845  23098592.298    23098595.280
  20563011.964   -18260102.73249 -13762757.22448  20563011.204    20563014.507
  21505538.102   -11652011.96849  -9055519.13147  21505537.606    21505542.111
  22024733.703    -8331891.65549  -6463585.20747  22024733.584    22024737.588
  23619078.515    -3886993.24349  -2832994.82145  23619078.073    23619081.663
  22174104.886   -10340082.01049  -8046678.14046  22174103.987    22174109.710
 04  1  9  3 18 30.0000000  0  7G18G16G21G 6G26G29G15
  20440332.316   -21662844.57149 -14025856.26248  20440331.543    20440335.348
  23102558.302    -5305681.17349  -4117288.31545  23102557.792    23102561.218
  20562609.434   -18262217.93749 -13764405.43148  20562608.652    20562611.942
  21519766.183   -11577242.69849  -8997257.37347  21519765.726    21519770.211
  22031029.481    -8298807.10749  -6437805.03647  22031029.386    22031033.385
  23630384.324    -3827580.22849  -2786698.98046  23630383.935    23630387.674
  22161753.228   -10404991.47349  -8097256.90547  22161752.208    22161757.718
 04  1  9  3 19  0.0000000  0  8G 2G18G16G21G 6G26G29G15
                   -147958.84849   -108773.21643
  20436471.541   -21683133.06349 -14041665.46848  20436470.796    20436474.568
  23106622.122    -5284325.37649  -4100647.44145  23106621.559    23106625.209
  20562251.707   -18264097.81449 -13765870.27048  20562250.930    20562254.201
  21534071.176   -11502069.32949  -8938680.74147  21534070.753    21534075.233
  22037449.948    -8265067.41749  -6411514.35947  22037449.901    22037453.785
  23641779.386    -3767699.75249  -2740038.88046  23641778.917    23641782.521
  22149423.960   -10469782.36849  -8147743.28247  22149422.933    22149428.349
 04  1  9  3 19 30.0000000  0  7G18G16G21G 6G26G29G15
  20432694.248   -21702982.82249 -14057132.79548  20432693.501    20432697.291
  23110780.340    -5262474.20749  -4083620.56245  23110779.720    23110783.314
  20561935.339   -18265760.11749 -13767165.56748  20561934.549    20561937.851
  21548449.219   -11426512.32249  -8879805.16047  21548448.799    21548453.301
  22043991.353    -8230692.50549  -6384728.69847  22043991.302    22043994.991
  23653259.554    -3707372.47149  -2693030.59146  23653259.019    23653262.328
  22137113.770   -10534472.81249  -8198151.38147  22137112.726    22137118.233
 04  1  9  3 20  0.0000000  0  8G 2G18G16G21G 6G26G29G15
                   -190204.85149   -141693.64643
  20429000.755   -21722392.13349 -14072256.92348  20429000.008    20429003.821
  23115032.901    -5240127.15249  -4066207.26845  23115032.127    23115035.713
  20561660.905   -18267202.22749 -13768289.28248  20561660.089    20561663.414
  21562900.360   -11350570.96849  -8820630.09747  21562899.935    21562904.442
  22050653.864    -8195681.19349  -6357447.14947  22050653.770    22050657.297
  23664824.619    -3646598.08249  -2645673.95146  23664824.093    23664827.283
  22124823.070   -10599060.30949  -8248479.26647  22124822.085    22124827.544
 04  1  9  3 20 30.0000000  0  7G18G16G21G 6G26G29G15
  20425391.232   -21741360.02249 -14087037.08848  20425390.546    20425394.358
  23119379.562    -5217284.53049  -4048407.84345  23119378.907    23119382.278
  20561428.631   -18268422.59149 -13769240.20948  20561427.840    20561431.192
  21577424.598   -11274245.73149  -8761155.89147  21577424.150    21577428.666
  22057437.374    -8160033.53149  -6329669.74747  22057437.294    22057440.819
  23676474.488    -3585377.17649  -2597969.36146  23676474.088    23676477.393
  22112552.335   -10663543.42749  -8298725.80947  22112551.349    22112556.794
 04  1  9  3 21  0.0000000  0  8G 2G18G16G21G 6G26G29G15
                   -109699.60349    -82079.42043
  20421866.613   -21759882.16649 -14101469.91148  20421865.896    20421869.698
  23123821.038    -5193942.87349  -4030219.52345  23123820.352    23123823.951
  20561239.629   -18269415.67649 -13770014.03148  20561238.841    20561242.203
  21592022.534   -11197532.92149  -8701379.68547  21592022.114    21592026.669
  22064342.951    -8123745.47649  -6301393.32647  22064342.764    22064346.162
  23688210.109    -3523706.72849  -2549914.46546  23688209.654    23688212.964
  22100302.528   -10727916.50549  -8348886.60847  22100301.530    22100307.009
 04  1  9  3 21 30.0000000  0  7G18G16G21G 6G26G29G15
  20418424.903   -21777968.33149 -14115563.01448  20418424.169    20418428.005
  23128355.780    -5170112.86849  -4011650.69245  23128354.933    23128358.487
  20561092.175   -18270190.70349 -13770617.93548  20561091.363    20561094.710
  21606692.118   -11120443.27849  -8641309.84747  21606691.749    21606696.366
  22071368.141    -8086827.44849  -6272626.03047  22071368.000    22071371.332
  23700028.996    -3461597.76549  -2501517.87246  23700028.662    23700032.004
  22088071.826   -10792188.49049  -8398968.62947  22088070.897    22088076.350
 04  1  9  3 22  0.0000000  0  7G18G16G21G 6G26G29G15
  20415067.636   -21795610.58749 -14129310.22048  20415066.943    20415070.802
  23132984.443    -5145787.78949  -3992696.09945  23132983.768    23132987.408
  20560988.060   -18270738.11549 -13771044.48648  20560987.185    20560990.560
  21621434.749   -11042970.07749  -8580941.13247  21621434.382    21621439.063
  22078514.726    -8049272.24549  -6243362.23147  22078514.562    22078517.842
  23711932.564    -3399043.84949  -2452774.55446  23711932.310    23711935.717
  22075862.113   -10856350.56549  -8448965.00547  22075861.229    22075866.738
 04  1  9  3 22 30.0000000  0  7G18G16G21G 6G26G29G15
  20411794.032   -21812813.57249 -14142715.12548  20411793.330    20411797.162
  23137706.620    -5120973.49849  -3973360.28945  23137705.789    23137709.158
  20560926.424   -18271061.76449 -13771296.67048  20560925.558    20560928.977
  21636249.243   -10965119.13249  -8520278.06547  21636248.867    21636253.659
  22085781.490    -8011085.44549  -6213606.26646  22085781.302    22085784.572
  23723919.783    -3336050.99449  -2403689.20146  23723919.422    23723923.030
  22063672.758   -10920406.42349  -8498878.62147  22063671.808    22063677.264
 04  1  9  3 23  0.0000000  0  7G18G16G21G 6G26G29G15
  20408603.956   -21829577.42149 -14155777.84948  20408603.238    20408607.109
  23142521.320    -5095670.99349  -3953644.06445  23142520.487    23142523.827
  20560907.525   -18271160.76149 -13771373.80648  20560906.690    20560910.094
  21651135.482   -10886891.39849  -8459321.40747  21651135.121    21651140.015
  22093168.457    -7972267.56649  -6183358.54446  22093168.178    22093171.382
  23735990.172    -3272620.76149  -2354263.04946  23735989.756    23735993.489
  22051503.727   -10984354.85649  -8548708.53647  22051502.743    22051508.240
 04  1  9  3 23 30.0000000  0  7G18G16G21G 6G26G29G15
  20405497.154   -21845903.72349 -14168499.63348  20405496.459    20405500.347
  23147428.387    -5069883.28749  -3933549.73745  23147427.700    23147430.880
  20560931.367   -18271035.61349 -13771276.27848  20560930.534    20560933.910
  21666093.017   -10808289.41349  -8398073.12247  21666092.606    21666097.553
  22100674.733    -7932820.94449  -6152620.92546  22100674.462    22100677.818
  23748143.398    -3208755.95949  -2304498.25846  23748142.853    23748146.612
  22039354.885   -11048196.50949  -8598455.24947  22039354.003    22039359.592
 04  1  9  3 24  0.0000000  0  7G18G16G21G 6G26G29G15
  20402474.471   -21861788.14849 -14180877.08948  20402473.771    20402477.623
  23152428.313    -5043606.96749  -3913074.65745  23152427.678    23152431.112
  20560998.799   -18270681.12749 -13771000.04448  20560997.957    20561001.359
  21681122.260   -10729310.09949  -8336530.80047  21681121.832    21681126.866
  22108301.408    -7892742.24249  -6121390.75346  22108301.172    22108304.542
  23760379.638    -3144453.86549  -2254392.70846  23760379.083    23760382.925
  22027227.608   -11111925.97849  -8648114.54047  22027226.628    22027232.227
 04  1  9  3 24 30.0000000  0  7G18G16G21G 6G26G29G15
  20399534.717   -21877236.77249 -14192914.96548  20399533.976    20399537.827
  23157520.112    -5016849.42849  -3892224.62845  23157519.513    23157522.909
  20561108.940   -18270102.07449 -13770548.83048  20561108.151    20561111.550
  21696221.989   -10649960.42849  -8274699.90447  21696221.538    21696226.643
  22116047.031    -7852038.00549  -6089673.16646  22116046.760    22116050.393
  23772697.372    -3079721.87249  -2203952.20146  23772696.974    23772701.190
  22015120.658   -11175548.24049  -8697690.29547  22015119.730    22015125.220
 04  1  9  3 25  0.0000000  0  7G18G16G21G 6G26G29G15
  20396678.126   -21892248.17849 -14204612.15248  20396677.394    20396681.259
  23162703.561    -4989610.03349  -3870999.10645  23162702.875    23162706.368
  20561262.414   -18269296.10849 -13769920.79348  20561261.585    20561264.938
  21711392.272   -10570239.91849  -8212580.03847  21711391.826    21711396.938
  22123911.759    -7810707.66749  -6057467.69846  22123911.555    22123915.385
  23785097.292    -3014559.72949  -2153176.50646  23785096.940    23785101.371
  22003034.701   -11239060.71349  -8747180.49947  22003033.737    22003039.200
 04  1  9  3 25 30.0000000  0  7G18G16G21G 6G26G29G15
  20393904.889   -21906821.81449 -14215968.21748  20393904.164    20393908.002
  23167978.633    -4961889.86549  -3849399.01145  23167978.002    23167981.388
  20561459.312   -18268261.56449 -13769114.64748  20561458.469    20561461.848
  21726632.912   -10490149.45549  -8150171.89747  21726632.455    21726637.566
  22131895.511    -7768751.60549  -6024774.65846  22131895.348    22131899.431
  23797578.890    -2948968.79949  -2102066.68246  23797578.469    23797583.017
  21990969.860   -11302461.98849  -8796584.06047  21990968.939    21990974.314
 04  1  9  3 26  0.0000000  0  7G18G16G21G 6G26G29G15
  20391214.189   -21920961.59949 -14226986.22248  20391213.437    20391217.284
  23173344.004    -4933693.56849  -3827427.85345  23173343.509    23173347.075
  20561699.115   -18267001.13349 -13768132.48748  20561698.302    20561701.688
  21741942.926   -10409693.79849  -8087479.19247  21741942.507    21741947.672
  22139997.586    -7726174.39649  -5991597.60546  22139997.479    22140001.656
  23810141.086    -2882954.10949  -2050626.65546  23810140.712    23810145.324
  21978925.716   -11365754.68849  -8845903.02247  21978924.757    21978930.034
 04  1  9  3 26 30.0000000  0  7G18G16G21G 6G26G29G15
  20388606.371   -21934665.48649 -14237664.57148  20388605.672    20388609.473
  23178800.002    -4905020.22849  -3805085.00345  23178799.492    23178803.287
  20561982.548   -18265511.33749 -13766971.60648  20561981.776    20561985.169
  21757322.699   -10328871.59749  -8024500.87547  21757322.319    21757327.522
  22148218.273    -7682974.70749  -5957935.50546  22148218.117    22148222.324
  23822784.104    -2816514.86249  -1998855.82546  23822783.700    23822788.383
  21966902.819   -11428935.42749  -8895134.74247  21966901.910    21966907.126
 04  1  9  3 27  0.0000000  0  7G18G16G21G 6G26G29G15
  20386081.657   -21947932.96049 -14248002.84848  20386080.970    20386084.715
  23184346.802    -4875870.73549  -3782371.13245  23184346.221    23184350.308
  20562309.960   -18263790.85849 -13765630.96948  20562309.179    20562312.539
  21772772.007   -10247683.92849  -7961237.76747  21772771.704    21772776.955
  22156557.299    -7639153.03149  -5923788.73646  22156557.174    22156561.390
  23835507.506    -2749652.15549  -1946755.01346  23835507.122    23835511.956
  21954901.479   -11492002.83849  -8944278.15647  21954900.549    21954905.802
 04  1  9  3 27 30.0000000  0  7G18G16G21G 6G26G29G15
  20383639.665   -21960765.79549 -14258002.44948  20383638.960    20383642.718
  23189983.767    -4846248.25449  -3759288.68345  23189983.068    23189987.258
  20562681.194   -18261840.17449 -13764110.94848  20562680.373    20562683.702
  21788290.448   -10166133.57749  -7897692.05547  21788290.121    21788295.396
  22165014.169    -7594712.05849  -5889159.39846  22165014.050    22165018.314
  23848310.948    -2682369.29449  -1894326.81245  23848310.598    23848315.398
  21942921.545   -11554957.60449  -8993333.79947  21942920.662    21942925.885
 04  1  9  3 28  0.0000000  0  7G18G16G21G 6G26G29G15
  20381279.522   -21973168.43049 -14267666.82848  20381278.814    20381282.574
  23195709.891    -4816158.34349  -3735841.99445  23195709.075    23195713.223
  20563095.518   -18259662.63949 -13762414.16148  20563094.706    20563098.037
  21803876.903   -10084225.94149  -7833867.92847  21803876.610    21803881.882
  22173587.733    -7549657.05649  -5854051.59246  22173587.655    22173592.028
  23861193.546    -2614671.94649  -1841575.60645  23861193.050    23861197.610
  21930962.534   -11617802.85949  -9042304.09047  21930961.581    21930966.840
 04  1  9  3 28 30.0000000  0  7G18G16G21G 6G26G29G15
  20379001.812   -21985138.06049 -14276993.80748  20379001.111    20379004.816
  23201525.008    -4785599.11349  -3712029.62645  23201524.339    23201528.546
  20563553.781   -18257254.22349 -13760537.47348  20563552.998    20563556.325
  21819531.827   -10001959.17649  -7769763.97247  21819531.462    21819536.729
  22182278.709    -7503986.02149  -5818463.77346  22182278.648    22182282.891
  23874155.056    -2546558.83349  -1788500.46945  23874154.626    23874159.162
  21919024.979   -11680534.53549  -9091185.89747  21919024.075    21919029.309
 04  1  9  3 29  0.0000000  0  7G18G16G21G 6G26G29G15
  20376806.320   -21996675.58349 -14285984.07248  20376805.581    20376809.280
  23207429.091    -4754572.55849  -3687853.10845  23207428.372    23207432.888
  20564056.100   -18254614.76449 -13758480.74148  20564055.321    20564058.599
  21835254.723    -9919335.08449  -7705381.57547  21835254.368    21835259.594
  22191086.638    -7457700.77349  -5782397.34346  22191086.441    22191090.719
  23887195.160    -2478032.06449  -1735103.00245  23887194.720    23887199.412
  21907109.172   -11743152.28849  -9139978.91447  21907108.265    21907113.509
 04  1  9  3 29 30.0000000  0  7G18G16G21G 6G26G29G15
  20374692.626   -22007782.77749 -14294639.01648  20374691.934    20374695.646
  23213421.546    -4723082.02749  -3663315.00745  23213420.923    23213425.470
  20564602.281   -18251744.94049 -13756244.50648  20564601.483    20564604.712
  21851045.191    -9836356.36549  -7640722.83947  21851044.816    21851049.965
  22200010.781    -7410803.79849  -5745854.24246  22200010.643    22200014.897
  23900313.234    -2409094.71849  -1681385.58545  23900312.997    23900317.394
  21895214.932   -11805656.55149  -9188683.49947  21895214.059    21895219.280
 04  1  9  3 30  0.0000000  0  7G18G16G21G 6G26G29G15
  20372660.892   -22018459.62849 -14302958.63448  20372660.211    20372663.871
  23219502.321    -4691128.40449  -3638416.09045  23219501.723    23219506.170
  20565192.527   -18248643.45549 -13753827.76548  20565191.714    20565194.920
  21866902.951    -9753024.02349  -7575788.57147  21866902.548    21866907.614
  22209051.065    -7363296.13749  -5708835.28946  22209051.034    22209055.397
  23913509.566    -2339748.36649  -1627349.45745  23913509.292    23913513.345
  21883342.635   -11868045.96349  -9237298.59647  21883341.728    21883346.921
 04  1  9  3 30 30.0000000  0  7G18G16G21G 6G26G29G15
  20370710.876   -22028707.03349 -14310943.61448  20370710.191    20370713.812
  23225670.700    -4658713.82849  -3613157.99645  23225670.232    23225674.628
  20565827.122   -18245308.96149 -13751229.45948  20565826.325    20565829.488
  21882827.545    -9669340.10049  -7510580.33747  21882827.164    21882832.127
  22218207.473    -7315179.47049  -5671341.77346  22218207.415    22218211.726
  23926783.237    -2269995.09649  -1572996.25245  23926782.793    23926786.889
  21871492.215   -11930320.23949  -9285823.98847  21871491.312    21871496.434
 04  1  9  3 31  0.0000000  0  7G18G16G21G 6G26G29G15
  20368842.572   -22038524.63749 -14318593.68048  20368841.934    20368845.502
  23231926.813    -4625839.06349  -3587541.29145  23231926.341    23231930.557
  20566506.272   -18241740.38049 -13748448.74148  20566505.444    20566508.562
  21898819.015    -9585305.31849  -7445098.70347  21898818.573    21898823.426
  22227479.557    -7266454.39149  -5633374.16846  22227479.496    22227483.867
  23940133.952    -2199835.88549  -1518326.73545  23940133.461    23940137.883
  21859664.133   -11992477.45849  -9334258.15847  21859663.220    21859668.262
 04  1  9  3 31 30.0000000  0  7G18G16G21G 6G26G29G15
  20367055.660   -22047915.07349 -14325910.89348  20367055.011    20367058.538
  23238269.856    -4592508.06249  -3561569.09645  23238269.241    23238273.354
  20567229.516   -18237939.38049 -13745486.92648  20567228.724    20567231.810
  21914876.386    -9500923.54449  -7379346.69747  21914875.947    21914880.654
  22236866.674    -7217124.64249  -5594935.40746  22236866.578    22236870.933
  23953560.935    -2129275.15849  -1463344.37545  23953560.624    23953565.072
  21847858.042   -12054519.27049  -9382602.40947  21847857.103    21847862.108
 04  1  9  3 32  0.0000000  0  7G18G16G21G 6G26G29G15
  20365349.729   -22056880.01149 -14332896.54548  20365349.052    20365352.559
  23244699.178    -4558723.87749  -3535243.79245  23244698.469    23244702.199
  20567997.023   -18233905.99049 -13742344.02448  20567996.253    20567999.327
  21930999.372    -9416197.27049  -7313326.25247  21930998.895    21931003.415
  22246368.330    -7167192.58949  -5556027.30846  22246368.210    22246372.641
  23967064.303    -2058315.56149  -1408051.14545  23967064.006    23967067.879
  21836073.853   -12116446.03249  -9430857.00747  21836072.871    21836077.760
 04  1  9  3 32 30.0000000  0  8G18G 3G16G21G 6G26G29G15
  20363725.586   -22065414.83949 -14339547.05548  20363724.927    20363728.426
  23946475.064    -1756931.47949  -1356445.26844  23946473.361    23946475.634
  23251215.261    -4524482.98649  -3508562.58545  23251214.488    23251217.883
  20568809.854   -18229634.54949 -13739015.63048  20568809.080    20568812.134
  21947188.476    -9331122.90049  -7247034.57147  21947188.038    21947192.444
  22255985.172    -7116654.80549  -5516647.21846  22255985.102    22255989.581
  23980644.170    -1986954.18349  -1352444.87445  23980643.825    23980647.481
  21824312.732   -12178251.46249  -9479017.07647  21824311.713    21824316.524
 04  1  9  3 33  0.0000000  0  8G18G 3G16G21G 6G26G29G15
  20362181.680   -22073528.22349 -14345869.15648  20362180.986    20362184.497
  23928304.726    -1852415.39549  -1430848.29845  23928302.310    23928305.347
  23257816.414    -4489795.58049  -3481533.45545  23257815.598    23257818.632
  20569666.607   -18225132.46249 -13735507.50048  20569665.807    20569668.852
  21963442.004    -9245710.42049  -7180479.41047  21963441.496    21963445.823
  22265715.449    -7065521.17949  -5476802.83846  22265715.406    22265719.986
  23994298.336    -1915201.18349  -1296533.43245  23994297.884    23994301.293
  21812573.146   -12239943.32549  -9527088.63747  21812572.101    21812577.024
 04  1  9  3 33 30.0000000  0  8G18G 3G16G21G 6G26G29G15
  20360718.582   -22081216.69049 -14351860.15448  20360717.918    20360721.444
  23910172.783    -1947698.52649  -1505094.87245  23910171.403    23910173.653
  23264502.652    -4454658.95549  -3454154.26245  23264502.030    23264504.944
  20570568.236   -18220394.17549 -13731815.31948  20570567.403    20570570.497
  21979760.293    -9159956.93249  -7113658.52247  21979759.859    21979764.125
  22275559.927    -7013788.69049  -5436491.79746  22275559.752    22275564.317
  24008027.301    -1843053.91949  -1240314.79745  24008027.059    24008030.179
  21800856.110   -12301516.20449  -9575067.48447  21800855.132    21800860.079
 04  1  9  3 34  0.0000000  0  8G18G 3G16G21G 6G26G29G15
  20359336.140   -22088481.34349 -14357520.91848  20359335.475    20359339.003
  23892079.293    -2042778.56649  -1579183.19145  23892077.859    23892080.589
  23271274.117    -4419075.38049  -3426426.82845  23271273.502    23271276.444
  20571514.691   -18215419.91949 -13727939.27748  20571513.897    20571517.041
  21996143.169    -9073864.53949  -7046573.56547  21996142.747    21996146.974
  22285517.720    -6961459.50649  -5395715.82346  22285517.687    22285522.246
  24021830.909    -1770515.03949  -1183790.98045  24021830.732    24021833.639
  21789161.955   -12362969.63649  -9622953.26647  21789160.948    21789165.883
 04  1  9  3 34 30.0000000  0  8G18G 3G16G21G 6G26G29G15
  20358034.430   -22095322.08349 -14362851.34848  20358033.737    20358037.241
  23874025.023    -2137652.24849  -1653110.63845  23874023.828    23874026.637
  23278130.502    -4383046.06749  -3398352.06145  23278129.766    23278132.749
  20572506.526   -18210207.94249 -13723877.99148  20572505.730    20572508.854
  22012590.290    -8987434.22849  -6979225.28247  22012589.951    22012594.107
  22295589.008    -6908534.39449  -5354475.48146  22295589.005    22295593.512
  24035708.860    -1697585.71449  -1126962.93645  24035708.895    24035711.252
  21777490.728   -12424302.14249  -9670744.80147  21777489.678    21777494.653
 04  1  9  3 35  0.0000000  0  8G18G 3G16G21G 6G26G29G15
  20356813.210   -22101739.50849 -14367851.93248  20356812.522    20356816.074
  23856010.972    -2232317.21249  -1726875.52445  23856009.768    23856012.680
  23285071.100    -4346573.19949  -3369931.65445  23285070.361    23285073.343
  20573543.798   -18204757.64349 -13719631.00648  20573542.972    20573546.030
  22029101.524    -8900667.79949  -6911615.09447  22029101.160    22029105.245
  22305773.257    -6855015.51349  -5312772.47046  22305773.264    22305777.917
  24049660.807    -1624268.29049  -1069832.47345  24049660.756    24049663.081
  21765842.445   -12485513.20949  -9718441.72547  21765841.442    21765846.503
 04  1  9  3 35 30.0000000  0  8G18G 3G16G21G 6G26G29G15
  20355672.173   -22107735.36049 -14372524.01848  20355671.512    20355675.090
  23838037.226    -2326771.66549  -1800476.34645  23838035.970    23838038.547
  23292095.550    -4309659.68049  -3341167.87545  23292094.897    23292097.679
  20574626.339   -18199069.30349 -13715198.53248  20574625.473    20574628.446
  22045676.154    -8813567.80949  -6843744.98947  22045675.816    22045679.787
  22316070.197    -6800905.35749  -5270608.71046  22316070.146    22316074.784
  24063685.770    -1550565.70649  -1012401.91545  24063685.747    24063688.319
  21754217.409   -12546602.84749  -9766044.02947  21754216.439    21754221.432
 04  1  9  3 36  0.0000000  0  8G18G 3G16G21G 6G26G29G15
  20354610.858   -22113312.58449 -14376869.89048  20354610.177    20354613.751
  23820103.703    -2421015.12549  -1873912.80145  23820102.346    23820104.663
  23299203.223    -4272309.62149  -3312063.95045  23299202.447    23299204.999
  20575753.881   -18193144.20449 -13710581.56848  20575753.023    20575755.956
  22062313.544    -8726138.05849  -6775617.91647  22062313.188    22062317.075
  22326478.831    -6746207.80749  -5227987.24246  22326478.780    22326483.404
  24077783.574    -1476481.93349   -954674.32445  24077783.378    24077785.801
  21742615.242   -12607572.21649  -9813552.61147  21742614.291    21742619.314
